[[{"header":{"parameterUnit":"m.s-1","parameterCategory":1,"la1":30.6,"la2":29.2853,"lo1":-89.7004,"lo2":-87.6739,"dy":0.0162,"dx":0.0183,"nx":112,"ny":82,"refTime":"2024-03-18T06:00:00:Z","depth":0,"parameterNumber":2,"parameterNumberName":"U-component_of_WINDS"},"data":[0.0,0.0,0.0,0.0,0.0,0.0,0.0,0.0,0.0,0.0,0.0,0.0,0.0,0.0,0.0,0.0,0.0,0.0,0.0,0.0,0.0,0.0,0.0,0.0,0.0,0.0,0.0,0.0,0.0,0.0,0.0,0.0,0.0,0.0,0.0,0.0,0.0,0.0,0.0,0.0,0.0,0.0,0.0,0.0,0.0,0.0,0.0,0.0,0.0,0.0,0.0,0.0,0.0,0.0,0.0,0.0,0.0,0.0,0.0,0.0,0.0,0.0,0.0,0.0,0.0,0.0,0.0,0.0,0.0,0.0,0.0,0.0,0.0,0.0,0.0,0.0,0.0,0.0,0.0,0.0,0.0,0.0,0.0,0.0,0.0,0.0,0.0,0.0,0.0,0.0,3.8757,3.8707,3.8699,3.8699,3.8699,3.8699,3.8699,3.8699,0.0,0.0,0.0,0.0,0.0,0.0,0.0,0.0,0.0,0.0,0.0,0.0,0.0,0.0,0.0,0.0,0.0,0.0,0.0,0.0,0.0,0.0,0.0,0.0,0.0,0.0,0.0,0.0,0.0,0.0,0.0,0.0,0.0,0.0,0.0,0.0,0.0,0.0,0.0,0.0,0.0,0.0,0.0,0.0,0.0,0.0,0.0,0.0,0.0,0.0,0.0,0.0,0.0,0.0,0.0,0.0,0.0,0.0,0.0,0.0,0.0,0.0,0.0,0.0,0.0,0.0,0.0,0.0,0.0,0.0,0.0,0.0,0.0,0.0,0.0,0.0,0.0,0.0,0.0,0.0,0.0,0.0,0.0,0.0,0.0,0.0,0.0,0.0,0.0,0.0,0.0,0.0,0.0,0.0,0.0,0.0,0.0,0.0,0.0,0.0,0.0,0.0,0.0,0.0,3.8954,3.8719,3.8699,3.8699,3.8699,3.8699,3.8699,3.8699,0.0,0.0,0.0,0.0,0.0,0.0,0.0,0.0,0.0,0.0,0.0,0.0,0.0,0.0,0.0,0.0,0.0,0.0,0.0,0.0,0.0,0.0,0.0,0.0,0.0,0.0,0.0,0.0,0.0,0.0,0.0,0.0,0.0,0.0,0.0,0.0,0.0,0.0,0.0,0.0,0.0,0.0,0.0,0.0,0.0,0.0,0.0,0.0,0.0,0.0,0.0,0.0,0.0,0.0,0.0,0.0,0.0,0.0,0.0,0.0,0.0,0.0,0.0,0.0,0.0,0.0,0.0,0.0,0.0,0.0,0.0,0.0,0.0,0.0,0.0,0.0,0.0,0.0,0.0,0.0,0.0,0.0,0.0,0.0,0.0,0.0,0.0,0.0,0.0,0.0,0.0,0.0,0.0,0.0,0.0,0.0,0.0,0.0,0.0,0.0,0.0,0.0,0.0,3.8894,3.8837,3.8704,3.8699,3.8699,3.8699,3.8699,3.8699,3.8699,3.8699,0.0,0.0,0.0,0.0,0.0,0.0,0.0,0.0,0.0,0.0,0.0,0.0,0.0,0.0,0.0,0.0,0.0,0.0,0.0,0.0,0.0,0.0,0.0,0.0,0.0,0.0,0.0,0.0,0.0,0.0,0.0,0.0,0.0,0.0,0.0,0.0,0.0,0.0,0.0,0.0,0.0,0.0,0.0,0.0,0.0,0.0,0.0,0.0,0.0,0.0,0.0,0.0,0.0,0.0,0.0,0.0,0.0,0.0,0.0,0.0,0.0,0.0,0.0,0.0,0.0,0.0,0.0,0.0,0.0,0.0,0.0,0.0,0.0,0.0,0.0,0.0,0.0,0.0,0.0,0.0,0.0,0.0,0.0,0.0,0.0,0.0,0.0,0.0,0.0,0.0,0.0,0.0,0.0,0.0,0.0,0.0,0.0,0.0,0.0,0.0,0.0,0.0,3.8961,3.8777,3.8715,3.8699,3.8699,3.8699,3.8699,3.8699,3.8699,3.8699,0.0,0.0,0.0,0.0,0.0,0.0,0.0,0.0,0.0,0.0,0.0,0.0,0.0,0.0,0.0,0.0,0.0,0.0,0.0,0.0,0.0,0.0,0.0,0.0,0.0,0.0,0.0,0.0,0.0,0.0,0.0,0.0,0.0,0.0,0.0,0.0,0.0,0.0,0.0,0.0,0.0,0.0,0.0,0.0,0.0,0.0,0.0,0.0,0.0,0.0,0.0,0.0,0.0,0.0,0.0,0.0,0.0,0.0,0.0,0.0,0.0,0.0,0.0,0.0,0.0,0.0,0.0,0.0,0.0,0.0,0.0,0.0,0.0,0.0,0.0,0.0,0.0,0.0,0.0,0.0,0.0,0.0,0.0,0.0,0.0,0.0,0.0,0.0,0.0,0.0,0.0,0.0,0.0,0.0,0.0,0.0,0.0,0.0,0.0,0.0,0.0,0.0,3.9282,3.899,3.8727,3.8699,3.8699,3.8699,3.8699,3.8699,3.8699,3.8699,0.0,0.0,0.0,0.0,0.0,0.0,0.0,0.0,0.0,0.0,0.0,0.0,0.0,0.0,0.0,0.0,0.0,0.0,0.0,0.0,0.0,0.0,0.0,0.0,0.0,0.0,0.0,0.0,0.0,0.0,0.0,0.0,0.0,0.0,0.0,0.0,0.0,0.0,0.0,0.0,0.0,0.0,0.0,0.0,0.0,0.0,0.0,0.0,0.0,0.0,0.0,0.0,0.0,0.0,0.0,0.0,0.0,0.0,0.0,0.0,0.0,0.0,0.0,0.0,0.0,0.0,0.0,0.0,0.0,0.0,0.0,0.0,0.0,0.0,0.0,0.0,0.0,0.0,0.0,0.0,0.0,0.0,0.0,0.0,0.0,0.0,0.0,0.0,0.0,0.0,0.0,0.0,0.0,0.0,0.0,0.0,0.0,0.0,0.0,0.0,0.0,0.0,3.9027,3.8818,0.0,3.8699,3.8699,3.8699,3.8699,3.8699,3.8699,0.0,0.0,0.0,0.0,0.0,0.0,0.0,0.0,0.0,0.0,0.0,0.0,0.0,0.0,0.0,0.0,0.0,0.0,0.0,0.0,0.0,0.0,0.0,0.0,0.0,0.0,0.0,0.0,0.0,0.0,0.0,0.0,0.0,0.0,0.0,0.0,0.0,0.0,0.0,0.0,0.0,0.0,0.0,0.0,0.0,0.0,0.0,0.0,0.0,0.0,0.0,0.0,0.0,0.0,0.0,0.0,0.0,0.0,0.0,0.0,0.0,0.0,0.0,0.0,0.0,0.0,0.0,0.0,0.0,0.0,0.0,0.0,0.0,0.0,0.0,0.0,0.0,0.0,0.0,0.0,0.0,0.0,0.0,0.0,0.0,0.0,0.0,0.0,0.0,0.0,0.0,0.0,0.0,0.0,0.0,0.0,0.0,0.0,0.0,0.0,0.0,0.0,3.9132,3.8933,3.8788,0.0,3.8699,3.8699,3.8699,3.8699,3.8699,3.8699,0.0,0.0,0.0,0.0,0.0,0.0,0.0,0.0,0.0,0.0,0.0,0.0,0.0,0.0,0.0,0.0,0.0,0.0,0.0,0.0,0.0,0.0,0.0,0.0,0.0,0.0,0.0,0.0,0.0,0.0,0.0,0.0,0.0,0.0,0.0,0.0,0.0,0.0,0.0,0.0,0.0,0.0,0.0,0.0,0.0,0.0,0.0,0.0,0.0,0.0,0.0,0.0,0.0,0.0,0.0,0.0,0.0,0.0,0.0,0.0,0.0,0.0,0.0,0.0,0.0,0.0,0.0,0.0,0.0,0.0,0.0,0.0,0.0,0.0,0.0,0.0,0.0,0.0,0.0,0.0,0.0,0.0,0.0,0.0,0.0,0.0,0.0,0.0,0.0,0.0,0.0,0.0,0.0,0.0,0.0,0.0,0.0,0.0,0.0,0.0,0.0,0.0,3.9173,3.9105,3.8999,3.8727,3.8707,3.8715,3.8699,3.8707,3.8707,0.0,0.0,0.0,0.0,0.0,0.0,0.0,0.0,0.0,0.0,0.0,0.0,0.0,0.0,0.0,0.0,0.0,0.0,0.0,0.0,0.0,0.0,0.0,0.0,0.0,0.0,0.0,0.0,0.0,0.0,0.0,0.0,0.0,0.0,0.0,0.0,0.0,0.0,0.0,0.0,0.0,0.0,0.0,0.0,0.0,0.0,0.0,0.0,0.0,0.0,0.0,0.0,0.0,0.0,0.0,0.0,0.0,0.0,0.0,0.0,0.0,0.0,0.0,0.0,0.0,0.0,0.0,0.0,0.0,0.0,0.0,0.0,0.0,0.0,0.0,0.0,0.0,0.0,0.0,0.0,0.0,0.0,0.0,0.0,0.0,0.0,0.0,0.0,0.0,0.0,0.0,0.0,0.0,0.0,0.0,0.0,0.0,0.0,0.0,0.0,0.0,0.0,0.0,3.8891,3.8978,3.8999,3.8727,3.9085,3.9168,3.8735,3.8877,3.8902,3.8704,0.0,0.0,0.0,0.0,0.0,0.0,0.0,0.0,0.0,0.0,0.0,0.0,0.0,0.0,0.0,0.0,0.0,0.0,0.0,0.0,0.0,0.0,0.0,0.0,0.0,0.0,0.0,0.0,0.0,0.0,0.0,0.0,0.0,0.0,0.0,0.0,0.0,0.0,0.0,0.0,0.0,0.0,0.0,0.0,0.0,0.0,0.0,0.0,0.0,0.0,0.0,0.0,0.0,0.0,0.0,0.0,0.0,0.0,0.0,0.0,0.0,0.0,0.0,0.0,0.0,0.0,0.0,0.0,0.0,0.0,0.0,0.0,0.0,0.0,0.0,0.0,0.0,0.0,0.0,0.0,0.0,0.0,0.0,0.0,0.0,0.0,0.0,0.0,0.0,0.0,0.0,0.0,0.0,0.0,0.0,0.0,0.0,0.0,0.0,0.0,0.0,0.0,3.8937,3.911,3.9231,3.9085,3.9389,3.9389,3.8906,3.9131,3.9159,3.8877,0.0,0.0,0.0,0.0,0.0,0.0,0.0,0.0,0.0,0.0,0.0,0.0,0.0,0.0,0.0,0.0,0.0,0.0,0.0,0.0,0.0,0.0,0.0,0.0,0.0,0.0,0.0,0.0,0.0,0.0,0.0,0.0,0.0,0.0,0.0,0.0,0.0,0.0,0.0,0.0,0.0,0.0,0.0,0.0,0.0,0.0,0.0,0.0,0.0,0.0,0.0,0.0,0.0,0.0,0.0,0.0,0.0,0.0,0.0,0.0,0.0,0.0,0.0,0.0,0.0,0.0,0.0,0.0,0.0,0.0,0.0,0.0,0.0,0.0,0.0,0.0,0.0,0.0,0.0,0.0,0.0,0.0,0.0,0.0,0.0,0.0,0.0,0.0,0.0,0.0,0.0,0.0,0.0,0.0,0.0,0.0,0.0,0.0,0.0,0.0,0.0,0.0,3.9225,3.9432,3.9622,3.9564,3.9634,3.9522,3.9127,3.942,3.9462,3.9178,0.0,0.0,0.0,0.0,0.0,0.0,0.0,0.0,0.0,0.0,0.0,0.0,0.0,0.0,0.0,0.0,0.0,0.0,0.0,0.0,0.0,0.0,0.0,0.0,0.0,0.0,0.0,0.0,0.0,0.0,0.0,0.0,0.0,0.0,0.0,0.0,0.0,0.0,0.0,0.0,0.0,0.0,0.0,0.0,0.0,0.0,0.0,0.0,0.0,0.0,0.0,0.0,0.0,0.0,0.0,0.0,0.0,0.0,0.0,0.0,3.9168,3.8627,0.0,0.0,0.0,0.0,0.0,0.0,0.0,0.0,0.0,0.0,0.0,0.0,0.0,0.0,0.0,0.0,0.0,0.0,0.0,0.0,0.0,0.0,0.0,0.0,0.0,0.0,0.0,0.0,0.0,0.0,0.0,0.0,0.0,0.0,0.0,0.0,0.0,0.0,0.0,0.0,3.9552,3.9786,3.9792,3.9257,3.9865,3.9985,3.9166,3.942,3.9576,3.9505,3.9244,0.0,0.0,0.0,0.0,0.0,0.0,0.0,0.0,0.0,0.0,0.0,0.0,0.0,0.0,0.0,0.0,0.0,0.0,0.0,0.0,0.0,0.0,0.0,0.0,0.0,0.0,0.0,0.0,0.0,0.0,0.0,0.0,0.0,0.0,0.0,0.0,0.0,0.0,0.0,0.0,0.0,0.0,0.0,0.0,0.0,0.0,0.0,0.0,0.0,0.0,0.0,0.0,0.0,0.0,0.0,0.0,0.0,0.0,0.0,4.0003,3.9627,0.0,0.0,0.0,0.0,0.0,0.0,0.0,0.0,0.0,0.0,0.0,0.0,0.0,0.0,0.0,0.0,0.0,0.0,0.0,0.0,0.0,0.0,0.0,0.0,0.0,0.0,0.0,0.0,0.0,0.0,0.0,0.0,0.0,0.0,0.0,0.0,0.0,0.0,0.0,0.0,3.9886,4.011,4.0167,3.9818,4.0082,4.0053,3.9395,3.9645,3.977,3.9611,3.9445,0.0,0.0,0.0,0.0,0.0,0.0,0.0,0.0,0.0,0.0,0.0,0.0,0.0,0.0,0.0,0.0,0.0,0.0,0.0,0.0,0.0,0.0,0.0,0.0,0.0,0.0,0.0,0.0,0.0,0.0,0.0,0.0,0.0,0.0,0.0,0.0,0.0,0.0,0.0,0.0,0.0,0.0,0.0,0.0,0.0,0.0,0.0,0.0,0.0,0.0,0.0,0.0,0.0,3.9709,4.0167,4.0172,4.0351,4.0437,4.0437,4.0437,4.0461,4.0496,4.0496,0.0,0.0,0.0,0.0,0.0,0.0,0.0,0.0,0.0,0.0,0.0,0.0,0.0,0.0,0.0,0.0,0.0,0.0,0.0,0.0,0.0,0.0,0.0,0.0,4.0496,4.0496,4.0496,0.0,0.0,0.0,0.0,0.0,0.0,0.0,0.0,0.0,0.0,0.0,4.0195,4.0364,4.0481,4.0445,4.0263,4.0042,3.9707,3.9932,4.0007,3.9773,3.9707,3.9913,0.0,0.0,0.0,0.0,0.0,0.0,0.0,0.0,0.0,0.0,0.0,0.0,0.0,0.0,0.0,0.0,0.0,0.0,0.0,0.0,0.0,0.0,0.0,0.0,0.0,0.0,0.0,0.0,0.0,0.0,0.0,0.0,3.3513,3.3623,0.0,0.0,0.0,0.0,0.0,0.0,0.0,0.0,0.0,0.0,0.0,0.0,0.0,3.8075,3.8169,3.9316,3.988,3.9885,4.0268,4.0453,4.0449,4.0236,4.0148,4.0148,4.0148,0.0,4.0496,4.0496,0.0,0.0,0.0,0.0,0.0,0.0,0.0,0.0,0.0,0.0,0.0,0.0,0.0,0.0,0.0,0.0,0.0,0.0,0.0,0.0,0.0,0.0,4.0496,4.0496,4.0496,4.0496,0.0,4.0496,4.0496,4.0496,4.0496,0.0,0.0,0.0,0.0,0.0,0.0,0.0,4.0457,4.0477,4.0401,4.0177,4.0334,4.0343,4.0052,4.0081,4.0181,4.0362,4.0157,4.0081,4.0148,4.0298,0.0,0.0,0.0,0.0,0.0,0.0,0.0,0.0,0.0,0.0,0.0,0.0,0.0,0.0,0.0,0.0,0.0,0.0,0.0,0.0,0.0,0.0,0.0,0.0,0.0,0.0,0.0,0.0,0.0,3.3587,3.3862,3.4,3.3889,3.3922,0.0,0.0,0.0,0.0,0.0,0.0,0.0,0.0,0.0,3.7287,3.8207,3.891,3.9345,4.0004,4.033,4.033,4.043,4.0496,4.0492,4.0377,4.033,4.033,4.033,4.0389,4.0496,4.0496,4.0496,4.0496,0.0,0.0,0.0,0.0,4.0496,4.0496,4.0496,4.0496,4.0496,4.0496,0.0,0.0,0.0,0.0,0.0,0.0,0.0,4.0496,0.0,0.0,4.0496,4.0496,4.0496,4.0496,4.0496,4.0496,4.0496,0.0,4.0496,4.0496,4.0496,0.0,0.0,0.0,0.0,4.0496,4.0496,4.0496,4.0461,4.0339,4.0304,4.033,4.0477,4.0677,4.0944,4.1379,4.1463,4.159,4.1782,4.1726,4.1408,0.0,0.0,0.0,0.0,0.0,0.0,0.0,0.0,0.0,0.0,0.0,0.0,0.0,0.0,0.0,0.0,0.0,0.0,0.0,0.0,0.0,0.0,0.0,0.0,0.0,0.0,0.0,0.0,3.3979,3.4043,3.4086,3.4062,3.4178,0.0,0.0,0.0,0.0,0.0,0.0,3.6285,3.6615,3.7333,3.859,3.9061,3.9591,4.02,4.0393,4.0496,4.0496,4.0496,4.0496,4.0492,4.0437,4.0393,4.0393,4.0393,4.0393,4.0397,4.0473,4.0496,4.0496,4.0496,4.0496,4.0496,4.0496,4.0496,4.0496,4.0496,4.0496,4.0496,4.0496,4.0496,4.0496,4.0496,0.0,0.0,0.0,0.0,4.0496,4.0496,4.0496,4.0496,4.0496,4.0496,4.0496,4.0496,4.0496,4.0496,0.0,4.0496,4.0496,4.0496,0.0,0.0,0.0,0.0,4.0496,4.0496,4.0496,4.0593,4.08,4.0652,4.0764,4.1339,4.1611,4.1937,4.2323,4.2585,4.2837,4.3096,4.2856,4.2535,4.2135,0.0,0.0,0.0,0.0,0.0,0.0,0.0,0.0,0.0,0.0,0.0,0.0,0.0,0.0,0.0,0.0,0.0,0.0,0.0,0.0,0.0,0.0,0.0,0.0,0.0,0.0,0.0,0.0,0.0,3.3895,3.4307,0.0,0.0,0.0,0.0,3.5776,3.6079,3.6611,3.7478,3.8541,3.9177,3.925,4.0015,4.0442,4.0481,4.0489,4.0496,4.0496,4.0496,4.0496,4.0489,4.0251,4.012,4.012,4.012,4.012,4.0139,4.0389,4.0496,4.0496,4.0496,4.0496,4.0496,4.0496,4.0496,4.0496,4.0496,4.0496,4.0496,4.0496,4.0496,4.0496,4.0496,4.0496,0.0,0.0,4.0496,4.0496,4.0496,4.0496,4.0496,4.0496,4.0496,4.0496,4.0496,4.0496,4.0496,0.0,4.0496,4.0496,4.0496,0.0,4.0496,4.0496,4.0496,4.0496,4.0496,4.0496,4.0819,4.1658,4.1723,4.2061,4.2917,4.3007,4.3026,4.3052,4.3064,4.3073,4.3104,4.3077,4.3054,4.3047,4.3028,0.0,0.0,0.0,0.0,0.0,0.0,0.0,0.0,0.0,0.0,0.0,0.0,0.0,0.0,0.0,0.0,0.0,0.0,0.0,0.0,0.0,0.0,0.0,0.0,0.0,0.0,0.0,0.0,3.4645,3.466,0.0,3.5015,3.546,3.5929,3.6381,3.7017,3.7774,3.8642,3.9073,3.9531,4.0054,4.0342,4.0496,4.0496,4.0496,4.0496,4.0496,4.0496,4.0496,4.0492,4.0393,4.036,4.036,4.036,4.036,4.0364,4.0465,4.0496,4.0496,4.0496,4.0496,4.0496,4.0496,4.0496,4.0496,4.0496,4.0496,4.0496,4.0496,4.0496,4.0496,4.0496,4.0496,4.0496,4.0496,4.0496,4.0496,4.0496,4.0496,4.0496,4.0496,4.0496,4.0496,4.0496,4.0496,4.0496,4.0496,4.0496,4.0496,4.0496,4.0496,4.0496,4.0496,4.0496,4.0704,4.1258,4.1335,4.1662,4.2547,4.2643,4.2887,4.3508,4.3744,4.402,4.4374,4.4598,4.4705,4.4705,4.4705,4.4455,4.3874,4.3874,4.3624,0.0,0.0,0.0,0.0,0.0,0.0,0.0,0.0,0.0,0.0,0.0,0.0,0.0,0.0,0.0,0.0,0.0,0.0,0.0,0.0,0.0,0.0,0.0,0.0,0.0,0.0,3.4967,3.4963,3.5219,3.5483,3.5733,3.6446,3.706,3.7535,3.8104,3.8819,3.9665,3.9704,3.9958,4.0477,4.0496,4.0496,4.0496,4.0496,4.0496,4.0496,4.0496,4.0496,4.0496,4.0496,4.0496,4.0496,4.0496,4.0496,4.0496,4.0496,4.0496,4.0496,4.0496,4.0496,4.0496,4.0496,4.0496,4.0496,4.0496,4.0496,4.0496,4.0496,4.0496,4.0496,4.0496,4.0496,4.0496,4.0496,4.0496,4.0496,4.0496,4.0496,4.0496,4.0496,4.0496,4.0496,4.0496,4.0496,4.0496,4.0496,4.0496,4.0496,4.0496,4.0496,4.0593,4.0896,4.0935,4.1258,4.2119,4.2235,4.2562,4.3412,4.3508,4.3751,4.4369,4.4612,4.4885,4.5254,4.5485,4.5594,4.5594,4.5594,4.5186,4.4316,4.4297,4.4047,4.3508,0.0,0.0,0.0,0.0,0.0,0.0,0.0,0.0,0.0,0.0,0.0,0.0,0.0,0.0,0.0,0.0,0.0,0.0,0.0,0.0,0.0,0.0,0.0,3.513,3.5323,3.5324,3.4817,3.5901,3.6604,3.6387,3.7379,3.8392,3.9242,3.9319,3.9688,4.0458,4.0496,4.0496,4.0496,4.0496,4.0496,4.0496,4.0496,4.0496,4.0496,4.0496,4.0496,4.0496,4.0496,4.0496,4.0496,4.0496,4.0496,4.0496,4.0496,4.0496,4.0496,4.0496,4.0496,4.0496,4.0496,4.0496,4.0496,4.0496,4.0496,4.0496,4.0496,4.0496,4.0496,4.0496,4.0496,4.0496,4.0496,4.0496,4.0496,4.0496,4.0496,4.0496,4.0496,4.0496,4.0496,4.0496,4.0516,4.0535,4.0535,4.0554,4.0573,4.0554,4.0554,4.0877,4.1716,4.185,0.0,4.3028,4.3143,4.3451,4.4239,4.4335,4.4686,4.5537,4.5594,4.5594,4.5594,4.5594,4.5594,4.5594,4.5594,4.5205,4.4359,4.4335,4.4335,4.4335,0.0,0.0,0.0,0.0,0.0,0.0,0.0,0.0,0.0,0.0,0.0,0.0,0.0,0.0,0.0,0.0,0.0,0.0,0.0,0.0,0.0,3.4889,3.4963,3.5088,3.5323,3.5654,3.6105,3.6477,3.6924,3.7471,3.8385,3.9031,3.9281,3.9842,4.0265,4.0496,4.0496,4.0496,4.0496,4.0496,4.0496,4.0496,4.0496,4.0496,4.0496,4.0496,4.0496,4.0496,4.0496,4.0496,4.0496,4.0496,4.0496,4.0496,4.0496,4.0496,4.0496,4.0496,4.0496,4.0496,4.0496,4.0496,4.0496,4.0496,4.0496,4.0496,4.0496,4.0496,4.0496,4.0496,4.0496,4.0496,4.0496,4.0496,4.0496,4.0496,4.0496,4.0496,4.0496,4.0496,4.0496,4.0496,4.0993,4.145,4.145,4.195,4.2181,4.1546,4.197,4.247,4.272,4.2739,0.0,4.3855,4.397,4.4301,4.5148,4.5244,4.534,4.5575,4.5594,4.5594,4.5594,4.5594,4.5594,4.5594,4.5594,4.5494,4.5244,4.5244,4.5244,0.0,0.0,0.0,0.0,0.0,0.0,0.0,0.0,0.0,0.0,0.0,0.0,0.0,0.0,0.0,0.0,0.0,0.0,0.0,0.0,0.0,0.0,3.4903,3.5077,3.569,3.5893,3.6173,3.6638,3.7331,3.7988,3.8492,3.93,3.9804,3.9804,4.0246,4.0496,4.0496,4.0496,4.0496,4.0496,4.0496,4.0496,4.0496,4.0496,4.0496,4.0496,4.0496,4.0496,4.0496,4.0496,4.0496,4.0496,4.0496,4.0496,4.0496,4.0496,4.0496,4.0496,0.0,0.0,0.0,0.0,4.0496,4.0496,4.0496,4.0496,4.0496,4.0496,4.0496,4.0496,4.0496,4.0496,4.0496,4.0496,4.0496,4.0496,4.0496,4.0496,4.0496,4.0496,4.0781,4.1046,4.1046,4.1739,4.2331,4.2331,4.3028,0.0,4.2931,4.2989,4.3201,4.3547,4.3605,4.3893,4.4744,4.484,4.5032,4.5556,4.5594,4.5594,4.5594,4.5594,0.0,0.0,0.0,4.5594,4.5594,4.5244,0.0,0.0,0.0,4.5244,4.5594,4.5594,0.0,0.0,4.4628,4.459,0.0,0.0,0.0,0.0,0.0,0.0,0.0,0.0,0.0,0.0,0.0,0.0,0.0,0.0,0.0,0.0,3.4946,3.5528,3.6523,3.6855,3.6984,3.6984,3.8354,3.9338,3.9434,4.0073,4.0496,4.0496,4.0496,4.0496,4.0496,4.0496,0.0,0.0,0.0,4.0496,4.0496,4.0496,4.0496,4.0496,4.0496,4.0496,4.0496,4.0496,4.0496,4.0496,4.0496,4.0496,4.0496,4.0496,4.0496,4.0496,4.0496,4.0496,4.0496,4.0496,4.0496,4.0496,4.0496,0.0,0.0,4.0496,4.0496,4.0496,4.0496,4.0496,4.0496,4.0496,4.0496,4.0496,4.0496,4.0573,4.0646,4.0646,4.1316,4.1946,4.1946,4.2624,4.3239,4.3239,4.3893,4.4455,4.4455,4.3855,4.3624,4.434,4.4455,4.4724,4.5494,4.5594,4.5594,4.5594,0.0,0.0,4.5594,4.5594,4.5594,4.5594,4.5594,4.5594,4.5594,4.4859,4.4801,4.5575,4.484,4.4821,4.5594,4.5594,4.5594,4.5594,4.5594,4.5594,0.0,0.0,0.0,0.0,0.0,0.0,0.0,0.0,0.0,0.0,0.0,0.0,0.0,0.0,0.0,3.4265,3.5114,3.5884,3.633,3.7778,3.88,3.88,3.9088,3.955,4.0208,4.0419,4.0496,4.0496,4.0496,4.0496,4.0496,4.0496,4.0496,4.0496,4.0496,4.0496,4.0496,4.0496,4.0496,4.0496,4.0496,0.0,4.0496,4.0496,4.0496,4.0496,4.0496,4.0496,4.0496,4.0496,4.0496,4.0496,4.0496,4.0496,4.0496,4.0496,4.0496,4.0496,4.0496,4.0496,4.0496,4.0496,4.0496,4.0496,4.0496,4.0496,0.0,4.0496,4.0496,4.0496,4.0496,4.1031,4.1542,4.1542,4.222,4.2854,4.2854,4.3489,4.4066,4.4066,4.4763,4.534,4.534,4.5225,4.5167,4.5321,4.534,4.5417,4.5575,4.5594,4.5594,4.5594,4.5594,4.5594,4.5594,4.5594,4.5594,4.5594,4.5594,4.5594,4.5594,4.5436,4.5436,4.5594,4.5436,4.5436,4.5594,4.5594,4.5594,4.5594,4.5594,4.5594,0.0,0.0,0.0,0.0,0.0,0.0,0.0,0.0,0.0,0.0,0.0,3.3807,3.3807,0.0,3.4037,3.4741,3.5329,3.6076,3.7153,3.8312,3.9116,3.9288,3.9669,4.0054,4.0458,4.0496,4.0496,4.0496,4.0496,4.0496,4.0496,4.0496,4.0496,4.0496,4.0496,4.0496,4.0496,4.0496,4.0496,4.0496,4.0496,4.0496,4.0496,4.0496,4.0496,4.0496,4.0496,4.0496,4.0496,4.0496,4.0496,4.0496,4.0496,4.0496,4.0496,4.0496,4.0496,4.0496,4.0496,4.0496,4.0496,4.0496,4.0496,4.0496,4.0496,4.0496,4.0496,4.0496,4.08,4.1143,4.1143,4.1797,4.2446,4.2446,4.3085,4.3701,4.3701,4.4359,4.4955,4.4955,4.5302,4.5594,4.5594,4.5594,4.5594,4.5594,4.5594,4.5594,4.5594,4.5594,4.5594,4.5594,4.5594,4.5594,4.5594,4.5594,4.5594,4.5594,4.5594,4.5594,4.5594,4.5594,4.5594,4.5594,4.5594,4.5594,4.5594,4.5594,4.5594,4.5594,4.5594,4.5594,0.0,0.0,0.0,0.0,0.0,0.0,0.0,0.0,3.3807,3.3807,3.3807,3.3807,3.3807,3.3807,3.4157,3.523,3.5591,3.6346,3.8084,3.8731,3.9173,3.9488,4.0112,4.0496,4.0496,4.0496,4.0496,4.0496,4.0496,4.0496,4.0496,4.0496,4.0496,4.0496,4.0496,4.0496,4.0496,4.0496,4.0496,4.0496,4.0496,4.0496,4.0496,4.0496,4.0496,4.0496,4.0496,4.0496,4.0496,4.0496,4.0496,4.0496,4.0496,4.0496,4.0496,4.0496,4.0496,4.0496,4.0496,4.0496,4.0496,4.0496,4.0496,4.0496,4.0496,4.0496,4.0535,4.0704,4.1258,4.185,4.2004,4.2701,4.3335,4.3335,4.3951,4.4551,4.4551,4.509,4.5594,4.5594,4.5594,4.5594,4.5594,4.5594,4.5594,4.5594,4.5594,4.5594,4.5594,4.5594,4.5594,4.5594,4.5594,4.5594,4.5594,4.5594,4.5594,4.5594,4.5594,4.5594,4.5594,4.5594,4.5594,4.5594,4.5594,4.5594,4.5594,4.5594,4.5594,4.5594,4.5594,4.5594,3.0219,3.1356,3.2367,3.2417,3.3042,3.3662,0.0,0.0,3.3807,3.3807,3.3807,3.3807,3.3807,3.3807,3.4077,3.4931,3.5909,3.7,3.8218,3.9288,4.0061,4.0334,4.0458,4.0496,4.0496,4.0496,4.0496,4.0496,4.0496,4.0496,4.0496,4.0496,4.0496,4.0496,4.0496,4.0496,4.0496,4.0496,4.0496,4.0496,4.0496,4.0496,4.0496,4.0496,4.0496,4.0496,4.0496,4.0496,4.0496,4.0496,4.0496,4.0496,4.0496,4.0496,4.0496,4.0496,4.0496,4.0496,4.0496,4.0496,4.0496,4.0496,4.0496,4.0496,4.0496,4.0496,4.0666,4.145,4.1716,4.1985,4.2758,4.3566,4.4162,4.4162,4.4821,4.5455,4.5455,4.5537,4.5594,4.5594,4.5594,4.5594,4.5594,4.5594,4.5594,4.5594,4.5594,4.5594,4.5594,4.5594,4.5594,4.5594,4.5594,4.5594,4.5594,4.5594,4.5594,4.5594,4.5594,4.5594,4.5594,4.5594,4.5594,4.5594,4.5594,4.5594,4.5594,4.5594,4.5594,4.5594,4.5594,4.5594,3.0559,3.1278,3.1796,0.0,3.2574,3.311,3.3383,3.362,3.3807,3.3807,3.3807,3.3807,3.3807,3.3807,3.4229,0.0,3.6162,3.7017,3.859,3.9397,3.9913,4.0232,4.0397,4.0496,4.0496,4.0496,4.0496,4.0496,4.0496,4.0496,4.0496,4.0496,4.0496,4.0496,4.0496,4.0496,4.0496,4.0496,4.0496,4.0496,4.0496,4.0496,4.0496,4.0496,4.0496,4.0496,4.0496,4.0496,4.0496,4.0496,4.0496,4.0496,4.0496,4.0496,4.0496,4.0496,4.0496,4.0496,4.0496,4.0496,4.0496,4.0496,4.0496,4.0593,4.1104,4.1258,4.1431,4.2316,4.2893,4.3335,4.3701,4.4417,4.5051,4.5051,4.5321,4.5594,4.5594,4.5594,4.5594,4.5594,4.5594,4.5594,4.5594,4.5594,4.5594,4.5594,4.5594,4.5594,4.5594,4.5594,4.5594,4.5594,4.5594,4.5594,4.5594,4.5594,4.5594,4.5594,4.5594,4.5594,4.5594,4.5594,4.5594,4.5594,4.5594,4.584,4.6355,4.6355,4.6605,4.7048,4.7048,4.7048,3.0948,3.1387,0.0,3.1924,3.2433,3.2942,3.3295,3.3585,3.3807,3.3807,3.3807,3.3807,3.3807,3.3807,3.4357,3.6035,3.631,3.6985,3.8968,3.9457,3.9746,4.0167,4.0381,4.0496,4.0496,4.0496,4.0496,4.0496,4.0496,4.0496,4.0496,4.0496,4.0496,4.0496,4.0496,4.0496,4.0496,4.0496,4.0496,4.0496,4.0496,4.0496,4.0496,4.0496,4.0496,4.0496,4.0496,4.0496,4.0496,4.0496,4.0496,4.0496,4.0496,4.0496,4.0496,4.0496,4.0496,4.0496,4.0496,4.0496,4.0496,4.0496,4.0666,4.0973,4.16,4.1966,4.2331,4.3181,4.3855,4.4359,4.4609,4.5128,4.5594,4.5594,4.5594,4.5594,4.5594,4.5594,4.5594,4.5594,4.5594,4.5594,4.5594,4.5594,4.5594,4.5594,4.5594,4.5594,4.5594,4.5594,4.5594,4.5594,4.5594,4.5594,4.5594,4.5594,4.5594,4.5594,4.5594,4.5706,4.5956,4.5956,4.6052,4.6283,4.6283,4.6605,4.7235,4.7235,4.7524,4.8101,4.8101,4.8235,3.119,3.1814,3.2459,3.2476,3.3118,3.3762,3.3787,3.3782,3.3807,3.3807,3.3807,3.3807,3.3807,3.3807,3.4357,3.6035,3.631,3.7075,3.9279,3.9593,3.9821,4.0418,4.0492,4.0496,0.0,4.0496,4.0496,4.0496,4.0496,4.0496,4.0496,4.0496,4.0496,4.0496,4.0496,4.0496,4.0496,4.0496,4.0496,4.0496,4.0496,4.0496,4.0496,4.0496,4.0496,4.0496,4.0496,4.0496,4.0496,4.0496,4.0496,4.0496,4.0496,4.0496,4.0496,4.0496,4.0496,4.0496,4.0496,4.0496,4.0496,4.0496,4.1066,4.1773,4.1793,4.2389,4.3239,4.4047,4.4278,4.4494,4.534,4.5575,4.5594,4.5594,4.5594,4.5594,4.5594,4.5594,4.5594,4.5594,4.5594,4.5594,4.5594,4.5594,4.5594,4.5594,4.5594,4.5594,4.5594,4.5594,4.5594,4.5594,4.5594,4.5594,4.5594,4.5594,4.5594,4.5594,4.5594,4.5975,4.6831,4.6851,4.7235,4.8005,4.8024,4.8043,4.8062,4.8062,4.8082,4.8101,4.8101,4.8548,3.12,3.1408,3.1712,3.1968,3.2264,3.2637,3.3255,3.3397,3.3487,3.3741,3.3807,3.3807,3.3807,3.3807,3.4357,3.6035,3.631,3.7063,3.9291,3.9599,3.9826,4.0426,4.0496,0.0,0.0,0.0,4.0496,4.0496,4.0496,4.0496,4.0496,4.0496,4.0496,4.0496,4.0496,4.0496,4.0496,4.0496,4.0496,4.0496,4.0496,4.0496,4.0496,4.0496,4.0496,4.0496,4.0496,4.0496,4.0496,4.0496,4.0496,4.0496,4.0496,4.0496,4.0496,4.0496,4.0496,4.0496,4.0496,4.0496,4.0496,4.0496,4.1085,4.1908,4.2485,4.3239,4.4066,4.4917,4.5167,4.5225,4.5518,4.5594,4.5594,4.5594,4.5594,4.5594,4.5594,4.5594,4.5594,4.5594,4.5594,4.5594,4.5594,4.5594,4.5594,4.5594,4.5594,4.5594,4.5594,4.5594,4.5594,4.5594,4.5594,4.5594,4.5594,4.5594,4.584,4.6432,4.6471,4.6836,4.7658,4.7697,4.7812,4.8082,4.8101,4.8375,4.8952,4.8952,4.926,4.9822,4.9822,4.9976,3.12,3.131,3.147,3.1734,3.1933,3.2247,3.3022,3.3199,3.331,3.3721,3.3807,3.3807,3.3807,3.3807,3.4357,3.6035,3.631,3.7063,3.9291,3.9599,3.9826,4.0426,4.0496,4.0496,0.0,0.0,0.0,4.0496,4.0496,4.0496,4.0496,4.0496,4.0496,4.0496,4.0496,4.0496,4.0496,4.0496,4.0496,4.0496,4.0496,4.0496,4.0496,4.0496,4.0496,4.0496,4.0496,4.0496,4.0496,4.0496,4.0496,4.0496,4.0496,4.0496,4.0496,4.0496,4.0445,4.0368,4.0469,4.0496,4.0554,4.0858,4.1546,4.2427,4.3278,4.4109,4.4878,4.5436,4.5594,4.5594,4.5594,4.5594,4.5594,4.5594,4.5594,4.5594,4.5594,4.5594,4.5594,4.5594,4.5594,4.5594,4.5594,4.5594,4.5594,4.5594,4.5594,4.5594,4.5594,4.5594,4.5594,4.5594,4.5594,4.5594,4.5594,4.5898,4.6297,4.687,4.7178,4.7697,4.8529,4.8567,4.8702,4.9029,4.9029,4.9298,4.9861,4.9861,5.0149,5.0707,5.0707,5.0707,3.12,3.147,3.1771,3.1771,3.2092,3.2558,3.3022,3.3139,3.3258,3.3687,3.3762,3.3787,0.0,0.0,3.4321,3.598,3.6266,3.7056,3.9211,3.9538,3.98,0.0,0.0,0.0,0.0,0.0,0.0,4.0446,4.0485,4.0496,4.0496,4.0496,4.0496,4.0496,4.0496,4.0496,4.0496,4.0496,4.0496,4.0496,4.0496,4.0496,4.0496,4.0496,4.0496,4.0496,4.0496,4.0496,4.0496,4.0496,4.0496,4.0496,4.0496,4.0496,4.0496,4.0496,4.0343,4.0153,4.0406,4.0489,4.0611,4.1488,4.2381,4.3258,4.4066,4.4917,4.5594,4.5594,4.5594,4.5594,4.5594,4.5594,4.5594,4.5594,4.5594,4.5594,4.5594,4.5594,4.5594,4.5594,4.5594,4.5594,4.5594,4.5594,4.5594,4.5594,4.5594,4.5594,4.5594,4.5594,4.5594,4.5594,4.5633,4.5667,4.5667,4.6451,4.6985,4.7024,4.7735,4.8567,4.9433,4.9471,4.9861,5.0688,5.0707,5.0707,5.0707,5.0707,5.0707,5.0707,5.0707,5.0707,3.12,3.1271,3.1351,3.1351,3.1439,3.1638,3.2057,3.2161,3.2374,3.3188,3.3346,3.3433,3.3741,0.0,0.0,3.5151,3.5881,0.0,3.814,3.8851,0.0,3.9789,0.0,3.9832,3.9832,3.9832,0.0,3.9832,4.0248,4.0496,4.0496,4.0496,4.0496,4.0496,4.0496,4.0496,4.0496,4.0496,4.0496,4.0496,4.0496,4.0496,4.0496,4.0496,4.0496,4.0496,4.0496,4.0496,4.0496,4.0496,4.0496,4.0496,4.0496,4.0496,4.0496,4.0496,4.0461,4.0401,4.0477,4.0368,4.0334,4.116,4.2184,4.3258,4.4066,4.4917,4.5594,4.5594,4.5594,4.5594,4.5594,4.5594,4.5594,4.5594,4.5594,4.5594,4.5594,4.5594,4.5594,4.5594,4.5594,4.5594,4.5594,4.5594,4.5594,4.5594,4.5594,4.5594,4.5594,4.5594,4.5594,4.5594,4.6182,4.6567,4.6567,4.7312,4.8062,4.8721,4.8952,4.9452,5.0322,5.0361,5.0476,5.0707,5.0707,5.0707,5.0707,5.0707,5.0707,5.0707,5.0707,5.0707,3.12,3.12,3.12,3.12,3.12,3.1351,3.1968,3.2118,3.2366,3.3288,3.3465,3.3536,3.3755,3.3807,3.4057,0.0,0.0,0.0,3.7706,3.8292,3.8826,0.0,3.9599,0.0,3.9599,3.9599,3.9599,3.9599,4.0053,4.033,4.033,4.0445,4.0496,4.0496,4.0496,4.0496,4.0496,4.0496,4.0496,4.0496,4.0496,4.0496,4.0496,4.0496,4.0496,4.0496,4.0496,4.0496,4.0496,4.0496,4.0496,4.0496,4.0496,4.0496,4.0496,4.0496,4.0437,4.0368,4.0733,4.0739,4.0792,4.1767,4.2545,4.3316,4.4513,4.5205,4.5594,4.5594,4.5594,4.5594,4.5594,4.5594,4.5594,4.5594,4.5594,4.5594,4.5594,4.5594,4.5594,4.5594,4.5594,4.5594,4.5594,4.5594,4.5594,4.5594,4.5594,4.5594,4.5594,4.5594,4.5744,4.6124,4.6601,4.7043,4.7408,4.8197,4.8875,4.9375,4.9764,5.0188,5.0668,5.0707,5.0707,5.0707,5.0707,5.0707,5.0707,5.0707,5.0707,5.0707,5.0707,5.0707,3.12,3.12,3.12,3.12,3.12,3.1408,3.2222,3.2409,3.2673,3.3543,3.3721,3.3734,3.3782,3.3807,3.402,3.4729,0.0,3.5618,3.7436,3.778,3.8244,3.9351,3.9475,3.9475,3.9475,3.9475,3.9475,3.9475,3.9813,4.0042,4.0096,4.0356,4.0496,4.0496,4.0496,4.0496,4.0496,4.0496,4.0496,4.0496,4.0496,4.0496,4.0496,4.0496,4.0496,4.0496,4.0496,4.0496,4.0496,4.0496,4.0573,4.0666,4.0666,4.0743,4.0843,4.0843,4.0701,4.0592,4.1308,4.1538,4.1719,4.2837,4.3237,4.3547,4.5109,4.5594,4.5594,4.5594,4.5594,4.5594,4.5594,4.5594,4.5594,4.5594,4.5594,4.5594,4.5594,4.5594,4.5594,4.5594,4.5594,4.5594,4.5594,4.5594,4.5594,4.5594,4.5594,4.5629,4.5763,4.5763,4.6071,4.6812,4.7101,4.7505,4.8216,4.9067,4.9567,4.9567,5.0284,5.0707,5.0707,5.0707,5.0707,5.0707,5.0707,5.0707,5.0707,5.0707,5.0707,5.0707,5.0707,5.0707,3.12,3.12,3.12,3.12,3.12,3.1339,3.1807,3.1915,0.0,3.3113,3.3302,3.3415,3.3734,3.3807,3.3844,3.399,3.4564,3.5381,3.6432,3.7146,3.7893,0.0,3.8855,3.8855,3.8855,3.8855,0.0,0.0,3.9371,3.9803,4.0086,4.0356,4.0496,4.0496,4.0496,4.0496,4.0496,4.0496,4.0496,4.0496,4.0496,4.0496,4.0496,4.0496,4.0496,4.0496,4.0496,4.0496,4.0496,4.0496,4.0916,4.1562,4.1562,4.2008,4.2643,4.2643,4.2622,4.2608,4.2742,4.28,4.2893,4.3556,4.3905,4.4282,4.5282,4.5594,4.5594,4.5594,4.5594,4.5594,4.5594,4.5594,4.5594,4.5594,4.5594,4.5594,4.5594,4.5594,4.5594,4.5594,4.5594,4.5594,4.5594,4.5594,4.5594,4.5594,4.5594,4.5859,4.6581,4.6678,4.6735,4.6889,4.8144,4.9029,4.9163,4.9976,5.0476,5.0476,5.0611,5.0707,5.0707,5.0707,5.0707,5.0707,5.0707,5.0707,5.0707,5.0707,5.0707,5.0707,5.0707,5.0707,3.12,3.12,3.12,3.12,3.12,3.1361,3.2013,0.0,0.0,3.3339,3.3515,3.3571,3.3762,3.3807,3.3807,3.3807,3.4112,3.4828,3.6119,3.6622,3.7338,3.856,3.8699,3.8699,3.8699,3.8699,3.8699,3.8699,3.9095,3.9493,3.9819,4.0253,4.0496,4.0496,4.0496,4.0496,4.0496,4.0496,4.0496,4.0496,4.0496,4.0496,4.0496,4.0496,4.0496,4.0496,4.0496,4.0762,4.1181,4.1181,4.1681,4.2485,4.2485,4.2739,4.3104,4.3104,4.3104,4.3162,4.3585,4.372,4.3842,4.4546,4.4564,4.4455,4.534,4.5594,4.5594,4.5594,4.5594,4.5594,4.5594,4.5594,4.5594,4.5594,4.5594,4.5594,4.5594,4.5594,4.5594,4.5594,4.5594,4.5594,4.5594,4.5594,4.5594,4.5594,4.5594,4.5917,4.6793,4.7274,4.7697,4.8144,4.8913,4.9591,5.0034,5.0457,5.0707,5.0707,5.0707,5.0707,5.0707,5.0707,5.0707,5.0707,5.0707,5.0707,5.0707,5.0707,5.0707,5.0707,5.1125,5.1318,3.12,3.12,3.12,3.12,3.12,3.1428,3.2299,3.2501,0.0,3.362,3.3807,3.3807,3.3807,3.3807,3.3807,3.3807,3.3807,3.4321,3.5807,3.6174,3.6835,3.8267,3.8597,0.0,3.8699,3.8699,0.0,3.8699,3.8947,3.927,3.9698,4.0096,4.0362,4.0492,4.043,4.0449,4.0496,4.0496,4.0496,4.0496,4.0496,4.0496,4.0496,4.0496,4.0593,4.0781,4.0781,4.1277,4.2081,4.2081,4.2581,4.3355,4.3355,4.347,4.3643,4.3643,4.3643,4.372,4.4359,4.459,4.4686,4.5379,4.5148,4.4705,4.5398,4.5594,4.5594,4.5594,4.5594,4.5594,4.5594,4.5594,4.5594,4.5594,4.5594,4.5594,4.5594,4.5594,4.5594,4.5594,4.5594,4.5594,4.5594,4.5594,4.5594,4.5594,4.5763,4.6182,4.7043,4.787,4.8702,4.9591,4.9687,4.9957,5.063,5.0707,5.0707,5.0707,5.0707,5.0707,5.0707,5.0707,5.0707,5.0707,5.0707,5.0707,5.0707,5.0861,5.0957,5.0976,5.1793,5.2178,3.12,3.12,3.12,3.12,3.12,3.1428,3.2299,0.0,3.2753,3.362,3.3807,3.3807,3.3807,3.3807,3.3807,3.3807,3.3807,3.4112,3.5004,3.58,3.6622,3.7511,0.0,0.0,3.8699,3.8699,3.8699,3.8699,3.8947,3.9377,4.0017,3.9819,3.9925,4.0485,4.0254,4.0245,4.0492,4.0496,4.0496,4.0496,4.0496,4.0496,4.0496,4.0496,4.0935,4.1677,4.1677,4.2177,4.2989,4.2989,4.3451,4.4182,4.4182,4.4667,4.5359,4.5359,4.5359,4.5379,4.5455,4.5475,4.5494,4.5575,4.5556,4.5498,4.5575,4.5594,4.5594,4.5594,4.5594,4.5594,4.5594,4.5594,4.5594,4.5594,4.5594,4.5594,4.5594,4.5594,4.5594,4.5594,4.5594,4.5594,4.5594,4.5594,4.5594,4.5594,4.6278,4.7062,4.7889,4.8759,4.961,5.0495,5.0572,5.0611,5.0688,5.0707,5.0707,5.0707,5.0707,5.0707,5.0707,5.0707,5.0707,5.0707,5.0707,5.0707,5.0707,5.1428,5.1793,5.1813,5.2678,5.3082,3.12,3.12,3.12,3.12,3.12,3.1428,3.2299,0.0,3.2753,3.362,3.3807,3.3807,3.3807,3.3807,3.3807,3.3807,3.3807,3.4075,3.4894,3.5298,3.6002,3.7345,3.7779,3.8182,0.0,0.0,3.8699,3.8699,3.8803,3.9052,3.9481,3.9564,3.9712,3.994,4.0052,4.0148,4.0269,4.041,4.0496,4.0496,4.0496,4.0496,4.0516,4.1046,4.1466,4.1831,4.235,4.3047,4.3816,4.3816,4.4321,4.5071,4.5071,4.5282,4.5594,4.5594,4.5594,4.5594,4.5594,4.5594,4.5594,4.5594,4.5594,4.5594,4.5594,4.5594,4.5594,4.5594,4.5594,4.5594,4.5594,4.5594,4.5594,4.5594,4.5594,4.5594,4.5594,4.5594,4.5594,4.5594,4.5594,4.5594,4.5594,4.5594,4.5594,4.5594,4.6336,4.7197,4.8005,4.8856,4.9726,5.0611,5.0707,5.0707,5.0707,5.0707,5.0707,5.0707,5.0707,5.0707,5.0707,5.0707,5.0707,5.0707,5.0707,5.0938,5.1414,5.1736,5.2178,5.2697,5.3587,5.3972,3.1151,3.12,3.12,3.12,3.12,3.1428,0.0,0.0,3.2753,3.362,3.3807,3.3807,3.3807,3.3807,3.3807,3.3807,3.3807,3.4009,3.4564,3.4851,3.5536,3.6971,0.0,3.7823,3.8608,3.8699,3.8699,3.8699,3.8699,3.8773,3.8964,3.9216,3.942,3.9593,3.9824,4.0002,4.0096,4.0364,4.0496,4.0496,4.0496,4.065,4.0916,4.1523,4.2062,4.2562,4.3181,4.3912,4.4686,4.4686,4.5051,4.5594,4.5594,4.5594,4.5594,4.5594,4.5594,4.5594,4.5594,4.5594,4.5594,4.5594,4.5594,4.5594,4.5594,4.5594,4.5594,4.5594,4.5594,4.5594,4.5594,4.5594,4.5594,4.5594,4.5594,4.5594,4.5594,4.5594,4.5594,4.5594,4.5594,4.5686,4.5936,4.5975,4.6071,4.6302,4.7086,4.7832,4.8413,4.924,5.0014,5.063,5.0707,5.0707,5.0707,5.0707,5.0707,5.0707,5.0707,5.0707,5.0707,5.0707,5.0803,5.1048,5.1048,5.1452,5.2294,5.2544,5.2986,5.3606,5.4453,5.4857,3.1035,3.12,3.12,3.12,3.12,3.1428,0.0,3.2501,3.2753,3.362,3.3807,3.3807,3.3807,3.3807,3.3807,3.3807,3.3807,3.3807,3.3807,3.4491,3.5334,0.0,3.7008,3.7823,3.8608,3.8699,3.8699,3.8699,3.8699,3.8707,3.8707,3.8715,3.8984,3.9582,3.9605,3.977,4.0096,4.0364,4.0496,4.0496,4.0496,4.0954,4.1793,4.1793,4.2716,4.4278,4.4278,4.4782,4.5594,4.5594,4.5594,4.5594,4.5594,4.5594,4.5594,4.5594,4.5594,4.5594,4.5594,4.5594,4.5594,4.5594,4.5594,4.5594,4.5594,4.5594,4.5594,4.5594,4.5594,4.5594,4.5594,4.5594,4.5594,4.5594,4.5594,4.5594,4.5594,4.5594,4.5594,4.5594,4.5594,4.5879,4.6735,4.6889,4.7158,4.7947,4.8817,4.9375,4.9394,5.0149,5.0688,5.0707,5.0707,5.0707,5.0707,5.0707,5.0707,5.0707,5.0707,5.0707,5.0707,5.0707,5.1068,5.1865,5.1885,5.2313,5.3197,5.4049,5.4472,5.4511,5.5304,5.5689,3.1151,3.12,3.12,3.12,3.1401,3.177,3.2367,3.2745,3.3128,3.3694,3.3807,3.3807,3.3807,3.3807,3.3807,3.3807,3.3807,3.3807,3.3807,0.0,0.0,3.6193,3.7496,3.8414,0.0,3.8699,3.8699,3.8699,3.8699,3.8699,3.8699,3.8699,3.8784,3.8977,3.9389,3.9645,3.9759,4.0248,4.0496,4.0496,4.0496,4.0954,4.1812,4.2427,4.3278,4.4335,4.4936,4.534,4.5594,4.5594,4.5594,4.5594,4.5594,4.5594,4.5594,4.5594,4.5594,4.5594,4.5594,4.5594,4.5594,4.5594,4.5594,4.5594,4.5594,4.5594,4.5594,4.5594,4.5594,4.5594,4.5594,4.5594,4.5594,4.5594,4.6071,4.649,4.649,4.6913,4.7317,4.7317,4.7317,4.7394,4.7678,4.7716,4.7812,4.8062,4.8836,4.9394,4.9394,5.0168,5.0707,5.0707,5.0707,5.0707,5.0707,5.0707,5.0707,5.0707,5.0707,5.0707,5.0707,5.1221,5.164,5.1904,5.2486,5.3217,5.4087,5.4376,5.478,5.5324,5.5574,5.6016,3.1141,3.12,3.12,3.12,3.1507,3.1915,3.2383,3.2856,3.331,3.3721,3.3807,3.3807,3.3807,3.3807,3.3807,3.3807,3.3807,3.3807,3.3807,0.0,0.0,3.6604,3.79,0.0,0.0,3.8699,3.8699,3.8699,3.8699,3.8699,3.8699,3.8699,3.8699,3.8699,3.9294,3.9599,3.9599,4.0193,4.0496,4.0496,4.0839,4.145,4.2312,4.3162,4.4008,4.4821,4.5359,4.5594,0.0,4.5594,4.5594,4.5594,4.5594,4.5594,4.5594,4.5594,4.5594,4.5594,4.5594,4.5594,4.5594,4.5594,4.5594,4.5594,4.5594,4.5594,4.5594,4.5594,4.5594,4.5686,4.6013,4.609,4.6167,4.6475,4.6951,4.7351,4.7351,4.7755,4.8101,4.8101,4.8101,4.8197,4.8529,4.8586,4.8702,4.9029,4.9529,4.9899,4.9899,5.0361,5.0707,5.0707,5.0707,5.0707,5.0707,5.0707,5.0707,5.0707,5.0976,5.1144,5.1144,5.1947,5.2544,5.287,5.3409,5.4107,5.4953,5.4953,5.5208,5.5708,5.6035,5.6478,0.0,3.12,3.12,3.12,3.1536,3.196,3.2401,3.2897,0.0,3.3721,3.3807,3.3807,3.3807,3.3807,3.3807,3.3807,3.3807,3.3825,3.388,3.4619,0.0,0.0,3.8256,3.8699,3.8699,3.8699,3.8699,3.8699,3.8699,3.8699,3.8699,3.8699,3.8699,3.8699,3.9249,3.9582,3.9599,4.0193,4.0535,4.0593,4.1412,4.2293,4.3201,4.3951,4.4782,4.5594,4.5594,4.5594,4.5594,4.5594,4.5594,4.5594,4.5594,4.5594,4.5594,4.5594,4.5594,4.5594,4.5594,4.5594,4.5594,4.5594,4.5629,4.5686,4.5686,4.5686,4.5686,4.5686,4.5725,4.5956,4.6774,4.6985,4.7178,4.7928,4.8139,4.8197,4.8197,4.8235,4.8274,4.8274,4.8274,4.8548,4.9356,4.949,4.9764,5.0572,5.0707,5.0707,5.0707,5.0707,5.0707,5.0707,5.0707,5.0726,5.0784,5.0784,5.0784,5.0784,5.1543,5.1981,5.1981,5.2832,5.3664,5.4472,5.4549,5.4953,5.5708,5.5708,5.5728,5.5805,5.6613,5.706,3.0908,0.0,3.12,3.12,3.1769,3.2349,0.0,3.3087,3.3687,0.0,0.0,3.3807,3.3807,3.3807,3.3807,3.3807,3.3807,3.4002,3.4637,3.5973,0.0,3.8303,3.8579,3.8699,3.8699,3.8699,3.8699,3.8699,3.8699,3.8699,3.8699,3.8699,3.8699,3.8699,3.9034,3.9333,3.9599,4.0193,4.0839,4.1504,4.1696,4.2581,4.4028,4.4201,4.4782,4.5594,4.5594,4.5594,4.5594,4.5594,4.5594,4.5594,4.5594,4.5594,4.5594,4.5594,4.5594,4.5594,4.5594,4.5594,4.5594,4.5594,4.6052,4.6581,4.6581,4.6581,4.6581,4.6581,4.7048,4.7567,4.7755,4.7812,4.787,4.8062,4.8606,4.9086,4.9086,4.963,5.0091,5.0091,5.0091,5.0149,5.0361,5.038,5.0457,5.0668,5.0707,5.0707,5.0707,5.0707,5.0707,5.0707,5.0707,5.0957,5.1563,5.162,5.162,5.162,5.2428,5.289,5.289,5.3722,5.428,5.4491,5.5107,5.5516,5.5708,5.5708,5.6035,5.6689,5.6907,5.769,3.0938,3.12,3.12,3.12,3.1686,3.217,3.217,3.2887,0.0,0.0,0.0,3.3807,3.3807,3.3807,3.3807,3.3807,3.3807,3.4229,0.0,0.0,3.7804,3.8597,3.8699,3.8699,3.8699,3.8699,3.8699,3.8699,3.8699,3.8699,3.8699,3.8699,3.8699,3.8699,3.8961,3.9179,3.9364,3.9999,4.0743,4.1586,4.2132,4.3066,4.4316,4.4705,4.5148,4.5594,4.5594,4.5594,4.5594,4.5594,4.5594,4.5594,4.5594,4.5594,4.5594,4.5594,4.5594,4.5594,4.5594,4.5859,4.6201,4.6201,4.6778,4.7447,4.7447,4.7735,4.7966,4.7562,4.7755,4.8197,4.8586,4.8702,4.8798,4.9202,4.9649,4.9995,4.9995,5.0361,5.0707,5.0707,5.0707,5.0707,5.0707,5.0707,5.0707,5.0707,5.0707,5.0707,5.0707,5.0707,5.0842,5.1202,5.1241,5.1587,5.2428,5.2851,5.2928,5.2524,5.3313,5.3799,5.3799,5.4607,5.5049,5.5049,5.5478,5.5901,5.6305,5.6305,5.6747,5.7613,5.7978,5.8627,3.1035,3.12,3.12,3.12,3.1507,3.1825,3.188,0.0,0.0,0.0,0.0,3.3775,3.3721,3.3755,3.3787,3.3721,3.3975,0.0,3.6273,3.7173,3.7944,3.8608,3.8699,3.8699,3.8699,3.8699,3.8699,3.8699,3.8699,3.8699,3.8699,3.8699,3.8699,3.8699,3.8923,3.9043,3.9043,3.983,4.0633,4.1507,4.2654,4.3667,4.4513,4.5263,4.5594,4.5594,4.5594,0.0,4.5594,4.5594,4.5594,4.5594,4.5594,4.5594,4.5594,4.5594,4.5594,4.5614,4.5744,4.6355,4.7081,4.7081,4.762,4.8293,4.8293,4.8913,4.9433,4.8702,4.8509,4.8663,4.9413,4.961,4.9784,5.0515,5.0707,5.0707,5.0707,5.0707,5.0707,5.0707,5.0707,5.0707,5.0707,5.0707,5.0707,5.0707,5.0707,5.0707,5.0707,5.0803,5.1144,5.1832,5.2019,5.2447,5.3313,5.4087,5.4241,5.3626,5.426,5.4684,5.4684,5.5343,5.5708,5.5708,5.5824,5.6266,5.7003,5.7132,5.7632,5.8511,5.9184,5.9569,3.1035,3.12,3.12,3.12,3.1507,3.1897,3.2307,0.0,0.0,0.0,0.0,0.0,3.3346,3.3564,3.3694,0.0,0.0,3.6237,0.0,0.0,3.856,3.8689,3.8699,3.8699,3.8699,3.8699,3.8699,3.8699,3.8699,3.8699,3.8699,3.8699,3.8699,3.8699,3.875,3.8762,3.8762,4.0057,4.1262,4.2414,4.3288,4.4283,4.5398,4.5537,4.5594,4.5594,0.0,4.5594,4.5594,4.5594,4.5594,4.5594,4.5594,4.5594,4.5594,4.5594,4.5594,4.5706,4.6432,4.7235,4.7928,4.7928,4.8509,4.9202,4.9202,4.9803,5.0476,5.0341,5.0303,5.0322,5.0476,5.0495,5.0534,5.0668,5.0707,5.0707,5.0707,5.0707,5.0707,5.0707,5.0707,5.0707,5.0707,5.0707,5.0707,5.0707,5.0707,5.0707,5.0707,5.1298,5.1755,5.1885,5.2563,5.3351,5.4222,5.4414,5.4722,5.528,5.5439,5.5516,5.5516,5.5631,5.5708,5.5708,5.642,5.6868,5.7003,5.7742,5.8531,5.9319,5.9435,5.9896,3.1131,3.12,3.12,3.12,3.1332,3.1536,3.1741,0.0,0.0,0.0,0.0,0.0,0.0,0.0,3.3881,3.4134,0.0,3.6585,3.7382,3.8193,3.8699,3.8699,3.8699,3.8699,3.8699,3.8699,3.8699,3.8699,3.8699,3.8699,3.8699,3.8699,3.8699,3.8699,3.8699,3.8909,3.9331,4.0419,4.1336,4.2064,4.3054,4.4165,4.5327,4.5327,4.5429,4.5594,0.0,4.5594,4.5594,4.5594,4.5594,4.5594,4.5594,4.5594,4.5667,4.6124,4.6297,4.6413,4.7255,4.8101,4.8798,4.8798,4.9394,5.0091,5.0091,5.038,5.0707,5.0707,5.0707,5.0707,5.0707,5.0707,5.0707,5.0707,5.0707,5.0707,5.0707,5.0707,5.0707,5.0707,5.0707,5.0707,5.0707,5.0707,5.0707,5.0707,5.1068,5.1356,5.1356,5.2082,5.2774,5.3255,5.3664,5.4241,5.5068,5.5151,5.5304,5.5689,5.5708,5.5708,5.5708,5.5708,5.592,5.6382,5.6805,5.744,5.8344,5.8742,5.9377,6.0204,6.0204,6.0416,3.12,3.12,3.12,3.12,0.0,0.0,0.0,0.0,0.0,0.0,0.0,0.0,0.0,3.3539,0.0,3.5155,3.6028,3.6861,3.7669,3.8303,3.8699,3.8699,3.8699,3.8699,3.8699,3.8699,3.8699,3.8699,3.8699,3.8699,3.8699,3.8699,3.8699,3.8699,3.8699,3.9093,3.989,4.07,4.1364,4.1891,4.2965,4.4046,4.5096,4.5096,4.5273,4.5594,4.5594,4.5594,4.5594,4.5594,4.5594,4.5594,4.5594,4.5725,4.5994,4.6639,4.7158,4.7562,4.8197,4.8971,4.9707,4.9707,5.0168,5.0707,5.0707,5.0707,5.0707,5.0707,5.0707,5.0707,5.0707,5.0707,5.0707,5.0707,5.0707,5.0707,5.0707,5.0707,5.0707,5.0707,5.0707,5.0707,5.0707,5.0707,5.0765,5.0957,5.1505,5.1962,5.2178,5.2967,5.376,5.4434,5.4664,5.503,5.5651,5.5708,5.5708,5.5708,5.5708,5.5708,5.5708,5.5901,5.6324,5.6983,5.7382,5.8228,5.9492,5.9704,6.0146,6.0806,6.0806,6.0806,3.12,3.12,3.12,3.12,3.12,0.0,3.1669,3.178,0.0,3.2409,0.0,0.0,0.0,3.3528,3.4758,3.5988,3.6898,3.7687,3.8505,3.867,3.8699,3.8699,3.8699,3.8699,3.8699,3.8699,3.8699,3.8699,3.8699,3.8699,3.8699,3.8699,3.8699,3.8699,3.8699,3.9093,3.989,4.07,4.1649,4.2723,4.3543,4.4346,4.5096,4.5096,4.5273,4.5594,4.5594,4.5594,4.5594,4.5594,4.5594,4.5594,4.5594,4.6086,4.6812,4.6889,4.787,4.9221,4.9279,4.988,5.0611,5.0611,5.0649,5.0707,5.0707,5.0707,5.0707,5.0707,5.0707,5.0707,5.0707,5.0707,5.0707,5.0707,5.0707,5.0707,5.0707,5.0707,5.0707,5.0707,5.0707,5.0707,5.0707,5.0707,5.0957,5.1697,5.1865,5.2197,5.3005,5.3876,5.4434,5.4491,5.517,5.5651,5.5708,5.5708,5.5708,5.5708,5.5708,5.5708,5.5708,5.6478,5.6945,5.7003,5.8531,5.9377,5.9492,6.03,6.0748,6.0806,6.0806,6.0806,3.12,3.12,3.12,3.12,3.12,0.0,0.0,3.143,3.1554,3.1986,3.2057,0.0,0.0,0.0,3.454,3.6268,3.7074,3.7779,3.8597,3.8699,3.8699,3.8699,3.8699,3.8699,3.8699,3.8699,3.8699,3.8699,3.8699,3.8699,3.8699,3.8699,3.8699,3.8699,3.8699,3.9323,4.0626,4.0956,4.1818,4.3232,4.3537,4.4087,4.48,4.48,4.5091,4.5594,4.5594,4.5594,4.5594,4.5594,4.5594,4.5648,4.6201,4.6601,4.7024,4.8067,4.8856,4.9471,5.0014,5.0418,5.0707,5.0707,5.0707,5.0707,5.0707,5.0707,5.0707,5.0707,5.0707,5.0707,5.0707,5.0707,5.0707,5.0707,5.0707,5.0707,5.0707,5.0707,5.0707,5.0707,5.0707,5.0707,5.0707,5.1106,5.1543,5.1846,5.2813,5.3645,5.3972,5.4722,5.5247,5.5247,5.5516,5.5708,5.5708,5.5708,5.5939,5.6478,5.6516,5.6516,5.6516,5.7343,5.803,5.8531,5.9184,5.9762,6.03,6.0646,6.0806,6.0806,6.0806,6.0806,3.12,3.12,3.12,3.12,0.0,0.0,3.12,3.12,3.1281,3.1547,3.1914,3.2481,3.3458,0.0,0.0,0.0,3.7366,3.8009,3.84,3.8585,3.8699,3.8699,3.8699,3.8699,3.8699,3.8699,3.8699,3.8699,3.8699,3.8699,3.8699,3.8699,3.8699,3.8699,3.8946,3.9727,4.1085,4.136,4.2158,4.3506,4.3506,4.3902,4.4593,4.4593,4.4971,4.5594,4.5594,4.5594,4.5594,4.5594,4.5594,4.5686,4.6567,4.7062,4.7447,4.8875,4.9567,4.9899,5.0495,5.0707,5.0707,5.0707,5.0707,5.0707,5.0707,5.0707,5.0707,5.0707,5.0707,5.0707,5.0707,5.0707,5.0707,5.0707,5.0707,5.0707,5.0707,5.0707,5.0707,5.0707,5.0919,5.1087,5.1087,5.1755,5.2409,5.2678,5.3741,5.4587,5.4857,5.5362,5.5708,5.5708,5.5708,5.5805,5.6093,5.6112,5.6478,5.7363,5.7651,5.769,5.742,5.8223,5.8929,5.9492,5.9762,6.0204,6.0806,6.0806,6.0806,6.0806,6.0806,6.0806,3.12,3.12,3.12,3.12,0.0,0.0,3.12,3.12,3.12,3.12,3.217,3.3134,3.3608,3.5333,0.0,3.6697,3.7814,3.8504,3.798,3.8366,3.8699,3.8699,3.8699,3.8699,3.8699,3.8699,3.8699,3.8699,3.8699,3.8699,3.8699,3.8699,3.8699,3.8699,3.9478,4.0286,4.1095,4.1892,4.269,4.3506,4.3506,4.3876,4.4586,4.4612,4.4966,4.5609,4.559,4.5594,4.5594,4.5594,4.5594,4.5686,4.6567,4.7408,4.8216,4.9086,4.9957,5.0707,5.0707,5.0707,5.0707,5.0707,5.0707,5.0707,5.0707,5.0707,5.0707,5.0707,5.0707,5.0707,5.0707,5.0707,5.0707,5.0707,5.0707,5.0707,5.0707,5.0707,5.0707,5.0707,5.1356,5.1904,5.1904,5.264,5.351,5.4376,5.4511,5.4799,5.5593,5.5708,5.5708,5.5708,5.5708,5.6055,5.6926,5.7003,5.7382,5.8256,5.9069,5.9146,5.8333,5.9088,5.9511,5.9511,6.0358,6.0806,6.0806,6.0806,6.0806,6.0806,6.0806,6.0806,3.12,3.12,3.12,3.12,0.0,0.0,0.0,3.12,0.0,0.0,3.1905,3.27,3.3372,3.4714,0.0,3.6914,3.7655,3.8208,3.8441,3.8611,3.8699,3.8699,3.8699,3.8699,3.8699,3.8699,3.8699,3.8699,3.8699,3.8699,3.8699,3.8699,3.8699,3.8699,3.9478,4.0286,4.1095,4.1892,4.269,4.3506,4.3506,4.3734,4.4183,4.4474,4.4843,4.5253,4.5499,4.5594,4.5594,4.5594,4.5594,4.5744,4.7182,4.7889,4.8274,4.9764,5.0476,5.0707,5.0707,5.0707,5.0707,5.0707,5.0707,5.0707,5.0707,5.0707,5.0707,5.0707,5.0707,5.0707,5.0707,5.0707,5.0707,5.0707,5.0707,5.0707,5.0707,5.0707,5.0861,5.1428,5.1736,5.2096,5.2717,5.3549,5.4203,5.4453,5.4972,5.5439,5.567,5.5708,5.5708,5.5708,5.6247,5.6709,5.6983,5.7555,5.8261,5.9088,5.9377,5.9396,5.9146,5.9954,6.0416,6.0416,6.0671,6.0806,6.0806,6.0806,6.0806,6.0806,6.0806,6.0806,3.12,3.12,0.0,3.12,3.12,3.12,3.12,0.0,0.0,0.0,3.2215,3.3032,3.398,3.5018,3.6053,3.7036,3.7596,3.8005,3.8342,3.8562,3.8699,3.8699,3.8699,3.8699,3.8699,3.8699,3.8699,3.8699,3.8699,3.8699,3.8699,3.8699,3.8699,3.8699,3.979,4.0608,4.1095,4.2213,4.3029,4.3506,4.3506,4.3614,4.382,4.4194,4.4548,4.4919,4.5253,4.5485,4.5594,4.5594,4.5802,4.624,4.7586,4.8312,4.8798,5.0188,5.0707,5.0707,5.0707,5.0707,5.0707,5.0707,5.0707,5.0707,5.0707,5.0707,5.0707,5.0707,5.0707,5.0707,5.0707,5.0707,5.0707,5.0707,5.0707,5.0784,5.1106,5.1183,5.1414,5.2255,5.2697,5.3101,5.3626,5.4414,5.4972,5.4972,5.5401,5.5708,5.5708,5.5708,5.5824,5.6189,5.6689,5.7267,5.794,5.8473,5.9127,5.9954,6.0012,6.0012,6.0012,6.0512,6.0806,6.0806,6.0806,6.0806,6.0806,6.0806,6.0806,6.0806,6.0806,6.0806,3.12,3.12,3.12,3.12,3.12,0.0,3.12,3.1251,3.1488,3.2158,0.0,3.3767,3.4993,3.5866,3.657,3.7057,3.756,3.7903,3.7842,3.8324,3.8684,3.8635,3.8658,3.8699,3.8699,3.8699,3.8699,3.8699,3.8699,3.8699,3.8699,3.8699,3.8699,3.8699,4.0259,4.1095,4.1095,4.269,4.3506,4.3506,4.3506,4.3506,4.3505,4.3841,4.4211,4.4612,4.4948,4.5263,4.5564,4.5586,4.6105,4.6985,4.7793,4.8625,4.9514,5.038,5.0707,5.0707,5.0707,5.0707,5.0707,5.0707,5.0707,5.0707,5.0707,5.0707,5.0707,5.0707,5.0707,5.0707,5.0707,5.0745,5.0803,5.0803,5.0803,5.1015,5.1736,5.1962,5.2274,5.314,5.3953,5.4511,5.4607,5.5228,5.5708,5.5708,5.5708,5.5708,5.5708,5.5766,5.6112,5.6926,5.7132,5.7844,5.9377,5.9569,5.9954,6.0748,6.0806,6.0806,6.0806,6.0806,6.0806,6.0806,6.0806,6.0806,6.0806,6.0806,6.0806,6.0806,6.0806,6.0806,3.12,3.12,0.0,3.12,3.12,3.12,3.12,3.164,3.2107,3.2276,3.2892,3.3658,3.4508,3.5624,3.6437,3.6542,3.7314,3.7772,3.7396,3.8135,3.8546,3.8115,3.843,3.8699,3.8699,3.8699,3.8699,3.8699,3.8699,3.8699,3.8699,3.8699,3.8699,3.8699,4.0259,4.1095,4.1095,4.269,4.3506,4.3506,4.3506,4.3506,4.3505,4.3841,4.4211,4.4612,4.4948,4.5134,4.5227,4.5495,4.6105,4.6985,4.7793,4.8625,4.9514,5.038,5.0707,5.0707,5.0707,5.0707,5.0707,5.0707,5.0707,5.0707,5.0707,5.0707,5.0707,5.0707,5.0707,5.0707,5.0707,5.1164,5.164,5.164,5.164,5.1697,5.1865,5.2447,5.3178,5.4049,5.4376,5.4703,5.5324,5.5593,5.5708,5.5708,5.5708,5.5708,5.5708,5.6305,5.6786,5.6983,5.819,5.9108,5.9473,6.0127,6.0589,6.0787,6.0806,6.0806,6.0806,6.0806,6.0806,6.0806,6.0806,6.0806,6.0806,6.0806,6.0806,6.0806,6.0806,6.0806,3.1131,3.12,0.0,3.12,0.0,3.12,3.12,3.1759,3.2395,3.2757,3.3406,3.415,3.4884,3.5577,3.6097,3.6354,3.6845,3.7201,3.7209,3.7834,3.8208,3.7919,3.8374,3.8699,3.8699,3.8699,3.8699,3.8699,3.8699,3.8699,3.8699,3.8699,3.8699,3.8699,4.0259,4.1095,4.1095,4.269,4.3506,4.3506,4.3506,4.3506,4.3515,4.3669,4.3966,4.4318,4.4502,4.4762,4.5107,4.5297,4.6191,4.7524,4.7947,4.8894,5.0072,5.0534,5.0707,5.0707,5.0707,5.0707,5.0707,5.0707,5.0707,5.0707,5.0707,5.0707,5.0707,5.0707,5.0707,5.0784,5.1164,5.1582,5.2,5.2428,5.2524,5.264,5.3044,5.351,5.4068,5.4914,5.5068,5.5208,5.5631,5.5708,5.5708,5.5708,5.5708,5.5843,5.6266,5.6709,5.7305,5.8113,5.8973,5.9665,6.0089,6.0531,6.0806,6.0806,6.0806,6.0806,6.0806,6.0806,6.0806,6.0806,6.0806,6.0806,6.0806,6.0806,6.0806,6.0806,6.0806,6.0806,3.1055,3.12,3.12,3.12,3.12,0.0,3.1369,3.1962,3.2689,3.344,3.4083,3.4726,3.5459,3.5689,3.5843,3.6203,3.6416,3.6654,3.7001,3.7551,3.7893,3.7893,3.8374,3.8699,3.8699,3.8699,3.865,3.857,3.8643,3.865,3.8562,3.8643,3.8699,3.8699,4.0131,4.0956,4.1095,4.2561,4.3359,4.3506,4.3506,4.3506,4.3506,4.3506,4.3654,4.3927,4.3978,4.4359,4.4931,4.5052,4.6253,4.8025,4.8087,4.9163,5.0707,5.0707,5.0707,5.0707,5.0707,5.0707,5.0707,5.0707,5.0707,5.0707,5.0707,5.0707,5.0707,5.0707,5.0803,5.1048,5.1736,5.212,5.2524,5.3255,5.353,5.3799,5.4376,5.4607,5.4895,5.5574,5.5708,5.5708,5.5708,5.5708,5.5708,5.5708,5.5824,5.6189,5.6907,5.7247,5.7959,5.9358,5.9627,6.0012,6.0748,6.0806,6.0806,6.0806,6.0806,6.0806,6.0806,6.0806,6.0806,6.0806,6.0806,6.0806,6.0806,6.0806,6.0806,6.0806,6.0806,6.0806,3.1181,0.0,3.12,0.0,3.12,3.1369,0.0,0.0,3.3457,0.0,3.4432,3.4726,3.5459,3.5985,3.6161,3.5772,3.6491,3.696,3.657,3.7305,3.7893,3.7893,3.8374,3.8699,3.8699,3.8699,3.8515,3.8048,3.8441,3.8507,3.8022,3.8449,3.8699,3.8699,3.957,4.0396,4.1095,4.2002,4.28,4.3506,4.3506,4.3506,4.3506,4.3506,4.3522,4.358,4.3873,4.405,4.4204,4.4842,4.6102,4.7707,4.7986,4.9163,5.0707,5.0707,5.0707,5.0707,5.0707,5.0707,5.0707,5.0707,5.0707,5.0707,5.0707,5.0707,5.0707,5.0707,5.1202,5.1755,5.1865,5.3024,5.4184,5.4299,5.4857,5.5203,5.4626,5.5054,5.5574,5.5689,5.5708,5.5708,5.5708,5.5708,5.5708,5.5708,5.6343,5.6863,5.6983,5.8267,5.9242,5.9473,6.0185,6.0671,6.0787,6.0806,6.0806,6.0806,6.0806,6.0806,6.0806,6.0806,6.0806,6.0806,6.0806,6.0806,6.0806,6.0806,6.0806,6.0806,6.0806,6.0806,3.1015,3.12,3.12,0.0,3.12,3.1386,3.2141,3.2875,3.3609,3.4336,3.4827,3.5222,3.5532,3.5788,3.5865,3.5644,3.6,3.6333,3.6385,3.7039,3.7605,3.7868,3.8107,3.8259,3.8259,3.7998,3.7878,3.7911,3.8115,3.8283,3.8332,3.857,3.8699,3.8699,3.9478,4.0286,4.1095,4.1892,4.269,4.3506,4.3506,4.3506,4.3506,4.3506,4.3506,4.3515,4.3654,4.3836,4.4072,4.5078,4.6311,4.7676,4.8514,4.961,5.0707,5.0707,5.0707,5.0707,5.0707,5.0707,5.0707,5.0707,5.0707,5.0707,5.0707,5.0707,5.0784,5.1241,5.162,5.2115,5.3101,5.3933,5.4607,5.5074,5.5439,5.5593,5.5247,5.5458,5.5708,5.5708,5.5708,5.5708,5.5708,5.5708,5.5862,5.6343,5.6747,5.7343,5.828,5.9031,5.9685,6.0185,6.0575,6.0806,6.0806,6.0806,6.0806,6.0806,6.0806,6.0806,6.0806,6.0806,6.0806,6.0806,6.0806,6.0806,6.0806,6.0806,6.0806,6.0806,6.0806,6.0806,3.0908,0.0,3.12,3.12,3.1336,3.1674,0.0,0.0,3.3897,3.4624,3.5222,3.56,3.56,3.56,3.56,3.56,3.56,3.5832,3.6519,3.695,3.7369,3.7842,3.7893,3.785,3.7729,3.7406,3.7341,3.7694,3.7833,3.8074,3.8473,3.8627,3.8699,3.8699,3.9276,4.0084,4.1095,4.2103,4.2919,4.3506,4.3506,4.3506,4.3506,4.3506,4.3506,4.3506,4.3506,4.3637,4.3975,4.5277,4.6462,4.7605,4.8892,4.9938,5.0707,5.0707,5.0707,5.0707,5.0707,5.0707,5.0707,5.0707,5.0707,5.0707,5.0707,5.0707,5.0861,5.1678,5.2058,5.2582,5.4107,5.4645,5.4953,5.5555,5.5708,5.5708,5.5708,5.5708,5.5708,5.5708,5.5708,5.5708,5.5708,5.5882,5.6247,5.6907,5.7363,5.8094,5.9338,5.9685,6.0089,6.0729,6.0806,6.0806,6.0806,6.0806,6.0806,6.0806,6.0806,6.0806,6.0806,6.0806,6.0806,6.0806,6.0806,6.0806,6.0806,6.0806,6.0806,6.0806,6.0806,6.0806,0.0,3.12,0.0,3.12,3.1725,3.2446,0.0,0.0,3.4641,3.5391,3.5566,3.56,3.56,3.56,3.56,3.56,3.56,3.5957,3.701,3.7173,3.7369,3.7842,3.7893,3.7729,3.7276,3.7201,3.7219,3.7229,3.7649,3.7902,3.7946,3.8415,3.8699,3.8699,3.8744,3.9507,4.1077,4.2653,4.3451,4.3506,4.3506,4.3506,4.3506,4.3506,4.3506,4.3506,4.3506,4.3505,4.3635,4.5171,4.6318,4.7275,4.8801,4.9938,5.0707,5.0707,5.0707,5.0707,5.0707,5.0707,5.0707,5.0707,5.0707,5.0707,5.0707,5.0707,5.0861,5.1678,5.2505,5.3332,5.426,5.5074,5.5651,5.5689,5.5708,5.5708,5.5708,5.5708,5.5708,5.5708,5.5708,5.5708,5.5708,5.6382,5.6945,5.6983,5.8344,5.9396,5.9492,6.0223,6.0748,6.0806,6.0806,6.0806,6.0806,6.0806,6.0806,6.0806,6.0806,6.0806,6.0806,6.0806,6.0806,6.0806,6.0806,6.0806,6.0806,6.0806,6.0806,6.0806,6.0806,6.0806,0.0,0.0,0.0,3.12,3.1742,3.2496,3.3237,3.3964,3.4709,3.5459,3.56,3.56,3.56,3.56,3.56,3.56,3.56,3.5968,3.7039,3.6911,3.6991,3.7807,3.7333,3.6874,3.6704,3.6385,3.646,3.7152,3.735,3.7729,3.8374,3.8604,3.8699,3.8699,3.8699,3.947,4.1077,4.2176,4.2992,4.3506,4.3506,4.3506,4.3506,4.3506,4.3506,4.3506,4.3506,4.3506,4.3657,4.5767,4.6816,4.7312,4.9414,5.0438,5.0707,5.0707,5.0707,5.0707,5.0707,5.0707,5.0707,5.0707,5.0707,5.0707,5.0707,5.1048,5.164,5.2505,5.3351,5.4222,5.5049,5.5478,5.5708,5.5708,5.5708,5.5708,5.5708,5.5708,5.5708,5.5708,5.5708,5.5708,5.5708,5.642,5.719,5.7742,5.8781,5.9704,6.0262,6.0614,6.0806,6.0806,6.0806,6.0806,6.0806,6.0806,6.0806,6.0806,6.0806,6.0806,6.0806,6.0806,6.0806,6.0806,6.0806,6.0806,6.0806,6.0806,6.0806,6.0806,6.0806,6.0806,3.073,0.0,0.0,0.0,3.1742,3.2496,3.3237,3.3964,3.4709,3.5459,3.56,3.56,3.56,3.56,3.56,3.56,3.575,3.6118,3.6833,3.6783,3.6845,3.7333,3.6805,3.6322,3.615,3.5816,3.6037,3.7124,3.7209,3.7632,3.8643,3.8699,3.8699,3.8699,3.8964,3.9753,4.1085,4.1892,4.269,4.3506,4.3506,4.3506,4.3506,4.3506,4.3506,4.3506,4.3506,4.3506,4.3685,4.5963,4.6982,4.7336,4.9616,5.057,5.0707,5.0707,5.0707,5.0707,5.0707,5.0707,5.0707,5.0707,5.0707,5.0707,5.0707,5.126,5.2077,5.2947,5.3837,5.4684,5.5497,5.5708,5.5708,5.5708,5.5708,5.5708,5.5708,5.5708,5.5708,5.5708,5.5708,5.5785,5.6093,5.6863,5.7728,5.8588,5.9415,6.0146,6.0729,6.0806,6.0806,6.0806,6.0806,6.0806,6.0806,6.0806,6.0806,6.0806,6.0806,6.0806,6.0806,6.0806,6.0806,6.0806,6.0806,6.0806,6.0806,6.0806,6.0806,6.0806,6.0806,6.0806,0.0,0.0,0.0,0.0,3.1759,3.252,3.3237,3.3981,3.4742,3.5447,3.56,3.56,3.56,3.56,3.56,3.56,3.6043,3.6395,3.6395,3.6853,3.6972,3.6457,3.6402,3.6171,3.5656,3.5622,3.6065,3.7116,3.7201,3.7649,3.8643,3.8699,3.8699,3.8699,3.9467,4.0267,4.1095,4.1874,4.2671,4.3506,4.3506,4.3506,4.3506,4.3506,4.3506,4.3506,4.3506,4.3506,4.3659,4.5671,4.6727,4.7277,4.9309,5.0336,5.0678,5.0707,5.0707,5.0707,5.0707,5.0707,5.0707,5.0707,5.0707,5.0707,5.0707,5.1279,5.2115,5.2967,5.3837,5.4722,5.5497,5.5708,5.5708,5.5708,5.5708,5.5708,5.5708,5.5708,5.5708,5.5708,5.5728,5.6016,5.6843,5.7742,5.8602,5.9377,6.0242,6.0806,6.0806,6.0806,6.0806,6.0806,6.0806,6.0806,6.0806,6.0794,6.0788,6.0788,6.0788,6.0788,6.0788,6.08,6.0806,6.0806,6.0806,6.0806,6.0806,6.0806,6.0806,6.0806,6.0806,6.0806,3.0797,0.0,0.0,0.0,0.0,0.0,3.3345,3.4376,3.5357,3.5549,3.56,3.56,3.56,3.56,3.56,3.56,3.6043,3.6395,3.6395,3.6529,3.657,3.6416,3.6054,3.5772,3.5622,3.5952,3.645,3.7152,3.7515,3.7998,3.8658,3.8699,3.8699,3.8699,3.8927,3.9698,4.1085,4.1323,4.2139,4.3506,4.3506,4.3506,4.3506,4.3506,4.3506,4.3506,4.3506,4.3506,4.3659,4.5669,4.6578,4.6896,4.9194,5.0165,5.0294,5.0599,5.0707,5.0707,5.0707,5.0707,5.0707,5.0707,5.0707,5.0707,5.0707,5.1702,5.289,5.3121,5.4241,5.542,5.5651,5.5708,5.5708,5.5708,5.5708,5.5708,5.5708,5.5708,5.5708,5.5708,5.6209,5.6709,5.6964,5.8204,5.9242,5.9473,6.0242,6.0806,6.0806,6.0806,6.0806,6.0806,6.0806,6.0806,6.0806,6.0489,6.0285,6.0285,6.0285,6.0285,6.0285,6.0622,6.0806,6.0806,6.0806,6.0806,6.0806,6.0806,6.0806,6.0806,6.0806,6.0806,0.0,0.0,0.0,0.0,0.0,0.0,3.3328,3.4292,3.5222,3.5532,3.56,3.56,3.56,3.56,3.56,3.56,3.6043,3.6312,3.6097,3.6266,3.6329,3.6086,3.5794,3.56,3.56,3.5876,3.6385,3.7135,3.7451,3.7929,3.865,3.8699,3.8699,3.8699,3.8699,3.9305,4.0589,4.0938,4.1746,4.301,4.3341,4.3506,4.3506,4.3506,4.3506,4.3506,4.3506,4.369,4.4129,4.5638,4.6356,4.6703,4.8797,4.9694,4.9904,5.0294,5.0442,5.0478,5.0634,5.0707,5.0707,5.0707,5.0707,5.0707,5.0707,5.1875,5.3197,5.3197,5.4414,5.5708,5.5708,5.5708,5.5708,5.5708,5.5708,5.5708,5.5708,5.5708,5.5708,5.5708,5.6401,5.7113,5.7478,5.8627,5.9627,5.9992,6.0473,6.0806,6.0806,6.0806,6.0806,6.0806,6.0806,6.0714,6.0514,6.0257,6.011,6.011,6.011,6.0182,6.0371,6.0647,6.0806,6.0806,6.0806,6.0806,6.0806,6.0806,6.0806,6.0806,6.0806,6.0806,0.0,0.0,0.0,0.0,3.1995,0.0,3.3372,3.4083,3.481,3.5459,3.56,3.56,3.56,3.56,3.56,3.56,3.6006,3.6139,3.5678,3.6054,3.6203,3.5661,3.56,3.56,3.56,3.565,3.6101,3.7116,3.7295,3.7765,3.8643,3.8699,3.8699,3.8699,3.8699,3.9093,3.989,4.07,4.1507,4.2304,4.3121,4.3506,4.3506,4.3506,4.3506,4.3506,4.3506,4.3956,4.4755,4.5571,4.6169,4.6722,4.83,4.9116,4.9475,4.9891,5.0062,5.0153,5.0504,5.0663,5.0707,5.0707,5.0707,5.0707,5.0707,5.1875,5.3236,5.3433,5.4549,5.5708,5.5708,5.5708,5.5708,5.5708,5.5708,5.5708,5.5708,5.5708,5.5728,5.5824,5.6555,5.7382,5.8165,5.905,5.9915,6.0691,6.0806,6.0806,6.0806,6.0806,6.0769,6.0734,6.0714,6.0521,6.0055,5.9962,5.9939,5.9939,5.9939,6.0132,6.0553,6.0678,6.0696,6.0641,6.0696,6.0752,6.0806,6.0806,6.0806,6.0806,6.0806,6.0806,0.0,0.0,0.0,0.0,3.3525,0.0,3.4263,3.485,3.5442,3.5566,3.56,3.56,3.56,3.56,3.56,3.56,3.5683,3.5717,3.5622,3.6054,3.6203,3.5661,3.56,3.56,3.56,3.5996,3.6501,3.7144,3.7956,3.8499,3.8692,3.8699,3.8699,3.8699,3.8699,3.9093,3.989,4.07,4.1507,4.2304,4.3121,4.3506,4.3506,4.3506,4.3506,4.3506,4.3506,4.3956,4.4755,4.5571,4.6324,4.7104,4.8407,4.8955,4.9059,4.9467,4.9813,5.0104,5.0183,5.0426,5.0707,5.0707,5.0707,5.0707,5.0707,5.1875,5.3486,5.4838,5.5458,5.5708,5.5708,5.5708,5.5708,5.5708,5.5708,5.5708,5.5708,5.5708,5.592,5.6613,5.7459,5.8107,5.828,5.955,6.0589,6.0762,6.0806,6.0806,6.0806,6.0806,6.0666,6.0271,6.0236,6.0047,5.9586,5.9195,5.8961,5.8961,5.8961,5.9009,5.9112,5.9847,6.0055,5.9685,6.004,6.0424,6.0806,6.0806,6.0806,6.0806,6.0806,6.0806,0.0,0.0,0.0,3.3396,3.3947,0.0,0.0,3.5081,3.56,3.56,3.56,3.56,3.56,3.56,3.56,3.56,3.56,3.56,3.56,3.5821,3.5898,3.5633,3.56,3.56,3.56,3.5832,3.6326,3.7143,3.8135,3.8699,3.8699,3.8699,3.8699,3.8699,3.8699,3.8891,3.9294,4.0498,4.1305,4.1727,4.291,4.3506,4.3506,4.3506,4.3506,4.3506,4.3506,4.4176,4.5333,4.5736,4.6608,4.7746,4.8357,4.8604,4.8648,4.9043,4.9333,4.9561,4.9962,5.0237,5.0426,5.0629,5.0707,5.0707,5.0707,5.1875,5.3549,5.5222,5.5708,5.5708,5.5708,5.5708,5.5708,5.5708,5.5708,5.5708,5.5708,5.5708,5.5958,5.6824,5.7703,5.8429,5.8833,5.9954,6.0806,6.0806,6.0806,6.0806,6.0806,6.0806,6.0622,6.0154,6.011,5.9823,5.9112,5.8835,5.8694,5.8694,5.8694,5.8796,5.9037,5.9492,5.9644,5.9398,5.9862,6.0222,6.0443,6.069,6.0806,6.0806,6.0806,6.0806,0.0,0.0,0.0,0.0,3.4269,3.4709,0.0,0.0,0.0,3.56,3.56,3.56,3.56,3.56,3.5549,3.5408,3.5599,3.571,3.5557,3.5659,3.5717,3.5611,3.56,3.56,3.56,3.5694,3.6196,3.7257,3.8083,3.8585,3.8699,3.8699,3.8699,3.8699,3.8699,3.8699,3.8699,4.0296,4.1095,4.1113,4.2727,4.3506,4.3506,4.3506,4.3506,4.3506,4.3506,4.4406,4.5902,4.5902,4.6856,4.8296,4.8296,4.8296,4.8354,4.8666,4.8829,4.8986,4.9638,4.9968,5.0159,5.0483,5.0648,5.0765,5.1072,5.2125,5.3549,5.5222,5.5708,5.5708,5.5708,5.5708,5.5708,5.5708,5.5708,5.5708,5.5708,5.5708,5.6016,5.7055,5.7819,5.8569,5.9358,6.0223,6.0806,6.0806,6.0806,6.0806,6.0806,6.0714,6.0489,6.0018,5.9885,5.9494,5.8642,5.8578,5.8578,5.8578,5.8578,5.8735,5.9121,5.914,5.9222,5.9389,5.9685,5.9916,6.011,6.0482,6.0702,6.0806,6.0806,6.0806,0.0,0.0,0.0,0.0,3.5414,3.5492,3.5492,0.0,3.56,3.56,0.0,3.56,3.56,0.0,0.0,3.4726,3.5572,3.6087,3.5427,3.5908,3.6129,3.5667,3.56,3.56,3.56,3.6022,3.6726,3.7746,3.7929,3.82,3.8666,3.8699,3.8699,3.8699,3.8699,3.8699,3.8699,4.0296,4.1095,4.1113,4.2727,4.3506,4.3506,4.3506,4.3506,4.3506,4.3506,4.4406,4.5902,4.5902,4.6856,4.8296,4.8296,4.8296,4.8306,4.8345,4.8595,4.8913,4.8994,4.9492,5.0098,5.0159,5.041,5.0976,5.2472,5.3044,5.3549,5.5222,5.5708,5.5708,5.5708,5.5708,5.5708,5.5708,5.5708,5.5708,5.5708,5.5708,5.6189,5.7838,5.8223,5.8569,5.9358,6.0223,6.0806,6.0806,6.0806,6.0806,6.0806,6.043,6.0003,5.9536,5.9112,5.8652,5.8119,5.8081,5.8081,5.8081,5.8081,5.8097,5.8164,5.8164,5.8557,5.9381,5.9047,5.9276,6.011,6.0154,6.0397,6.0806,6.0806,6.0806,0.0,0.0,0.0,0.0,3.56,3.56,3.56,3.56,3.56,3.56,0.0,0.0,0.0,0.0,0.0,0.0,3.5584,3.594,3.5942,3.6198,3.6437,3.6522,3.6249,3.6054,3.6054,3.6542,3.703,3.746,3.8023,3.8465,3.8692,3.8699,3.8699,3.8699,3.8699,3.8699,3.8699,4.0296,4.1095,4.1113,4.2727,4.3506,4.3506,4.3506,4.3506,4.3506,4.3506,4.4406,4.5902,4.5902,4.6856,4.8296,4.8296,4.8296,4.8296,4.8296,4.842,4.8586,4.883,4.9261,4.9827,5.0308,5.0559,5.0919,5.2082,5.2794,5.3447,5.4664,5.5343,5.5708,5.5708,5.5708,5.5708,5.5708,5.5708,5.5708,5.5708,5.5708,5.6222,5.7953,5.8294,5.8723,6.0031,6.0556,6.0702,6.043,6.0628,6.059,6.0055,6.0047,5.9823,5.9075,5.8815,5.8505,5.8035,5.7997,5.7997,5.7997,5.7997,5.7997,5.7997,5.7997,5.8179,5.857,5.8654,5.8894,5.9284,5.982,6.0189,6.0404,6.0678,6.0806,3.3543,0.0,3.5373,3.5549,3.56,3.56,3.56,3.56,3.56,3.56,3.56,0.0,0.0,0.0,0.0,0.0,0.0,3.6096,3.6267,3.6594,3.6904,3.7163,3.6862,3.6674,3.6796,3.7039,3.7304,3.7587,3.816,3.8546,3.8692,3.8699,3.8699,3.8699,3.8699,3.8699,3.8699,4.0296,4.1095,4.1113,4.2727,4.3506,4.3506,4.3506,4.3506,4.3506,4.3506,4.4406,4.5902,4.5902,4.6856,4.8296,4.8296,4.8296,4.8296,4.8296,4.8296,4.8335,4.863,4.9059,4.9624,5.0432,5.0707,5.0842,5.1659,5.2505,5.3371,5.4241,5.5068,5.5708,5.5708,5.5708,5.5708,5.5708,5.5708,5.5708,5.5708,5.5708,5.6222,5.7953,5.8294,5.8833,6.0517,6.069,6.0495,6.0154,6.0271,6.0168,5.9484,5.9595,5.9468,5.8766,5.858,5.8365,5.8042,5.7997,5.7997,5.7997,5.7997,5.7997,5.7997,5.7997,5.7997,5.7997,5.8329,5.856,5.8705,5.9381,5.9855,6.0118,6.0578,6.0806,3.3414,3.4112,3.4783,3.5447,3.56,3.56,3.56,3.56,3.56,3.56,3.56,3.56,0.0,0.0,0.0,0.0,0.0,0.0,0.0,3.7077,3.7694,3.7248,3.7173,3.735,3.7807,3.746,3.7596,3.8588,3.82,3.8158,3.8658,3.8699,3.8699,3.8699,3.8699,3.8699,3.8699,4.0296,4.1095,4.1113,4.2727,4.3506,4.3506,4.3506,4.3506,4.3506,4.3506,4.4406,4.5902,4.5902,4.6856,4.8296,4.8296,4.8296,4.8296,4.8296,4.8296,4.8306,4.8316,4.8839,4.9624,5.0432,5.0707,5.0842,5.1659,5.2505,5.3371,5.4241,5.5068,5.5708,5.5708,5.5708,5.5708,5.5708,5.5708,5.5708,5.5708,5.5708,5.6222,5.7953,5.8294,5.8833,6.0517,6.0424,6.0125,6.0091,5.9725,5.9424,5.9398,5.9018,5.8735,5.8705,5.8286,5.802,5.7997,5.7997,5.7997,5.7997,5.7997,5.7997,5.7997,5.7997,5.7997,5.7997,5.802,5.8238,5.8694,5.8735,5.9203,6.0118,6.0578,6.0806,3.3417,3.4087,3.4759,3.543,3.56,3.56,3.56,3.56,3.56,3.56,3.56,3.56,0.0,0.0,0.0,0.0,0.0,0.0,0.0,3.7732,3.8366,3.8201,3.7887,3.7729,3.7876,3.7755,3.779,3.8132,3.8324,3.8504,3.8692,3.8699,3.8699,3.8699,3.8699,3.8699,3.8699,4.0296,4.1095,4.1113,4.2727,4.3506,4.3506,4.3506,4.3506,4.3506,4.3506,4.4406,4.5902,4.5902,4.6856,4.8296,4.8296,4.8296,4.8296,4.8296,4.8296,4.8373,4.8915,4.9265,4.9624,5.0432,5.0707,5.0745,5.1015,5.2087,5.3255,5.3568,5.4626,5.5708,5.5708,5.5708,5.5708,5.5708,5.5708,5.5708,5.5708,5.5708,5.6222,5.7953,5.8294,5.8833,6.0517,6.0154,5.9741,6.0047,5.9701,5.9303,5.8971,5.8804,5.858,5.8271,5.8085,5.7997,5.7997,5.7997,5.7997,5.7997,5.7997,5.7997,5.7997,5.7997,5.7997,5.7997,5.7997,5.8081,5.8227,5.8557,5.9018,5.9652,6.0125,6.0502,3.3352,3.3912,3.4455,3.5373,3.56,3.56,3.56,3.56,3.56,3.56,3.56,3.56,0.0,0.0,0.0,0.0,0.0,0.0,0.0,3.8293,3.8699,3.8699,3.839,3.8183,3.8183,3.8005,3.798,3.8175,3.8324,3.8496,3.8692,3.8699,3.8699,3.8699,3.8699,3.8699,3.8699,4.0296,4.1095,4.1113,4.2727,4.3506,4.3506,4.3506,4.3506,4.3506,4.3506,4.4406,4.5902,4.5902,4.6856,4.8296,4.8296,4.8296,4.8296,4.8296,4.8296,4.8383,4.9062,4.9378,4.9603,5.0272,5.0575,5.0707,5.0707,5.1875,5.3197,5.3197,5.4414,5.5708,5.5708,5.5708,5.5708,5.5708,5.5588,5.5537,5.5668,5.5838,5.6426,5.7989,5.8525,5.9131,6.0341,5.9908,5.9492,5.9816,5.9302,5.8786,5.8484,5.8442,5.834,5.8024,5.7997,5.7997,5.7997,5.7997,5.7997,5.7997,5.7997,5.7997,5.7997,5.7997,5.7997,5.7997,5.7997,5.7997,5.7997,5.8297,5.8785,5.9398,5.9709,6.0182]},{"header":{"parameterUnit":"m.s-1","parameterCategory":1,"la1":30.6,"la2":29.2853,"lo1":-89.7004,"lo2":-87.6739,"dy":0.0162,"dx":0.0183,"nx":112,"ny":82,"refTime":"2024-03-18T06:00:00:Z","depth":0,"parameterNumber":3,"parameterNumberName":"V-component_of_WINDS"},"data":[0.0,0.0,0.0,0.0,0.0,0.0,0.0,0.0,0.0,0.0,0.0,0.0,0.0,0.0,0.0,0.0,0.0,0.0,0.0,0.0,0.0,0.0,0.0,0.0,0.0,0.0,0.0,0.0,0.0,0.0,0.0,0.0,0.0,0.0,0.0,0.0,0.0,0.0,0.0,0.0,0.0,0.0,0.0,0.0,0.0,0.0,0.0,0.0,0.0,0.0,0.0,0.0,0.0,0.0,0.0,0.0,0.0,0.0,0.0,0.0,0.0,0.0,0.0,0.0,0.0,0.0,0.0,0.0,0.0,0.0,0.0,0.0,0.0,0.0,0.0,0.0,0.0,0.0,0.0,0.0,0.0,0.0,0.0,0.0,0.0,0.0,0.0,0.0,0.0,0.0,1.3891,1.4088,1.4109,1.4109,1.4109,1.4109,1.4109,1.4109,0.0,0.0,0.0,0.0,0.0,0.0,0.0,0.0,0.0,0.0,0.0,0.0,0.0,0.0,0.0,0.0,0.0,0.0,0.0,0.0,0.0,0.0,0.0,0.0,0.0,0.0,0.0,0.0,0.0,0.0,0.0,0.0,0.0,0.0,0.0,0.0,0.0,0.0,0.0,0.0,0.0,0.0,0.0,0.0,0.0,0.0,0.0,0.0,0.0,0.0,0.0,0.0,0.0,0.0,0.0,0.0,0.0,0.0,0.0,0.0,0.0,0.0,0.0,0.0,0.0,0.0,0.0,0.0,0.0,0.0,0.0,0.0,0.0,0.0,0.0,0.0,0.0,0.0,0.0,0.0,0.0,0.0,0.0,0.0,0.0,0.0,0.0,0.0,0.0,0.0,0.0,0.0,0.0,0.0,0.0,0.0,0.0,0.0,0.0,0.0,0.0,0.0,0.0,0.0,1.2963,1.3997,1.4109,1.4109,1.4109,1.4109,1.4109,1.4109,0.0,0.0,0.0,0.0,0.0,0.0,0.0,0.0,0.0,0.0,0.0,0.0,0.0,0.0,0.0,0.0,0.0,0.0,0.0,0.0,0.0,0.0,0.0,0.0,0.0,0.0,0.0,0.0,0.0,0.0,0.0,0.0,0.0,0.0,0.0,0.0,0.0,0.0,0.0,0.0,0.0,0.0,0.0,0.0,0.0,0.0,0.0,0.0,0.0,0.0,0.0,0.0,0.0,0.0,0.0,0.0,0.0,0.0,0.0,0.0,0.0,0.0,0.0,0.0,0.0,0.0,0.0,0.0,0.0,0.0,0.0,0.0,0.0,0.0,0.0,0.0,0.0,0.0,0.0,0.0,0.0,0.0,0.0,0.0,0.0,0.0,0.0,0.0,0.0,0.0,0.0,0.0,0.0,0.0,0.0,0.0,0.0,0.0,0.0,0.0,0.0,0.0,0.0,1.3203,1.3491,1.4039,1.4109,1.4109,1.4109,1.4109,1.4109,1.4109,1.4109,0.0,0.0,0.0,0.0,0.0,0.0,0.0,0.0,0.0,0.0,0.0,0.0,0.0,0.0,0.0,0.0,0.0,0.0,0.0,0.0,0.0,0.0,0.0,0.0,0.0,0.0,0.0,0.0,0.0,0.0,0.0,0.0,0.0,0.0,0.0,0.0,0.0,0.0,0.0,0.0,0.0,0.0,0.0,0.0,0.0,0.0,0.0,0.0,0.0,0.0,0.0,0.0,0.0,0.0,0.0,0.0,0.0,0.0,0.0,0.0,0.0,0.0,0.0,0.0,0.0,0.0,0.0,0.0,0.0,0.0,0.0,0.0,0.0,0.0,0.0,0.0,0.0,0.0,0.0,0.0,0.0,0.0,0.0,0.0,0.0,0.0,0.0,0.0,0.0,0.0,0.0,0.0,0.0,0.0,0.0,0.0,0.0,0.0,0.0,0.0,0.0,0.0,1.2942,1.3779,1.4067,1.4109,1.4109,1.4109,1.4109,1.4109,1.4109,1.4109,0.0,0.0,0.0,0.0,0.0,0.0,0.0,0.0,0.0,0.0,0.0,0.0,0.0,0.0,0.0,0.0,0.0,0.0,0.0,0.0,0.0,0.0,0.0,0.0,0.0,0.0,0.0,0.0,0.0,0.0,0.0,0.0,0.0,0.0,0.0,0.0,0.0,0.0,0.0,0.0,0.0,0.0,0.0,0.0,0.0,0.0,0.0,0.0,0.0,0.0,0.0,0.0,0.0,0.0,0.0,0.0,0.0,0.0,0.0,0.0,0.0,0.0,0.0,0.0,0.0,0.0,0.0,0.0,0.0,0.0,0.0,0.0,0.0,0.0,0.0,0.0,0.0,0.0,0.0,0.0,0.0,0.0,0.0,0.0,0.0,0.0,0.0,0.0,0.0,0.0,0.0,0.0,0.0,0.0,0.0,0.0,0.0,0.0,0.0,0.0,0.0,0.0,1.1729,1.2857,1.3976,1.4109,1.4109,1.4109,1.4109,1.4109,1.4109,1.4109,0.0,0.0,0.0,0.0,0.0,0.0,0.0,0.0,0.0,0.0,0.0,0.0,0.0,0.0,0.0,0.0,0.0,0.0,0.0,0.0,0.0,0.0,0.0,0.0,0.0,0.0,0.0,0.0,0.0,0.0,0.0,0.0,0.0,0.0,0.0,0.0,0.0,0.0,0.0,0.0,0.0,0.0,0.0,0.0,0.0,0.0,0.0,0.0,0.0,0.0,0.0,0.0,0.0,0.0,0.0,0.0,0.0,0.0,0.0,0.0,0.0,0.0,0.0,0.0,0.0,0.0,0.0,0.0,0.0,0.0,0.0,0.0,0.0,0.0,0.0,0.0,0.0,0.0,0.0,0.0,0.0,0.0,0.0,0.0,0.0,0.0,0.0,0.0,0.0,0.0,0.0,0.0,0.0,0.0,0.0,0.0,0.0,0.0,0.0,0.0,0.0,0.0,1.2681,1.3603,0.0,1.4109,1.4109,1.4109,1.4109,1.4109,1.4109,0.0,0.0,0.0,0.0,0.0,0.0,0.0,0.0,0.0,0.0,0.0,0.0,0.0,0.0,0.0,0.0,0.0,0.0,0.0,0.0,0.0,0.0,0.0,0.0,0.0,0.0,0.0,0.0,0.0,0.0,0.0,0.0,0.0,0.0,0.0,0.0,0.0,0.0,0.0,0.0,0.0,0.0,0.0,0.0,0.0,0.0,0.0,0.0,0.0,0.0,0.0,0.0,0.0,0.0,0.0,0.0,0.0,0.0,0.0,0.0,0.0,0.0,0.0,0.0,0.0,0.0,0.0,0.0,0.0,0.0,0.0,0.0,0.0,0.0,0.0,0.0,0.0,0.0,0.0,0.0,0.0,0.0,0.0,0.0,0.0,0.0,0.0,0.0,0.0,0.0,0.0,0.0,0.0,0.0,0.0,0.0,0.0,0.0,0.0,0.0,0.0,0.0,1.2221,1.3027,1.3688,0.0,1.4109,1.4109,1.4109,1.4109,1.4109,1.4109,0.0,0.0,0.0,0.0,0.0,0.0,0.0,0.0,0.0,0.0,0.0,0.0,0.0,0.0,0.0,0.0,0.0,0.0,0.0,0.0,0.0,0.0,0.0,0.0,0.0,0.0,0.0,0.0,0.0,0.0,0.0,0.0,0.0,0.0,0.0,0.0,0.0,0.0,0.0,0.0,0.0,0.0,0.0,0.0,0.0,0.0,0.0,0.0,0.0,0.0,0.0,0.0,0.0,0.0,0.0,0.0,0.0,0.0,0.0,0.0,0.0,0.0,0.0,0.0,0.0,0.0,0.0,0.0,0.0,0.0,0.0,0.0,0.0,0.0,0.0,0.0,0.0,0.0,0.0,0.0,0.0,0.0,0.0,0.0,0.0,0.0,0.0,0.0,0.0,0.0,0.0,0.0,0.0,0.0,0.0,0.0,0.0,0.0,0.0,0.0,0.0,0.0,1.2023,1.2306,1.2766,1.3976,1.4088,1.4067,1.4109,1.4088,1.4088,0.0,0.0,0.0,0.0,0.0,0.0,0.0,0.0,0.0,0.0,0.0,0.0,0.0,0.0,0.0,0.0,0.0,0.0,0.0,0.0,0.0,0.0,0.0,0.0,0.0,0.0,0.0,0.0,0.0,0.0,0.0,0.0,0.0,0.0,0.0,0.0,0.0,0.0,0.0,0.0,0.0,0.0,0.0,0.0,0.0,0.0,0.0,0.0,0.0,0.0,0.0,0.0,0.0,0.0,0.0,0.0,0.0,0.0,0.0,0.0,0.0,0.0,0.0,0.0,0.0,0.0,0.0,0.0,0.0,0.0,0.0,0.0,0.0,0.0,0.0,0.0,0.0,0.0,0.0,0.0,0.0,0.0,0.0,0.0,0.0,0.0,0.0,0.0,0.0,0.0,0.0,0.0,0.0,0.0,0.0,0.0,0.0,0.0,0.0,0.0,0.0,0.0,0.0,1.3273,1.2829,1.2766,1.3976,1.2629,1.2303,1.3955,1.3315,1.3182,1.4039,0.0,0.0,0.0,0.0,0.0,0.0,0.0,0.0,0.0,0.0,0.0,0.0,0.0,0.0,0.0,0.0,0.0,0.0,0.0,0.0,0.0,0.0,0.0,0.0,0.0,0.0,0.0,0.0,0.0,0.0,0.0,0.0,0.0,0.0,0.0,0.0,0.0,0.0,0.0,0.0,0.0,0.0,0.0,0.0,0.0,0.0,0.0,0.0,0.0,0.0,0.0,0.0,0.0,0.0,0.0,0.0,0.0,0.0,0.0,0.0,0.0,0.0,0.0,0.0,0.0,0.0,0.0,0.0,0.0,0.0,0.0,0.0,0.0,0.0,0.0,0.0,0.0,0.0,0.0,0.0,0.0,0.0,0.0,0.0,0.0,0.0,0.0,0.0,0.0,0.0,0.0,0.0,0.0,0.0,0.0,0.0,0.0,0.0,0.0,0.0,0.0,0.0,1.3075,1.2355,1.1901,1.2629,1.1434,1.1364,1.323,1.2291,1.2136,1.3315,0.0,0.0,0.0,0.0,0.0,0.0,0.0,0.0,0.0,0.0,0.0,0.0,0.0,0.0,0.0,0.0,0.0,0.0,0.0,0.0,0.0,0.0,0.0,0.0,0.0,0.0,0.0,0.0,0.0,0.0,0.0,0.0,0.0,0.0,0.0,0.0,0.0,0.0,0.0,0.0,0.0,0.0,0.0,0.0,0.0,0.0,0.0,0.0,0.0,0.0,0.0,0.0,0.0,0.0,0.0,0.0,0.0,0.0,0.0,0.0,0.0,0.0,0.0,0.0,0.0,0.0,0.0,0.0,0.0,0.0,0.0,0.0,0.0,0.0,0.0,0.0,0.0,0.0,0.0,0.0,0.0,0.0,0.0,0.0,0.0,0.0,0.0,0.0,0.0,0.0,0.0,0.0,0.0,0.0,0.0,0.0,0.0,0.0,0.0,0.0,0.0,0.0,1.1852,1.1144,1.0524,1.074,1.0481,1.0821,1.2173,1.1257,1.1037,1.2072,0.0,0.0,0.0,0.0,0.0,0.0,0.0,0.0,0.0,0.0,0.0,0.0,0.0,0.0,0.0,0.0,0.0,0.0,0.0,0.0,0.0,0.0,0.0,0.0,0.0,0.0,0.0,0.0,0.0,0.0,0.0,0.0,0.0,0.0,0.0,0.0,0.0,0.0,0.0,0.0,0.0,0.0,0.0,0.0,0.0,0.0,0.0,0.0,0.0,0.0,0.0,0.0,0.0,0.0,0.0,0.0,0.0,0.0,0.0,0.0,0.7414,0.6789,0.0,0.0,0.0,0.0,0.0,0.0,0.0,0.0,0.0,0.0,0.0,0.0,0.0,0.0,0.0,0.0,0.0,0.0,0.0,0.0,0.0,0.0,0.0,0.0,0.0,0.0,0.0,0.0,0.0,0.0,0.0,0.0,0.0,0.0,0.0,0.0,0.0,0.0,0.0,0.0,1.0783,0.9966,0.9944,1.1745,0.9479,0.9048,1.2044,1.1257,1.0697,1.0956,1.1788,0.0,0.0,0.0,0.0,0.0,0.0,0.0,0.0,0.0,0.0,0.0,0.0,0.0,0.0,0.0,0.0,0.0,0.0,0.0,0.0,0.0,0.0,0.0,0.0,0.0,0.0,0.0,0.0,0.0,0.0,0.0,0.0,0.0,0.0,0.0,0.0,0.0,0.0,0.0,0.0,0.0,0.0,0.0,0.0,0.0,0.0,0.0,0.0,0.0,0.0,0.0,0.0,0.0,0.0,0.0,0.0,0.0,0.0,0.0,0.7301,0.6965,0.0,0.0,0.0,0.0,0.0,0.0,0.0,0.0,0.0,0.0,0.0,0.0,0.0,0.0,0.0,0.0,0.0,0.0,0.0,0.0,0.0,0.0,0.0,0.0,0.0,0.0,0.0,0.0,0.0,0.0,0.0,0.0,0.0,0.0,0.0,0.0,0.0,0.0,0.0,0.0,0.9645,0.8755,0.8492,0.9674,0.8703,0.8925,1.1273,1.0438,1.0031,1.0567,1.1171,0.0,0.0,0.0,0.0,0.0,0.0,0.0,0.0,0.0,0.0,0.0,0.0,0.0,0.0,0.0,0.0,0.0,0.0,0.0,0.0,0.0,0.0,0.0,0.0,0.0,0.0,0.0,0.0,0.0,0.0,0.0,0.0,0.0,0.0,0.0,0.0,0.0,0.0,0.0,0.0,0.0,0.0,0.0,0.0,0.0,0.0,0.0,0.0,0.0,0.0,0.0,0.0,0.0,0.9031,0.8584,0.8562,0.7775,0.7426,0.7426,0.7426,0.7294,0.7095,0.7095,0.0,0.0,0.0,0.0,0.0,0.0,0.0,0.0,0.0,0.0,0.0,0.0,0.0,0.0,0.0,0.0,0.0,0.0,0.0,0.0,0.0,0.0,0.0,0.0,0.7095,0.7095,0.7095,0.0,0.0,0.0,0.0,0.0,0.0,0.0,0.0,0.0,0.0,0.0,0.8452,0.7709,0.7183,0.7382,0.8123,0.9061,1.02,0.9449,0.9213,0.994,1.02,0.9444,0.0,0.0,0.0,0.0,0.0,0.0,0.0,0.0,0.0,0.0,0.0,0.0,0.0,0.0,0.0,0.0,0.0,0.0,0.0,0.0,0.0,0.0,0.0,0.0,0.0,0.0,0.0,0.0,0.0,0.0,0.0,0.0,1.2198,1.2238,0.0,0.0,0.0,0.0,0.0,0.0,0.0,0.0,0.0,0.0,0.0,0.0,0.0,1.0336,1.0361,0.9507,0.907,0.9048,0.7896,0.7338,0.736,0.8255,0.8671,0.8671,0.8671,0.0,0.7095,0.7095,0.0,0.0,0.0,0.0,0.0,0.0,0.0,0.0,0.0,0.0,0.0,0.0,0.0,0.0,0.0,0.0,0.0,0.0,0.0,0.0,0.0,0.0,0.7095,0.7095,0.7095,0.7095,0.0,0.7095,0.7095,0.7095,0.7095,0.0,0.0,0.0,0.0,0.0,0.0,0.0,0.7316,0.7205,0.7511,0.854,0.7863,0.7819,0.9017,0.8978,0.8518,0.7617,0.8536,0.8978,0.8671,0.7947,0.0,0.0,0.0,0.0,0.0,0.0,0.0,0.0,0.0,0.0,0.0,0.0,0.0,0.0,0.0,0.0,0.0,0.0,0.0,0.0,0.0,0.0,0.0,0.0,0.0,0.0,0.0,0.0,0.0,1.2225,1.2095,1.1521,1.1959,1.1867,0.0,0.0,0.0,0.0,0.0,0.0,0.0,0.0,0.0,0.9882,0.9438,0.9274,0.9469,0.8412,0.7885,0.7885,0.7356,0.7095,0.7117,0.7643,0.7885,0.7885,0.7885,0.7577,0.7095,0.7095,0.7095,0.7095,0.0,0.0,0.0,0.0,0.7095,0.7095,0.7095,0.7095,0.7095,0.7095,0.0,0.0,0.0,0.0,0.0,0.0,0.0,0.7095,0.0,0.0,0.7095,0.7095,0.7095,0.7095,0.7095,0.7095,0.7095,0.0,0.7095,0.7095,0.7095,0.0,0.0,0.0,0.0,0.7095,0.7095,0.7095,0.7294,0.7841,0.8017,0.8664,1.0022,0.9438,0.9147,0.9434,0.924,0.884,0.8193,0.8276,0.8472,0.0,0.0,0.0,0.0,0.0,0.0,0.0,0.0,0.0,0.0,0.0,0.0,0.0,0.0,0.0,0.0,0.0,0.0,0.0,0.0,0.0,0.0,0.0,0.0,0.0,0.0,0.0,0.0,1.17,1.1453,1.1199,1.1397,1.1043,0.0,0.0,0.0,0.0,0.0,0.0,0.9152,0.896,0.8984,0.9354,0.8526,0.819,0.843,0.7555,0.7095,0.7095,0.7095,0.7095,0.7117,0.7426,0.7555,0.7555,0.7555,0.7555,0.7533,0.7228,0.7095,0.7095,0.7095,0.7095,0.7095,0.7095,0.7095,0.7095,0.7095,0.7095,0.7095,0.7095,0.7095,0.7095,0.7095,0.0,0.0,0.0,0.0,0.7095,0.7095,0.7095,0.7095,0.7095,0.7095,0.7095,0.7095,0.7095,0.7095,0.0,0.7095,0.7095,0.7095,0.0,0.0,0.0,0.0,0.7095,0.7095,0.7095,0.7112,0.7171,0.7971,0.8967,1.0116,0.9296,0.9177,1.0283,0.9416,0.8497,0.7647,0.8403,0.8413,0.7477,0.0,0.0,0.0,0.0,0.0,0.0,0.0,0.0,0.0,0.0,0.0,0.0,0.0,0.0,0.0,0.0,0.0,0.0,0.0,0.0,0.0,0.0,0.0,0.0,0.0,0.0,0.0,0.0,0.0,1.2003,1.0571,0.0,0.0,0.0,0.0,0.9482,0.8599,0.8116,0.8266,0.747,0.704,0.7075,0.7123,0.7177,0.7183,0.7139,0.7095,0.7095,0.7095,0.7095,0.7139,0.8281,0.8803,0.8803,0.8803,0.8803,0.8715,0.7577,0.7095,0.7095,0.7095,0.7095,0.7095,0.7095,0.7095,0.7095,0.7095,0.7095,0.7095,0.7095,0.7095,0.7095,0.7095,0.7095,0.0,0.0,0.7095,0.7095,0.7095,0.7095,0.7095,0.7095,0.7095,0.7095,0.7095,0.7095,0.7095,0.0,0.7095,0.7095,0.7095,0.0,0.7095,0.7095,0.7095,0.7095,0.7095,0.7095,0.7175,0.7369,0.7451,0.7558,0.7761,0.7704,0.7708,0.7785,0.7715,0.7668,0.76,0.7644,0.7664,0.759,0.7587,0.0,0.0,0.0,0.0,0.0,0.0,0.0,0.0,0.0,0.0,0.0,0.0,0.0,0.0,0.0,0.0,0.0,0.0,0.0,0.0,0.0,0.0,0.0,0.0,0.0,0.0,0.0,0.0,0.9405,0.9348,0.0,0.8003,0.8248,0.8212,0.7609,0.7321,0.7214,0.7358,0.7066,0.6948,0.7018,0.7068,0.7095,0.7095,0.7095,0.7095,0.7095,0.7095,0.7095,0.7117,0.7555,0.7731,0.7731,0.7731,0.7731,0.7709,0.7272,0.7095,0.7095,0.7095,0.7095,0.7095,0.7095,0.7095,0.7095,0.7095,0.7095,0.7095,0.7095,0.7095,0.7095,0.7095,0.7095,0.7095,0.7095,0.7095,0.7095,0.7095,0.7095,0.7095,0.7095,0.7095,0.7095,0.7095,0.7095,0.7095,0.7095,0.7095,0.7095,0.7095,0.7095,0.7095,0.7095,0.7095,0.7154,0.7275,0.7288,0.7346,0.7502,0.7519,0.7924,0.8926,0.8231,0.8134,0.9078,0.8341,0.7858,0.7858,0.7858,0.7814,0.7736,0.7736,0.7692,0.0,0.0,0.0,0.0,0.0,0.0,0.0,0.0,0.0,0.0,0.0,0.0,0.0,0.0,0.0,0.0,0.0,0.0,0.0,0.0,0.0,0.0,0.0,0.0,0.0,0.0,0.8294,0.8313,0.8333,0.7968,0.6966,0.7291,0.7309,0.6682,0.6719,0.6823,0.6972,0.6979,0.7001,0.7092,0.7095,0.7095,0.7095,0.7095,0.7095,0.7095,0.7095,0.7095,0.7095,0.7095,0.7095,0.7095,0.7095,0.7095,0.7095,0.7095,0.7095,0.7095,0.7095,0.7095,0.7095,0.7095,0.7095,0.7095,0.7095,0.7095,0.7095,0.7095,0.7095,0.7095,0.7095,0.7095,0.7095,0.7095,0.7095,0.7095,0.7095,0.7095,0.7095,0.7095,0.7095,0.7095,0.7095,0.7095,0.7095,0.7095,0.7095,0.7095,0.7095,0.7095,0.7112,0.7188,0.7195,0.7275,0.745,0.7471,0.7529,0.7655,0.7672,0.8084,0.9103,0.8369,0.8294,0.9258,0.8482,0.7988,0.7988,0.7988,0.7942,0.7814,0.7811,0.7767,0.7672,0.0,0.0,0.0,0.0,0.0,0.0,0.0,0.0,0.0,0.0,0.0,0.0,0.0,0.0,0.0,0.0,0.0,0.0,0.0,0.0,0.0,0.0,0.0,0.7668,0.6926,0.7026,0.8984,0.7611,0.6887,0.7859,0.7202,0.677,0.6897,0.6911,0.6953,0.7088,0.7095,0.7095,0.7095,0.7095,0.7095,0.7095,0.7095,0.7095,0.7095,0.7095,0.7095,0.7095,0.7095,0.7095,0.7095,0.7095,0.7095,0.7095,0.7095,0.7095,0.7095,0.7095,0.7095,0.7095,0.7095,0.7095,0.7095,0.7095,0.7095,0.7095,0.7095,0.7095,0.7095,0.7095,0.7095,0.7095,0.7095,0.7095,0.7095,0.7095,0.7095,0.7095,0.7095,0.7095,0.7095,0.7095,0.7098,0.7102,0.7102,0.7105,0.7109,0.7105,0.7105,0.7185,0.7379,0.7403,0.0,0.7587,0.7607,0.7662,0.7801,0.7818,0.7854,0.7978,0.7988,0.7988,0.7988,0.7988,0.7988,0.7988,0.7988,0.7946,0.7797,0.7818,0.7818,0.7818,0.0,0.0,0.0,0.0,0.0,0.0,0.0,0.0,0.0,0.0,0.0,0.0,0.0,0.0,0.0,0.0,0.0,0.0,0.0,0.0,0.0,0.8537,0.8313,0.7859,0.6926,0.6548,0.7202,0.6822,0.6656,0.7029,0.692,0.686,0.6904,0.698,0.7055,0.7095,0.7095,0.7095,0.7095,0.7095,0.7095,0.7095,0.7095,0.7095,0.7095,0.7095,0.7095,0.7095,0.7095,0.7095,0.7095,0.7095,0.7095,0.7095,0.7095,0.7095,0.7095,0.7095,0.7095,0.7095,0.7095,0.7095,0.7095,0.7095,0.7095,0.7095,0.7095,0.7095,0.7095,0.7095,0.7095,0.7095,0.7095,0.7095,0.7095,0.7095,0.7095,0.7095,0.7095,0.7095,0.7095,0.7095,0.7205,0.7309,0.7309,0.7397,0.7438,0.7326,0.74,0.7489,0.7533,0.7536,0.0,0.7733,0.7753,0.7787,0.7935,0.7952,0.7969,0.7985,0.7988,0.7988,0.7988,0.7988,0.7988,0.7988,0.7988,0.7996,0.7952,0.7952,0.7952,0.0,0.0,0.0,0.0,0.0,0.0,0.0,0.0,0.0,0.0,0.0,0.0,0.0,0.0,0.0,0.0,0.0,0.0,0.0,0.0,0.0,0.0,0.8561,0.834,0.7383,0.6754,0.6419,0.6481,0.6603,0.6698,0.6766,0.6908,0.6974,0.6974,0.7051,0.7095,0.7095,0.7095,0.7095,0.7095,0.7095,0.7095,0.7095,0.7095,0.7095,0.7095,0.7095,0.7095,0.7095,0.7095,0.7095,0.7095,0.7095,0.7095,0.7095,0.7095,0.7095,0.7095,0.0,0.0,0.0,0.0,0.7095,0.7095,0.7095,0.7095,0.7095,0.7095,0.7095,0.7095,0.7095,0.7095,0.7095,0.7095,0.7095,0.7095,0.7095,0.7095,0.7095,0.7095,0.7168,0.7238,0.7238,0.736,0.7488,0.7488,0.7587,0.0,0.757,0.758,0.7617,0.7678,0.7689,0.774,0.7864,0.7881,0.7915,0.7982,0.7988,0.7988,0.7988,0.7988,0.0,0.0,0.0,0.7988,0.7988,0.7952,0.0,0.0,0.0,0.7952,0.7988,0.7988,0.0,0.0,0.7844,0.7837,0.0,0.0,0.0,0.0,0.0,0.0,0.0,0.0,0.0,0.0,0.0,0.0,0.0,0.0,0.0,0.0,0.8632,0.7673,0.679,0.6602,0.6542,0.6542,0.6763,0.6914,0.6931,0.7021,0.7095,0.7095,0.7095,0.7095,0.7095,0.7095,0.0,0.0,0.0,0.7095,0.7095,0.7095,0.7095,0.7095,0.7095,0.7095,0.7095,0.7095,0.7095,0.7095,0.7095,0.7095,0.7095,0.7095,0.7095,0.7095,0.7095,0.7095,0.7095,0.7095,0.7095,0.7095,0.7095,0.0,0.0,0.7095,0.7095,0.7095,0.7095,0.7095,0.7095,0.7095,0.7095,0.7095,0.7095,0.7109,0.7144,0.7144,0.7285,0.742,0.742,0.7516,0.7624,0.7624,0.774,0.7814,0.7814,0.7733,0.7692,0.7793,0.7814,0.7861,0.7996,0.7988,0.7988,0.7988,0.0,0.0,0.7988,0.7988,0.7988,0.7988,0.7988,0.7988,0.7988,0.7885,0.7875,0.7985,0.7881,0.7878,0.7988,0.7988,0.7988,0.7988,0.7988,0.7988,0.0,0.0,0.0,0.0,0.0,0.0,0.0,0.0,0.0,0.0,0.0,0.0,0.0,0.0,0.0,1.064,0.9759,0.8822,0.7847,0.7194,0.682,0.682,0.687,0.6951,0.7045,0.7082,0.7095,0.7095,0.7095,0.7095,0.7095,0.7095,0.7095,0.7095,0.7095,0.7095,0.7095,0.7095,0.7095,0.7095,0.7095,0.0,0.7095,0.7095,0.7095,0.7095,0.7095,0.7095,0.7095,0.7095,0.7095,0.7095,0.7095,0.7095,0.7095,0.7095,0.7095,0.7095,0.7095,0.7095,0.7095,0.7095,0.7095,0.7095,0.7095,0.7095,0.0,0.7095,0.7095,0.7095,0.7095,0.7212,0.7348,0.7348,0.7444,0.7556,0.7556,0.7668,0.777,0.777,0.7868,0.7969,0.7969,0.7949,0.7939,0.7966,0.7969,0.7983,0.7985,0.7988,0.7988,0.7988,0.7988,0.7988,0.7988,0.7988,0.7988,0.7988,0.7988,0.7988,0.7988,0.7986,0.7986,0.7988,0.7986,0.7986,0.7988,0.7988,0.7988,0.7988,0.7988,0.7988,0.0,0.0,0.0,0.0,0.0,0.0,0.0,0.0,0.0,0.0,0.0,1.2305,1.2305,0.0,1.2011,1.1142,1.0633,1.009,0.9306,0.8384,0.7581,0.6972,0.695,0.7018,0.7088,0.7095,0.7095,0.7095,0.7095,0.7095,0.7095,0.7095,0.7095,0.7095,0.7095,0.7095,0.7095,0.7095,0.7095,0.7095,0.7095,0.7095,0.7095,0.7095,0.7095,0.7095,0.7095,0.7095,0.7095,0.7095,0.7095,0.7095,0.7095,0.7095,0.7095,0.7095,0.7095,0.7095,0.7095,0.7095,0.7095,0.7095,0.7095,0.7095,0.7095,0.7095,0.7095,0.7095,0.7171,0.7255,0.7255,0.737,0.7508,0.7508,0.7597,0.7706,0.7706,0.7797,0.7902,0.7902,0.7962,0.7988,0.7988,0.7988,0.7988,0.7988,0.7988,0.7988,0.7988,0.7988,0.7988,0.7988,0.7988,0.7988,0.7988,0.7988,0.7988,0.7988,0.7988,0.7988,0.7988,0.7988,0.7988,0.7988,0.7988,0.7988,0.7988,0.7988,0.7988,0.7988,0.7988,0.7988,0.0,0.0,0.0,0.0,0.0,0.0,0.0,0.0,1.2305,1.2305,1.2305,1.2305,1.2305,1.2305,1.2138,1.1596,1.1371,1.1047,1.045,0.9433,0.8282,0.7074,0.7028,0.7095,0.7095,0.7095,0.7095,0.7095,0.7095,0.7095,0.7095,0.7095,0.7095,0.7095,0.7095,0.7095,0.7095,0.7095,0.7095,0.7095,0.7095,0.7095,0.7095,0.7095,0.7095,0.7095,0.7095,0.7095,0.7095,0.7095,0.7095,0.7095,0.7095,0.7095,0.7095,0.7095,0.7095,0.7095,0.7095,0.7095,0.7095,0.7095,0.7095,0.7095,0.7095,0.7095,0.7102,0.7154,0.7275,0.7403,0.743,0.7529,0.7641,0.7641,0.775,0.7831,0.7831,0.7925,0.7988,0.7988,0.7988,0.7988,0.7988,0.7988,0.7988,0.7988,0.7988,0.7988,0.7988,0.7988,0.7988,0.7988,0.7988,0.7988,0.7988,0.7988,0.7988,0.7988,0.7988,0.7988,0.7988,0.7988,0.7988,0.7988,0.7988,0.7988,0.7988,0.7988,0.7988,0.7988,0.7988,0.7988,1.9414,1.7358,1.5482,1.5376,1.3983,1.2586,0.0,0.0,1.2305,1.2305,1.2305,1.2305,1.2305,1.2305,1.2361,1.2585,1.1971,1.118,1.033,0.9455,0.8424,0.7226,0.7088,0.7095,0.7095,0.7095,0.7095,0.7095,0.7095,0.7095,0.7095,0.7095,0.7095,0.7095,0.7095,0.7095,0.7095,0.7095,0.7095,0.7095,0.7095,0.7095,0.7095,0.7095,0.7095,0.7095,0.7095,0.7095,0.7095,0.7095,0.7095,0.7095,0.7095,0.7095,0.7095,0.7095,0.7095,0.7095,0.7095,0.7095,0.7095,0.7095,0.7095,0.7095,0.7095,0.7095,0.7148,0.7309,0.7379,0.7427,0.7539,0.7682,0.7787,0.7787,0.7878,0.7989,0.7989,0.7978,0.7988,0.7988,0.7988,0.7988,0.7988,0.7988,0.7988,0.7988,0.7988,0.7988,0.7988,0.7988,0.7988,0.7988,0.7988,0.7988,0.7988,0.7988,0.7988,0.7988,0.7988,0.7988,0.7988,0.7988,0.7988,0.7988,0.7988,0.7988,0.7988,0.7988,0.7988,0.7988,0.7988,0.7988,1.8911,1.7696,1.6707,0.0,1.4995,1.3821,1.3255,1.2696,1.2305,1.2305,1.2305,1.2305,1.2305,1.2305,1.2458,0.0,1.2739,1.2229,1.1522,1.0533,0.9444,0.8277,0.7533,0.7095,0.7095,0.7095,0.7095,0.7095,0.7095,0.7095,0.7095,0.7095,0.7095,0.7095,0.7095,0.7095,0.7095,0.7095,0.7095,0.7095,0.7095,0.7095,0.7095,0.7095,0.7095,0.7095,0.7095,0.7095,0.7095,0.7095,0.7095,0.7095,0.7095,0.7095,0.7095,0.7095,0.7095,0.7095,0.7095,0.7095,0.7095,0.7095,0.7095,0.7112,0.7248,0.7275,0.7305,0.7461,0.7563,0.7641,0.7706,0.7807,0.7918,0.7918,0.7966,0.7988,0.7988,0.7988,0.7988,0.7988,0.7988,0.7988,0.7988,0.7988,0.7988,0.7988,0.7988,0.7988,0.7988,0.7988,0.7988,0.7988,0.7988,0.7988,0.7988,0.7988,0.7988,0.7988,0.7988,0.7988,0.7988,0.7988,0.7988,0.7988,0.7988,0.8057,0.8174,0.8174,0.8218,0.8296,0.8296,0.8296,1.8344,1.7623,0.0,1.6376,1.5296,1.4217,1.3473,1.2787,1.2305,1.2305,1.2305,1.2305,1.2305,1.2305,1.2505,1.3093,1.3193,1.287,1.196,1.1128,1.0048,0.8584,0.7621,0.7095,0.7095,0.7095,0.7095,0.7095,0.7095,0.7095,0.7095,0.7095,0.7095,0.7095,0.7095,0.7095,0.7095,0.7095,0.7095,0.7095,0.7095,0.7095,0.7095,0.7095,0.7095,0.7095,0.7095,0.7095,0.7095,0.7095,0.7095,0.7095,0.7095,0.7095,0.7095,0.7095,0.7095,0.7095,0.7095,0.7095,0.7095,0.7095,0.7148,0.7202,0.7359,0.7423,0.7488,0.7614,0.7733,0.7797,0.7841,0.7932,0.7988,0.7988,0.7988,0.7988,0.7988,0.7988,0.7988,0.7988,0.7988,0.7988,0.7988,0.7988,0.7988,0.7988,0.7988,0.7988,0.7988,0.7988,0.7988,0.7988,0.7988,0.7988,0.7988,0.7988,0.7988,0.7988,0.7988,0.8033,0.8077,0.8077,0.8094,0.8135,0.8135,0.8218,0.8355,0.8355,0.8406,0.8509,0.8509,0.8532,1.8008,1.6672,1.5287,1.5252,1.3803,1.2372,1.236,1.2316,1.2305,1.2305,1.2305,1.2305,1.2305,1.2305,1.2505,1.3093,1.3193,1.2608,1.0893,1.0632,0.9744,0.7423,0.7117,0.7095,0.0,0.7095,0.7095,0.7095,0.7095,0.7095,0.7095,0.7095,0.7095,0.7095,0.7095,0.7095,0.7095,0.7095,0.7095,0.7095,0.7095,0.7095,0.7095,0.7095,0.7095,0.7095,0.7095,0.7095,0.7095,0.7095,0.7095,0.7095,0.7095,0.7095,0.7095,0.7095,0.7095,0.7095,0.7095,0.7095,0.7095,0.7095,0.7241,0.7389,0.7393,0.7498,0.7624,0.7767,0.7807,0.782,0.7969,0.7985,0.7988,0.7988,0.7988,0.7988,0.7988,0.7988,0.7988,0.7988,0.7988,0.7988,0.7988,0.7988,0.7988,0.7988,0.7988,0.7988,0.7988,0.7988,0.7988,0.7988,0.7988,0.7988,0.7988,0.7988,0.7988,0.7988,0.7988,0.8081,0.8284,0.8287,0.8355,0.8492,0.8495,0.8498,0.8502,0.8502,0.8505,0.8509,0.8509,0.856,1.7991,1.7545,1.6906,1.6289,1.5649,1.4809,1.352,1.3219,1.3043,1.2427,1.2305,1.2305,1.2305,1.2305,1.2505,1.3093,1.3193,1.2581,1.085,1.0611,0.9722,0.7379,0.7095,0.0,0.0,0.0,0.7095,0.7095,0.7095,0.7095,0.7095,0.7095,0.7095,0.7095,0.7095,0.7095,0.7095,0.7095,0.7095,0.7095,0.7095,0.7095,0.7095,0.7095,0.7095,0.7095,0.7095,0.7095,0.7095,0.7095,0.7095,0.7095,0.7095,0.7095,0.7095,0.7095,0.7095,0.7095,0.7095,0.7095,0.7095,0.7095,0.7244,0.7413,0.7515,0.7624,0.777,0.7895,0.7939,0.7949,0.7975,0.7988,0.7988,0.7988,0.7988,0.7988,0.7988,0.7988,0.7988,0.7988,0.7988,0.7988,0.7988,0.7988,0.7988,0.7988,0.7988,0.7988,0.7988,0.7988,0.7988,0.7988,0.7988,0.7988,0.7988,0.7988,0.8057,0.8187,0.8194,0.8258,0.843,0.8437,0.8457,0.8505,0.8509,0.853,0.8632,0.8632,0.8686,0.8757,0.8757,0.8784,1.7991,1.7759,1.7354,1.674,1.6358,1.5685,1.4081,1.3709,1.3437,1.2482,1.2305,1.2305,1.2305,1.2305,1.2505,1.3093,1.3193,1.2581,1.085,1.0611,0.9722,0.7379,0.7095,0.7095,0.0,0.0,0.0,0.7095,0.7095,0.7095,0.7095,0.7095,0.7095,0.7095,0.7095,0.7095,0.7095,0.7095,0.7095,0.7095,0.7095,0.7095,0.7095,0.7095,0.7095,0.7095,0.7095,0.7095,0.7095,0.7095,0.7095,0.7095,0.7095,0.7095,0.7095,0.7095,0.7382,0.7687,0.725,0.7095,0.7105,0.7181,0.7326,0.7505,0.7631,0.7753,0.7888,0.7986,0.7988,0.7988,0.7988,0.7988,0.7988,0.7988,0.7988,0.7988,0.7988,0.7988,0.7988,0.7988,0.7988,0.7988,0.7988,0.7988,0.7988,0.7988,0.7988,0.7988,0.7988,0.7988,0.7988,0.7988,0.7988,0.7988,0.7988,0.8067,0.8163,0.8291,0.8345,0.8437,0.8557,0.8564,0.8587,0.8645,0.8645,0.8693,0.8764,0.8764,0.8814,0.8912,0.8912,0.8912,1.7991,1.7354,1.6671,1.6671,1.6,1.5074,1.4081,1.3854,1.3564,1.2574,1.2372,1.236,0.0,0.0,1.2492,1.3073,1.32,1.2602,1.092,1.0687,0.9831,0.0,0.0,0.0,0.0,0.0,0.0,0.7268,0.7161,0.7095,0.7095,0.7095,0.7095,0.7095,0.7095,0.7095,0.7095,0.7095,0.7095,0.7095,0.7095,0.7095,0.7095,0.7095,0.7095,0.7095,0.7095,0.7095,0.7095,0.7095,0.7095,0.7095,0.7095,0.7095,0.7095,0.7095,0.7819,0.8649,0.7489,0.7139,0.7229,0.7432,0.7544,0.7628,0.777,0.7895,0.7988,0.7988,0.7988,0.7988,0.7988,0.7988,0.7988,0.7988,0.7988,0.7988,0.7988,0.7988,0.7988,0.7988,0.7988,0.7988,0.7988,0.7988,0.7988,0.7988,0.7988,0.7988,0.7988,0.7988,0.7988,0.7988,0.7995,0.8027,0.8027,0.8191,0.8311,0.8318,0.8444,0.8564,0.8716,0.8723,0.8764,0.8909,0.8912,0.8912,0.8912,0.8912,0.8912,0.8912,0.8912,0.8912,1.7991,1.7828,1.7647,1.7647,1.7449,1.7044,1.607,1.586,1.5376,1.3683,1.3346,1.3127,1.2427,0.0,0.0,1.2837,1.306,0.0,1.1729,1.1739,0.0,0.9874,0.0,0.9701,0.9701,0.9701,0.0,0.9701,0.8097,0.7095,0.7095,0.7095,0.7095,0.7095,0.7095,0.7095,0.7095,0.7095,0.7095,0.7095,0.7095,0.7095,0.7095,0.7095,0.7095,0.7095,0.7095,0.7095,0.7095,0.7095,0.7095,0.7095,0.7095,0.7095,0.7095,0.7095,0.7294,0.7511,0.7205,0.7687,0.8458,0.8608,0.8176,0.7628,0.777,0.7895,0.7988,0.7988,0.7988,0.7988,0.7988,0.7988,0.7988,0.7988,0.7988,0.7988,0.7988,0.7988,0.7988,0.7988,0.7988,0.7988,0.7988,0.7988,0.7988,0.7988,0.7988,0.7988,0.7988,0.7988,0.7988,0.7988,0.8143,0.8211,0.8211,0.8369,0.8502,0.8591,0.8632,0.872,0.8845,0.8852,0.8872,0.8912,0.8912,0.8912,0.8912,0.8912,0.8912,0.8912,0.8912,0.8912,1.7991,1.7991,1.7991,1.7991,1.7991,1.7647,1.6289,1.5992,1.5438,1.3491,1.3098,1.2915,1.239,1.2305,1.2417,0.0,0.0,0.0,1.2002,1.2028,1.1755,0.0,1.0611,0.0,1.0611,1.0611,1.0611,1.0611,0.8925,0.7885,0.7885,0.7382,0.7095,0.7095,0.7095,0.7095,0.7095,0.7095,0.7095,0.7095,0.7095,0.7095,0.7095,0.7095,0.7095,0.7095,0.7095,0.7095,0.7095,0.7095,0.7095,0.7095,0.7095,0.7095,0.7095,0.7095,0.7426,0.7893,0.7964,0.8427,0.8927,0.8569,0.8053,0.7638,0.7824,0.7946,0.7988,0.7988,0.7988,0.7988,0.7988,0.7988,0.7988,0.7988,0.7988,0.7988,0.7988,0.7988,0.7988,0.7988,0.7988,0.7988,0.7988,0.7988,0.7988,0.7988,0.7988,0.7988,0.7988,0.7988,0.804,0.8133,0.8243,0.8321,0.8386,0.8526,0.8618,0.8706,0.8747,0.8821,0.8906,0.8912,0.8912,0.8912,0.8912,0.8912,0.8912,0.8912,0.8912,0.8912,0.8912,0.8912,1.7991,1.7991,1.7991,1.7991,1.7991,1.7545,1.5781,1.5393,1.4825,1.2897,1.2482,1.2445,1.2316,1.2305,1.2403,1.2683,0.0,1.2635,1.2141,1.2093,1.1852,1.1144,1.1063,1.1063,1.1063,1.1063,1.1063,1.1063,0.9857,0.9061,0.8912,0.7753,0.7095,0.7095,0.7095,0.7095,0.7095,0.7095,0.7095,0.7095,0.7095,0.7095,0.7095,0.7095,0.7095,0.7095,0.7095,0.7095,0.7095,0.7095,0.7109,0.7148,0.7148,0.7161,0.7156,0.7156,0.7819,0.8744,0.8851,0.89,0.8796,0.8085,0.7746,0.7678,0.7929,0.7988,0.7988,0.7988,0.7988,0.7988,0.7988,0.7988,0.7988,0.7988,0.7988,0.7988,0.7988,0.7988,0.7988,0.7988,0.7988,0.7988,0.7988,0.7988,0.7988,0.7988,0.7988,0.802,0.8044,0.8044,0.8098,0.8281,0.8332,0.8403,0.8529,0.8652,0.874,0.874,0.8838,0.8912,0.8912,0.8912,0.8912,0.8912,0.8912,0.8912,0.8912,0.8912,0.8912,0.8912,0.8912,0.8912,1.7991,1.7991,1.7991,1.7991,1.7991,1.7708,1.6602,1.6349,0.0,1.3864,1.3455,1.3226,1.2445,1.2305,1.2318,1.2371,1.2623,1.2834,1.2969,1.3177,1.3349,0.0,1.3498,1.3498,1.3498,1.3498,0.0,0.0,1.1499,0.9901,0.8956,0.7753,0.7095,0.7095,0.7095,0.7095,0.7095,0.7095,0.7095,0.7095,0.7095,0.7095,0.7095,0.7095,0.7095,0.7095,0.7095,0.7095,0.7095,0.7095,0.7192,0.7352,0.7352,0.7407,0.7519,0.7519,0.7635,0.7825,0.7849,0.786,0.7998,0.8886,0.8534,0.7783,0.7959,0.7988,0.7988,0.7988,0.7988,0.7988,0.7988,0.7988,0.7988,0.7988,0.7988,0.7988,0.7988,0.7988,0.7988,0.7988,0.7988,0.7988,0.7988,0.7988,0.7988,0.7988,0.7988,0.806,0.824,0.8257,0.8267,0.8294,0.8489,0.8645,0.8669,0.8784,0.8872,0.8872,0.8896,0.8912,0.8912,0.8912,0.8912,0.8912,0.8912,0.8912,0.8912,0.8912,0.8912,0.8912,0.8912,0.8912,1.7991,1.7991,1.7991,1.7991,1.7991,1.763,1.6201,0.0,0.0,1.3364,1.297,1.2824,1.2372,1.2305,1.2305,1.2305,1.2437,1.2698,1.3146,1.3307,1.3567,1.4035,1.4109,1.4109,1.4109,1.4109,1.4109,1.4109,1.2467,1.0999,0.9836,0.8075,0.7095,0.7095,0.7095,0.7095,0.7095,0.7095,0.7095,0.7095,0.7095,0.7095,0.7095,0.7095,0.7095,0.7095,0.7095,0.7164,0.7261,0.7261,0.735,0.7515,0.7515,0.7536,0.76,0.76,0.76,0.7611,0.7685,0.7709,0.7804,0.8508,0.831,0.7814,0.7969,0.7988,0.7988,0.7988,0.7988,0.7988,0.7988,0.7988,0.7988,0.7988,0.7988,0.7988,0.7988,0.7988,0.7988,0.7988,0.7988,0.7988,0.7988,0.7988,0.7988,0.7988,0.7988,0.8071,0.8277,0.8362,0.8437,0.8489,0.8625,0.8716,0.8794,0.8869,0.8912,0.8912,0.8912,0.8912,0.8912,0.8912,0.8912,0.8912,0.8912,0.8912,0.8912,0.8912,0.8912,0.8912,0.9015,0.9049,1.7991,1.7991,1.7991,1.7991,1.7991,1.751,1.5623,1.5199,0.0,1.2696,1.2305,1.2305,1.2305,1.2305,1.2305,1.2305,1.2305,1.2492,1.3033,1.3166,1.3407,1.3928,1.4048,0.0,1.4109,1.4109,0.0,1.4109,1.2984,1.1702,1.0313,0.8729,0.7617,0.7117,0.7356,0.736,0.7095,0.7095,0.7095,0.7095,0.7095,0.7095,0.7095,0.7095,0.7112,0.7168,0.7168,0.7278,0.7444,0.7444,0.7532,0.7645,0.7645,0.7665,0.7695,0.7695,0.7695,0.7709,0.7797,0.7837,0.7854,0.7976,0.7935,0.7858,0.7979,0.7988,0.7988,0.7988,0.7988,0.7988,0.7988,0.7988,0.7988,0.7988,0.7988,0.7988,0.7988,0.7988,0.7988,0.7988,0.7988,0.7988,0.7988,0.7988,0.7988,0.7988,0.8044,0.8143,0.8321,0.8468,0.8587,0.8716,0.8733,0.8781,0.8899,0.8912,0.8912,0.8912,0.8912,0.8912,0.8912,0.8912,0.8912,0.8912,0.8912,0.8912,0.8912,0.894,0.8956,0.896,0.9162,0.923,1.7991,1.7991,1.7991,1.7991,1.7991,1.751,1.5623,0.0,1.4647,1.2696,1.2305,1.2305,1.2305,1.2305,1.2305,1.2305,1.2305,1.2437,1.2784,1.3052,1.3307,1.3606,0.0,0.0,1.4109,1.4109,1.4109,1.4109,1.2984,1.1338,0.917,0.9836,0.9309,0.7161,0.8167,0.8211,0.7117,0.7095,0.7095,0.7095,0.7095,0.7095,0.7095,0.7095,0.7195,0.7372,0.7372,0.7461,0.758,0.758,0.7662,0.779,0.779,0.7851,0.7973,0.7973,0.7973,0.7976,0.7989,0.7993,0.7996,0.7985,0.7982,0.7971,0.7985,0.7988,0.7988,0.7988,0.7988,0.7988,0.7988,0.7988,0.7988,0.7988,0.7988,0.7988,0.7988,0.7988,0.7988,0.7988,0.7988,0.7988,0.7988,0.7988,0.7988,0.7988,0.816,0.8325,0.8471,0.8598,0.872,0.8875,0.8889,0.8896,0.8909,0.8912,0.8912,0.8912,0.8912,0.8912,0.8912,0.8912,0.8912,0.8912,0.8912,0.8912,0.8912,0.9097,0.9162,0.9165,0.9318,0.939,1.7991,1.7991,1.7991,1.7991,1.7991,1.751,1.5623,0.0,1.4647,1.2696,1.2305,1.2305,1.2305,1.2305,1.2305,1.2305,1.2305,1.2423,1.2744,1.2891,1.3126,1.3547,1.3727,1.3874,0.0,0.0,1.4109,1.4109,1.3646,1.2665,1.1042,1.074,1.0178,0.9244,0.9017,0.8671,0.8193,0.7467,0.7095,0.7095,0.7095,0.7095,0.7098,0.7238,0.7335,0.7399,0.7491,0.759,0.7726,0.7726,0.779,0.7922,0.7922,0.7959,0.7988,0.7988,0.7988,0.7988,0.7988,0.7988,0.7988,0.7988,0.7988,0.7988,0.7988,0.7988,0.7988,0.7988,0.7988,0.7988,0.7988,0.7988,0.7988,0.7988,0.7988,0.7988,0.7988,0.7988,0.7988,0.7988,0.7988,0.7988,0.7988,0.7988,0.7988,0.7988,0.817,0.8349,0.8492,0.8615,0.874,0.8896,0.8912,0.8912,0.8912,0.8912,0.8912,0.8912,0.8912,0.8912,0.8912,0.8912,0.8912,0.8912,0.8912,0.8953,0.9066,0.9152,0.923,0.9322,0.9449,0.9517,1.8076,1.7991,1.7991,1.7991,1.7991,1.751,0.0,0.0,1.4647,1.2696,1.2305,1.2305,1.2305,1.2305,1.2305,1.2305,1.2305,1.2378,1.2623,1.2749,1.2978,1.3433,0.0,1.372,1.4076,1.4109,1.4109,1.4109,1.4109,1.373,1.2872,1.2083,1.1327,1.0632,0.9814,0.9235,0.8912,0.7709,0.7095,0.7095,0.7095,0.7122,0.7192,0.7345,0.744,0.7529,0.7614,0.7743,0.7854,0.7854,0.7918,0.7988,0.7988,0.7988,0.7988,0.7988,0.7988,0.7988,0.7988,0.7988,0.7988,0.7988,0.7988,0.7988,0.7988,0.7988,0.7988,0.7988,0.7988,0.7988,0.7988,0.7988,0.7988,0.7988,0.7988,0.7988,0.7988,0.7988,0.7988,0.7988,0.7988,0.803,0.8074,0.8081,0.8098,0.8138,0.8303,0.8461,0.8537,0.8682,0.8791,0.8899,0.8912,0.8912,0.8912,0.8912,0.8912,0.8912,0.8912,0.8912,0.8912,0.8912,0.8929,0.9001,0.9001,0.9072,0.925,0.9294,0.9373,0.9452,0.9602,0.9673,1.8236,1.7991,1.7991,1.7991,1.7991,1.751,0.0,1.5199,1.4647,1.2696,1.2305,1.2305,1.2305,1.2305,1.2305,1.2305,1.2305,1.2305,1.2305,1.2596,1.2904,0.0,1.3447,1.372,1.4076,1.4109,1.4109,1.4109,1.4109,1.4088,1.4088,1.4067,1.2997,1.0675,1.0589,1.0031,0.8912,0.7709,0.7095,0.7095,0.7095,0.7198,0.7393,0.7393,0.7556,0.7807,0.7807,0.7871,0.7988,0.7988,0.7988,0.7988,0.7988,0.7988,0.7988,0.7988,0.7988,0.7988,0.7988,0.7988,0.7988,0.7988,0.7988,0.7988,0.7988,0.7988,0.7988,0.7988,0.7988,0.7988,0.7988,0.7988,0.7988,0.7988,0.7988,0.7988,0.7988,0.7988,0.7988,0.7988,0.7988,0.8064,0.8267,0.8294,0.8342,0.8481,0.8608,0.8706,0.871,0.8814,0.8909,0.8912,0.8912,0.8912,0.8912,0.8912,0.8912,0.8912,0.8912,0.8912,0.8912,0.8912,0.9005,0.9204,0.9207,0.9254,0.941,0.953,0.9605,0.9612,0.9721,0.9788,1.8076,1.7991,1.7991,1.7991,1.7518,1.6715,1.5482,1.4665,1.3828,1.2556,1.2305,1.2305,1.2305,1.2305,1.2305,1.2305,1.2305,1.2305,1.2305,0.0,0.0,1.3173,1.3647,1.3981,0.0,1.4109,1.4109,1.4109,1.4109,1.4109,1.4109,1.4109,1.3758,1.3018,1.1434,1.0438,1.0074,0.8097,0.7095,0.7095,0.7095,0.7198,0.7396,0.7505,0.7631,0.7818,0.7898,0.7969,0.7988,0.7988,0.7988,0.7988,0.7988,0.7988,0.7988,0.7988,0.7988,0.7988,0.7988,0.7988,0.7988,0.7988,0.7988,0.7988,0.7988,0.7988,0.7988,0.7988,0.7988,0.7988,0.7988,0.7988,0.7988,0.7988,0.8098,0.8197,0.8197,0.8272,0.8343,0.8343,0.8343,0.8357,0.8434,0.844,0.8457,0.8502,0.8611,0.871,0.871,0.8818,0.8912,0.8912,0.8912,0.8912,0.8912,0.8912,0.8912,0.8912,0.8912,0.8912,0.8912,0.9032,0.9134,0.921,0.9284,0.9413,0.9537,0.9588,0.9659,0.9724,0.9768,0.9846,1.8093,1.7991,1.7991,1.7991,1.7285,1.6349,1.5403,1.4414,1.3437,1.2482,1.2305,1.2305,1.2305,1.2305,1.2305,1.2305,1.2305,1.2305,1.2305,0.0,0.0,1.33,1.3794,0.0,0.0,1.4109,1.4109,1.4109,1.4109,1.4109,1.4109,1.4109,1.4109,1.4109,1.1826,1.0611,1.0611,0.8269,0.7095,0.7095,0.7178,0.7309,0.7485,0.7611,0.776,0.7878,0.7973,0.7988,0.0,0.7988,0.7988,0.7988,0.7988,0.7988,0.7988,0.7988,0.7988,0.7988,0.7988,0.7988,0.7988,0.7988,0.7988,0.7988,0.7988,0.7988,0.7988,0.7988,0.7988,0.803,0.8088,0.8101,0.8115,0.8169,0.8279,0.8376,0.8376,0.8447,0.8509,0.8509,0.8509,0.8526,0.8557,0.8567,0.8587,0.8645,0.8733,0.877,0.877,0.8852,0.8912,0.8912,0.8912,0.8912,0.8912,0.8912,0.8912,0.8912,0.896,0.9018,0.9018,0.9189,0.9294,0.9352,0.9447,0.954,0.969,0.969,0.9704,0.9792,0.9849,0.9927,0.0,1.7991,1.7991,1.7991,1.7234,1.6262,1.5411,1.4368,0.0,1.2482,1.2305,1.2305,1.2305,1.2305,1.2305,1.2305,1.2305,1.2311,1.2331,1.2643,0.0,0.0,1.39,1.4109,1.4109,1.4109,1.4109,1.4109,1.4109,1.4109,1.4109,1.4109,1.4109,1.4109,1.1906,1.0675,1.0611,0.8269,0.7102,0.7112,0.7302,0.7481,0.7617,0.775,0.7871,0.7988,0.7988,0.7988,0.7988,0.7988,0.7988,0.7988,0.7988,0.7988,0.7988,0.7988,0.7988,0.7988,0.7988,0.7988,0.7988,0.7988,0.802,0.803,0.803,0.803,0.803,0.803,0.8037,0.8077,0.8274,0.8311,0.8345,0.8478,0.8515,0.8526,0.8526,0.8532,0.8539,0.8539,0.8539,0.856,0.8703,0.8726,0.8747,0.8889,0.8912,0.8912,0.8912,0.8912,0.8912,0.8912,0.8912,0.8916,0.8926,0.8926,0.8926,0.8926,0.9117,0.9224,0.9224,0.9345,0.9462,0.9605,0.9618,0.969,0.9792,0.9792,0.9795,0.9808,0.995,0.9997,1.8411,0.0,1.7991,1.7991,1.6759,1.5473,0.0,1.3875,1.2574,0.0,0.0,1.2305,1.2305,1.2305,1.2305,1.2305,1.2305,1.2397,1.265,1.3093,0.0,1.3941,1.4041,1.4109,1.4109,1.4109,1.4109,1.4109,1.4109,1.4109,1.4109,1.4109,1.4109,1.4109,1.2659,1.1488,1.0611,0.8269,0.7178,0.7342,0.7376,0.7532,0.7763,0.7794,0.7871,0.7988,0.7988,0.7988,0.7988,0.7988,0.7988,0.7988,0.7988,0.7988,0.7988,0.7988,0.7988,0.7988,0.7988,0.7988,0.7988,0.7988,0.8094,0.824,0.824,0.824,0.824,0.824,0.8296,0.8387,0.8447,0.8457,0.8468,0.8502,0.857,0.8655,0.8655,0.8723,0.8804,0.8804,0.8804,0.8814,0.8852,0.8855,0.8869,0.8906,0.8912,0.8912,0.8912,0.8912,0.8912,0.8912,0.8912,0.8956,0.9121,0.9131,0.9131,0.9131,0.9274,0.9356,0.9356,0.9473,0.9571,0.9608,0.9717,0.9758,0.9792,0.9792,0.9849,0.9964,0.997,1.014,1.8361,1.7991,1.7991,1.7991,1.6914,1.5843,1.5843,1.4343,0.0,0.0,0.0,1.2305,1.2305,1.2305,1.2305,1.2305,1.2305,1.2458,0.0,0.0,1.3713,1.4048,1.4109,1.4109,1.4109,1.4109,1.4109,1.4109,1.4109,1.4109,1.4109,1.4109,1.4109,1.4109,1.2942,1.2002,1.1381,0.9074,0.8012,0.8178,0.7714,0.7594,0.7814,0.7858,0.7935,0.7988,0.7988,0.7988,0.7988,0.7988,0.7988,0.7988,0.7988,0.7988,0.7988,0.7988,0.7988,0.7988,0.7988,0.806,0.8147,0.8147,0.8248,0.8393,0.8393,0.8444,0.8485,0.8413,0.8447,0.8526,0.8567,0.8587,0.8604,0.8676,0.8727,0.8787,0.8787,0.8852,0.8912,0.8912,0.8912,0.8912,0.8912,0.8912,0.8912,0.8912,0.8912,0.8912,0.8912,0.8912,0.8936,0.9028,0.9035,0.9096,0.9274,0.9349,0.9362,0.9291,0.943,0.9486,0.9486,0.9629,0.9707,0.9707,0.9751,0.9825,0.9896,0.9896,0.9974,1.0126,1.0191,1.0337,1.8236,1.7991,1.7991,1.7991,1.7285,1.6567,1.6419,0.0,0.0,0.0,0.0,1.2335,1.2482,1.239,1.236,1.2482,1.2471,0.0,1.318,1.3507,1.3787,1.4076,1.4109,1.4109,1.4109,1.4109,1.4109,1.4109,1.4109,1.4109,1.4109,1.4109,1.4109,1.4109,1.3118,1.2568,1.2568,1.0347,0.9194,0.9131,0.8315,0.7896,0.7824,0.7956,0.7988,0.7988,0.7988,0.0,0.7988,0.7988,0.7988,0.7988,0.7988,0.7988,0.7988,0.7988,0.7988,0.7992,0.804,0.8174,0.8328,0.8328,0.8423,0.8543,0.8543,0.8625,0.8716,0.8587,0.8554,0.8581,0.8713,0.872,0.875,0.8879,0.8912,0.8912,0.8912,0.8912,0.8912,0.8912,0.8912,0.8912,0.8912,0.8912,0.8912,0.8912,0.8912,0.8912,0.8912,0.8929,0.9018,0.9169,0.9231,0.9277,0.943,0.9537,0.9564,0.9456,0.9568,0.9642,0.9642,0.9727,0.9792,0.9792,0.9812,0.989,0.9987,1.0042,1.013,1.0317,1.0436,1.0504,1.8236,1.7991,1.7991,1.7991,1.7285,1.6384,1.5605,0.0,0.0,0.0,0.0,0.0,1.3346,1.2842,1.2556,0.0,0.0,1.3167,0.0,0.0,1.4035,1.4082,1.4109,1.4109,1.4109,1.4109,1.4109,1.4109,1.4109,1.4109,1.4109,1.4109,1.4109,1.4109,1.3913,1.3822,1.3822,1.1794,1.0264,0.9282,0.9399,0.8934,0.7979,0.7978,0.7988,0.7988,0.0,0.7988,0.7988,0.7988,0.7988,0.7988,0.7988,0.7988,0.7988,0.7988,0.7988,0.8033,0.8187,0.8355,0.8478,0.8478,0.8554,0.8676,0.8676,0.8754,0.8872,0.8848,0.8841,0.8845,0.8872,0.8875,0.8882,0.8906,0.8912,0.8912,0.8912,0.8912,0.8912,0.8912,0.8912,0.8912,0.8912,0.8912,0.8912,0.8912,0.8912,0.8912,0.8912,0.9045,0.9155,0.9207,0.9298,0.9437,0.9561,0.9595,0.9649,0.9747,0.9744,0.9758,0.9758,0.9778,0.9792,0.9792,0.9917,0.9963,0.9987,1.0181,1.0321,1.046,1.048,1.0561,1.811,1.7991,1.7991,1.7991,1.7681,1.7234,1.6811,0.0,0.0,0.0,0.0,0.0,0.0,0.0,1.2499,1.3103,0.0,1.3293,1.356,1.3901,1.4109,1.4109,1.4109,1.4109,1.4109,1.4109,1.4109,1.4109,1.4109,1.4109,1.4109,1.4109,1.4109,1.4109,1.4109,1.4162,1.4315,1.3573,1.2564,1.1296,1.0984,1.0222,0.9093,0.9093,0.8676,0.7988,0.0,0.7988,0.7988,0.7988,0.7988,0.7988,0.7988,0.7988,0.8027,0.8133,0.8163,0.8184,0.8359,0.8509,0.8604,0.8604,0.871,0.8804,0.8804,0.8855,0.8912,0.8912,0.8912,0.8912,0.8912,0.8912,0.8912,0.8912,0.8912,0.8912,0.8912,0.8912,0.8912,0.8912,0.8912,0.8912,0.8912,0.8912,0.8912,0.8912,0.9005,0.9055,0.9055,0.9213,0.9335,0.942,0.9462,0.9564,0.971,0.9694,0.9721,0.9788,0.9792,0.9792,0.9792,0.9792,0.9829,0.991,0.9984,1.0096,1.0255,1.0358,1.047,1.0616,1.0616,1.0653,1.7991,1.7991,1.7991,1.7991,0.0,0.0,0.0,0.0,0.0,0.0,0.0,0.0,0.0,1.3338,0.0,1.2882,1.3113,1.3393,1.3687,1.3941,1.4109,1.4109,1.4109,1.4109,1.4109,1.4109,1.4109,1.4109,1.4109,1.4109,1.4109,1.4109,1.4109,1.4109,1.4109,1.4229,1.4494,1.4839,1.4369,1.3083,1.2498,1.1442,0.9998,0.9998,0.9262,0.7988,0.7988,0.7988,0.7988,0.7988,0.7988,0.7988,0.7988,0.8037,0.8084,0.825,0.8342,0.8413,0.8526,0.8635,0.8737,0.8737,0.8818,0.8912,0.8912,0.8912,0.8912,0.8912,0.8912,0.8912,0.8912,0.8912,0.8912,0.8912,0.8912,0.8912,0.8912,0.8912,0.8912,0.8912,0.8912,0.8912,0.8912,0.8912,0.8923,0.8956,0.9111,0.9221,0.923,0.9369,0.9479,0.9598,0.9639,0.9703,0.9781,0.9792,0.9792,0.9792,0.9792,0.9792,0.9792,0.9825,0.99,0.9984,1.0086,1.0234,1.049,1.0527,1.0605,1.0688,1.0688,1.0688,1.7991,1.7991,1.7991,1.7991,1.7991,0.0,1.6905,1.6654,0.0,1.5393,0.0,0.0,0.0,1.4535,1.3867,1.3277,1.3407,1.3694,1.4015,1.4075,1.4109,1.4109,1.4109,1.4109,1.4109,1.4109,1.4109,1.4109,1.4109,1.4109,1.4109,1.4109,1.4109,1.4109,1.4109,1.4229,1.4494,1.4839,1.4443,1.3368,1.3625,1.2429,0.9998,0.9998,0.9262,0.7988,0.7988,0.7988,0.7988,0.7988,0.7988,0.7988,0.7988,0.8126,0.8281,0.8294,0.8468,0.8679,0.8689,0.8767,0.8896,0.8896,0.8902,0.8912,0.8912,0.8912,0.8912,0.8912,0.8912,0.8912,0.8912,0.8912,0.8912,0.8912,0.8912,0.8912,0.8912,0.8912,0.8912,0.8912,0.8912,0.8912,0.8912,0.8912,0.8956,0.9145,0.9204,0.9233,0.9376,0.95,0.9598,0.9608,0.9697,0.9781,0.9792,0.9792,0.9792,0.9792,0.9792,0.9792,0.9792,0.9927,0.9977,0.9987,1.0321,1.047,1.049,1.0633,1.0677,1.0688,1.0688,1.0688,1.7991,1.7991,1.7991,1.7991,1.7991,0.0,0.0,1.7467,1.72,1.6254,1.607,0.0,0.0,0.0,1.4951,1.4561,1.4,1.3727,1.4048,1.4109,1.4109,1.4109,1.4109,1.4109,1.4109,1.4109,1.4109,1.4109,1.4109,1.4109,1.4109,1.4109,1.4109,1.4109,1.4109,1.4337,1.4812,1.4932,1.4963,1.4886,1.5018,1.3716,1.117,1.117,1.0022,0.7988,0.7988,0.7988,0.7988,0.7988,0.7988,0.8023,0.8147,0.8243,0.8318,0.8476,0.8615,0.8723,0.8791,0.8862,0.8912,0.8912,0.8912,0.8912,0.8912,0.8912,0.8912,0.8912,0.8912,0.8912,0.8912,0.8912,0.8912,0.8912,0.8912,0.8912,0.8912,0.8912,0.8912,0.8912,0.8912,0.8912,0.8912,0.9011,0.9117,0.92,0.9342,0.9459,0.9517,0.9649,0.971,0.971,0.9758,0.9792,0.9792,0.9792,0.9832,0.9927,0.9934,0.9934,0.9934,1.0079,1.0232,1.0321,1.0436,1.0538,1.0633,1.0694,1.0688,1.0688,1.0688,1.0688,1.7991,1.7991,1.7991,1.7991,0.0,0.0,1.7991,1.7991,1.7811,1.7173,1.6902,1.6572,1.5869,0.0,0.0,0.0,1.4437,1.3951,1.4524,1.4307,1.4109,1.4109,1.4109,1.4109,1.4109,1.4109,1.4109,1.4109,1.4109,1.4109,1.4109,1.4109,1.4109,1.4109,1.4175,1.4484,1.4979,1.5079,1.5344,1.5808,1.5808,1.4424,1.1896,1.1896,1.046,0.7988,0.7988,0.7988,0.7988,0.7988,0.7988,0.803,0.8211,0.8325,0.8393,0.8618,0.874,0.877,0.8875,0.8912,0.8912,0.8912,0.8912,0.8912,0.8912,0.8912,0.8912,0.8912,0.8912,0.8912,0.8912,0.8912,0.8912,0.8912,0.8912,0.8912,0.8912,0.8912,0.8912,0.8912,0.895,0.9008,0.9008,0.9155,0.9271,0.9318,0.9476,0.9625,0.9673,0.9731,0.9792,0.9792,0.9792,0.9808,0.9859,0.9863,0.9927,1.0082,1.0133,1.014,1.0092,1.0266,1.0424,1.049,1.0538,1.0616,1.0688,1.0688,1.0688,1.0688,1.0688,1.0688,1.7991,1.7991,1.7991,1.7991,0.0,0.0,1.7991,1.7991,1.7991,1.7991,1.758,1.6883,1.5828,1.5478,0.0,1.5318,1.4634,1.4468,1.5538,1.4776,1.4109,1.4109,1.4109,1.4109,1.4109,1.4109,1.4109,1.4109,1.4109,1.4109,1.4109,1.4109,1.4109,1.4109,1.4369,1.4663,1.5008,1.5273,1.5538,1.5808,1.5808,1.4442,1.1921,1.1901,1.0485,0.8017,0.8013,0.7988,0.7988,0.7988,0.7988,0.803,0.8211,0.8386,0.8529,0.8655,0.8781,0.8912,0.8912,0.8912,0.8912,0.8912,0.8912,0.8912,0.8912,0.8912,0.8912,0.8912,0.8912,0.8912,0.8912,0.8912,0.8912,0.8912,0.8912,0.8912,0.8912,0.8912,0.8912,0.8912,0.9055,0.921,0.921,0.9311,0.9435,0.9588,0.9612,0.9663,0.9771,0.9792,0.9792,0.9792,0.9792,0.9852,0.9974,0.9987,1.0086,1.0305,1.0415,1.0429,1.0318,1.0419,1.0493,1.0493,1.0643,1.0688,1.0688,1.0688,1.0688,1.0688,1.0688,1.0688,1.7991,1.7991,1.7991,1.7991,0.0,0.0,0.0,1.7991,0.0,0.0,1.8097,1.8196,1.819,1.7783,0.0,1.6774,1.5862,1.5075,1.4636,1.4292,1.4109,1.4109,1.4109,1.4109,1.4109,1.4109,1.4109,1.4109,1.4109,1.4109,1.4109,1.4109,1.4109,1.4109,1.4369,1.4663,1.5008,1.5273,1.5538,1.5808,1.5808,1.4926,1.3271,1.2334,1.0999,0.9361,0.8407,0.7988,0.7988,0.7988,0.7988,0.804,0.8319,0.8471,0.8539,0.8747,0.8872,0.8912,0.8912,0.8912,0.8912,0.8912,0.8912,0.8912,0.8912,0.8912,0.8912,0.8912,0.8912,0.8912,0.8912,0.8912,0.8912,0.8912,0.8912,0.8912,0.8912,0.8912,0.894,0.9097,0.9152,0.9245,0.9325,0.9442,0.9557,0.9602,0.9693,0.9744,0.9785,0.9792,0.9792,0.9792,0.9886,0.9967,0.9984,1.0116,1.0273,1.0419,1.047,1.0473,1.0429,1.0571,1.0653,1.0653,1.0664,1.0688,1.0688,1.0688,1.0688,1.0688,1.0688,1.0688,1.7991,1.7991,0.0,1.7991,1.7991,1.7991,1.7991,0.0,0.0,0.0,1.8576,1.8879,1.8908,1.8718,1.8296,1.7442,1.6396,1.5476,1.4838,1.437,1.4109,1.4109,1.4109,1.4109,1.4109,1.4109,1.4109,1.4109,1.4109,1.4109,1.4109,1.4109,1.4109,1.4109,1.4482,1.4805,1.5008,1.5364,1.5635,1.5808,1.5808,1.5391,1.4609,1.3301,1.1989,1.0681,0.9361,0.8482,0.7988,0.7988,0.805,0.8153,0.8391,0.8546,0.8604,0.8821,0.8912,0.8912,0.8912,0.8912,0.8912,0.8912,0.8912,0.8912,0.8912,0.8912,0.8912,0.8912,0.8912,0.8912,0.8912,0.8912,0.8912,0.8912,0.8912,0.8926,0.9011,0.9025,0.9066,0.9243,0.9322,0.9393,0.9456,0.9595,0.9693,0.9693,0.9737,0.9792,0.9792,0.9792,0.9812,0.9876,0.9964,1.0065,1.0184,1.031,1.0426,1.0571,1.0582,1.0582,1.0582,1.067,1.0688,1.0688,1.0688,1.0688,1.0688,1.0688,1.0688,1.0688,1.0688,1.0688,1.7991,1.7991,1.7991,1.7991,1.7991,0.0,1.7991,1.802,1.8157,1.852,0.0,1.9129,1.8557,1.8745,1.8658,1.7626,1.6478,1.5724,1.582,1.4831,1.4152,1.4229,1.4166,1.4109,1.4109,1.4109,1.4109,1.4109,1.4109,1.4109,1.4109,1.4109,1.4109,1.4109,1.4678,1.5008,1.5008,1.5538,1.5808,1.5808,1.5808,1.5808,1.5754,1.4483,1.3175,1.1823,1.0558,0.9312,0.8162,0.8038,0.813,0.8311,0.8454,0.8574,0.8703,0.8855,0.8912,0.8912,0.8912,0.8912,0.8912,0.8912,0.8912,0.8912,0.8912,0.8912,0.8912,0.8912,0.8912,0.8912,0.8912,0.8919,0.8929,0.8929,0.8929,0.8967,0.9152,0.9221,0.9247,0.94,0.9513,0.9612,0.9629,0.9707,0.9792,0.9792,0.9792,0.9792,0.9792,0.9802,0.9863,0.9974,1.0042,1.0167,1.047,1.0504,1.0571,1.0677,1.0688,1.0688,1.0688,1.0688,1.0688,1.0688,1.0688,1.0688,1.0688,1.0688,1.0688,1.0688,1.0688,1.0688,1.7991,1.7991,0.0,1.7991,1.7991,1.7991,1.7991,1.8244,1.849,1.8588,1.8966,1.9359,1.9524,1.9242,1.8917,1.8669,1.698,1.5985,1.6846,1.5311,1.4412,1.5255,1.4608,1.4109,1.4109,1.4109,1.4109,1.4109,1.4109,1.4109,1.4109,1.4109,1.4109,1.4109,1.4678,1.5008,1.5008,1.5538,1.5808,1.5808,1.5808,1.5808,1.5754,1.4483,1.3175,1.1823,1.0558,0.9825,0.9484,0.8432,0.813,0.8311,0.8454,0.8574,0.8703,0.8855,0.8912,0.8912,0.8912,0.8912,0.8912,0.8912,0.8912,0.8912,0.8912,0.8912,0.8912,0.8912,0.8912,0.8912,0.8912,0.9022,0.9134,0.9134,0.9134,0.9145,0.9204,0.9277,0.9407,0.953,0.9588,0.9646,0.9724,0.9771,0.9792,0.9792,0.9792,0.9792,0.9792,0.9896,0.9981,0.9984,1.0228,1.0422,1.0487,1.0602,1.0683,1.0684,1.0688,1.0688,1.0688,1.0688,1.0688,1.0688,1.0688,1.0688,1.0688,1.0688,1.0688,1.0688,1.0688,1.0688,1.811,1.7991,0.0,1.7991,0.0,1.7991,1.7991,1.8313,1.8656,1.8888,1.9287,1.9717,2.0165,1.9975,1.9599,1.9076,1.802,1.7273,1.7302,1.5889,1.5075,1.5634,1.4755,1.4109,1.4109,1.4109,1.4109,1.4109,1.4109,1.4109,1.4109,1.4109,1.4109,1.4109,1.4678,1.5008,1.5008,1.5538,1.5808,1.5808,1.5808,1.5808,1.5784,1.5116,1.41,1.2813,1.2159,1.1161,0.9948,0.9242,0.8744,0.8406,0.8481,0.8621,0.8801,0.8882,0.8912,0.8912,0.8912,0.8912,0.8912,0.8912,0.8912,0.8912,0.8912,0.8912,0.8912,0.8912,0.8912,0.8926,0.9022,0.9124,0.9228,0.9274,0.9291,0.9311,0.9383,0.9435,0.9534,0.9683,0.971,0.9704,0.9778,0.9792,0.9792,0.9792,0.9792,0.9815,0.989,0.9967,1.0072,1.0214,1.0399,1.0521,1.0595,1.0673,1.0688,1.0688,1.0688,1.0688,1.0688,1.0688,1.0688,1.0688,1.0688,1.0688,1.0688,1.0688,1.0688,1.0688,1.0688,1.0688,1.8202,1.7991,1.7991,1.7991,1.7991,0.0,1.8088,1.843,1.8849,1.9307,1.9678,2.0049,2.0498,2.045,2.0099,1.9402,1.8957,1.845,1.7698,1.6498,1.5696,1.5696,1.4755,1.4109,1.4109,1.4109,1.4187,1.4349,1.4208,1.4187,1.437,1.4208,1.4109,1.4109,1.4631,1.4932,1.5008,1.5491,1.5755,1.5808,1.5808,1.5808,1.5808,1.5808,1.5218,1.422,1.3998,1.2668,1.0632,1.0194,0.9542,0.882,0.8587,0.8669,0.8912,0.8912,0.8912,0.8912,0.8912,0.8912,0.8912,0.8912,0.8912,0.8912,0.8912,0.8912,0.8912,0.8912,0.8929,0.9001,0.9152,0.922,0.9291,0.942,0.9439,0.9486,0.9588,0.9629,0.968,0.9768,0.9792,0.9792,0.9792,0.9792,0.9792,0.9792,0.9812,0.9876,0.997,1.0062,1.0187,1.0466,1.0514,1.0582,1.0677,1.0688,1.0688,1.0688,1.0688,1.0688,1.0688,1.0688,1.0688,1.0688,1.0688,1.0688,1.0688,1.0688,1.0688,1.0688,1.0688,1.0688,1.8025,0.0,1.7991,0.0,1.7991,1.8088,0.0,0.0,1.9316,0.0,1.9854,2.0049,2.0498,1.9844,1.9481,2.0265,1.8769,1.7827,1.8658,1.7001,1.5696,1.5696,1.4755,1.4109,1.4109,1.4109,1.4496,1.5421,1.4636,1.4517,1.5434,1.4615,1.4109,1.4109,1.4402,1.4703,1.5008,1.5314,1.5578,1.5808,1.5808,1.5808,1.5808,1.5808,1.5706,1.5486,1.4388,1.3704,1.3199,1.0921,1.0062,1.0032,0.8921,0.8669,0.8912,0.8912,0.8912,0.8912,0.8912,0.8912,0.8912,0.8912,0.8912,0.8912,0.8912,0.8912,0.8912,0.8912,0.9028,0.9155,0.9204,0.9379,0.9554,0.9574,0.9673,0.9734,0.9632,0.9677,0.9768,0.9788,0.9792,0.9792,0.9792,0.9792,0.9792,0.9792,0.9903,0.9994,0.9984,1.0241,1.0446,1.0487,1.0612,1.0664,1.0684,1.0688,1.0688,1.0688,1.0688,1.0688,1.0688,1.0688,1.0688,1.0688,1.0688,1.0688,1.0688,1.0688,1.0688,1.0688,1.0688,1.0688,1.8269,1.7991,1.7991,0.0,1.7991,1.8098,1.851,1.8957,1.9404,1.9824,2.0107,2.0361,2.0566,2.0196,2.006,2.0527,1.9776,1.9116,1.9016,1.7617,1.6375,1.5758,1.5275,1.4998,1.4998,1.5545,1.5835,1.5703,1.5255,1.4936,1.481,1.4349,1.4109,1.4109,1.4369,1.4663,1.5008,1.5273,1.5538,1.5808,1.5808,1.5808,1.5808,1.5808,1.5808,1.5784,1.5218,1.4561,1.3764,1.1973,1.0905,1.027,0.9074,0.872,0.8912,0.8912,0.8912,0.8912,0.8912,0.8912,0.8912,0.8912,0.8912,0.8912,0.8912,0.8912,0.8926,0.9035,0.9131,0.9248,0.9393,0.951,0.9629,0.968,0.9744,0.9771,0.971,0.9748,0.9792,0.9792,0.9792,0.9792,0.9792,0.9792,0.9819,0.9903,0.9974,1.0079,1.0276,1.0409,1.0524,1.0612,1.0647,1.0688,1.0688,1.0688,1.0688,1.0688,1.0688,1.0688,1.0688,1.0688,1.0688,1.0688,1.0688,1.0688,1.0688,1.0688,1.0688,1.0688,1.0688,1.0688,1.8411,0.0,1.7991,1.7991,1.8069,1.8264,0.0,0.0,1.957,1.999,2.0361,2.0605,2.0605,2.0605,2.0605,2.0605,2.0605,2.0118,1.8758,1.7848,1.6907,1.582,1.5696,1.5799,1.6088,1.6825,1.6968,1.617,1.5841,1.5359,1.4552,1.425,1.4109,1.4109,1.4295,1.4589,1.5008,1.5324,1.5595,1.5808,1.5808,1.5808,1.5808,1.5808,1.5808,1.5808,1.5808,1.5266,1.4262,1.2796,1.1692,1.0772,0.9282,0.8777,0.8912,0.8912,0.8912,0.8912,0.8912,0.8912,0.8912,0.8912,0.8912,0.8912,0.8912,0.8912,0.894,0.9141,0.9238,0.9301,0.954,0.9635,0.969,0.9765,0.9792,0.9792,0.9792,0.9792,0.9792,0.9792,0.9792,0.9792,0.9792,0.9822,0.9886,0.997,1.0082,1.0211,1.0463,1.0524,1.0595,1.0674,1.0688,1.0688,1.0688,1.0688,1.0688,1.0688,1.0688,1.0688,1.0688,1.0688,1.0688,1.0688,1.0688,1.0688,1.0688,1.0688,1.0688,1.0688,1.0688,1.0688,0.0,1.7991,0.0,1.7991,1.8293,1.8685,0.0,0.0,2.0,2.0459,2.0586,2.0605,2.0605,2.0605,2.0605,2.0605,2.0605,1.9854,1.7678,1.7334,1.6907,1.582,1.5696,1.6088,1.7111,1.7273,1.7281,1.7212,1.6273,1.5675,1.5621,1.465,1.4109,1.4109,1.4102,1.4404,1.5001,1.5524,1.5788,1.5808,1.5808,1.5808,1.5808,1.5808,1.5808,1.5808,1.5808,1.5754,1.5506,1.3166,1.2249,1.2061,0.9652,0.8777,0.8912,0.8912,0.8912,0.8912,0.8912,0.8912,0.8912,0.8912,0.8912,0.8912,0.8912,0.8912,0.894,0.9141,0.9288,0.9434,0.9568,0.968,0.9781,0.9788,0.9792,0.9792,0.9792,0.9792,0.9792,0.9792,0.9792,0.9792,0.9792,0.991,0.9977,0.9984,1.0255,1.0473,1.049,1.0619,1.0677,1.0688,1.0688,1.0688,1.0688,1.0688,1.0688,1.0688,1.0688,1.0688,1.0688,1.0688,1.0688,1.0688,1.0688,1.0688,1.0688,1.0688,1.0688,1.0688,1.0688,1.0688,0.0,0.0,0.0,1.7991,1.8303,1.8715,1.9189,1.9609,2.0039,2.0498,2.0605,2.0605,2.0605,2.0605,2.0605,2.0605,2.0605,1.9835,1.7617,1.7928,1.7718,1.5902,1.694,1.796,1.835,1.9016,1.8829,1.7423,1.6948,1.6137,1.4755,1.4313,1.4109,1.4109,1.4109,1.439,1.5001,1.5351,1.5621,1.5808,1.5808,1.5808,1.5808,1.5808,1.5808,1.5808,1.5808,1.5808,1.5621,1.3286,1.2353,1.2153,0.9773,0.8865,0.8912,0.8912,0.8912,0.8912,0.8912,0.8912,0.8912,0.8912,0.8912,0.8912,0.8912,0.9001,0.9134,0.9288,0.9437,0.9561,0.9707,0.9751,0.9792,0.9792,0.9792,0.9792,0.9792,0.9792,0.9792,0.9792,0.9792,0.9792,0.9792,0.9917,1.0052,1.0181,1.0365,1.0527,1.0626,1.0654,1.0688,1.0688,1.0688,1.0688,1.0688,1.0688,1.0688,1.0688,1.0688,1.0688,1.0688,1.0688,1.0688,1.0688,1.0688,1.0688,1.0688,1.0688,1.0688,1.0688,1.0688,1.0688,1.867,0.0,0.0,0.0,1.8303,1.8715,1.9189,1.9609,2.0039,2.0498,2.0605,2.0605,2.0605,2.0605,2.0605,2.0605,2.0304,1.9559,1.8089,1.8189,1.802,1.694,1.8101,1.9135,1.95,2.0187,1.9668,1.7484,1.7302,1.6363,1.4208,1.4109,1.4109,1.4109,1.4182,1.4469,1.4979,1.5273,1.5538,1.5808,1.5808,1.5808,1.5808,1.5808,1.5808,1.5808,1.5808,1.5808,1.5658,1.3861,1.2864,1.2214,1.0348,0.9344,0.8912,0.8912,0.8912,0.8912,0.8912,0.8912,0.8912,0.8912,0.8912,0.8912,0.8912,0.9039,0.9241,0.9366,0.9493,0.9642,0.9754,0.9792,0.9792,0.9792,0.9792,0.9792,0.9792,0.9792,0.9792,0.9792,0.9792,0.9805,0.9859,0.9994,1.0147,1.0331,1.0477,1.0605,1.0674,1.0688,1.0688,1.0688,1.0688,1.0688,1.0688,1.0688,1.0688,1.0688,1.0688,1.0688,1.0688,1.0688,1.0688,1.0688,1.0688,1.0688,1.0688,1.0688,1.0688,1.0688,1.0688,1.0688,0.0,0.0,0.0,0.0,1.8313,1.8752,1.9189,1.9619,2.0059,2.0517,2.0605,2.0605,2.0605,2.0605,2.0605,2.0605,1.9697,1.8997,1.8997,1.8049,1.7759,1.8877,1.9026,1.9461,2.0508,2.0566,1.9658,1.7455,1.7273,1.6322,1.4208,1.4109,1.4109,1.4109,1.4341,1.4656,1.5008,1.5267,1.5531,1.5808,1.5808,1.5808,1.5808,1.5808,1.5808,1.5808,1.5808,1.5808,1.5729,1.4922,1.3758,1.2364,1.1469,1.0241,0.8964,0.8912,0.8912,0.8912,0.8912,0.8912,0.8912,0.8912,0.8912,0.8912,0.8912,0.9042,0.9248,0.9369,0.9493,0.9649,0.9754,0.9792,0.9792,0.9792,0.9792,0.9792,0.9792,0.9792,0.9792,0.9792,0.9795,0.9846,0.9991,1.0181,1.0366,1.047,1.0622,1.0688,1.0688,1.0688,1.0688,1.0688,1.0688,1.0688,1.0688,1.0754,1.0787,1.0787,1.0787,1.0787,1.0787,1.0721,1.0688,1.0688,1.0688,1.0688,1.0688,1.0688,1.0688,1.0688,1.0688,1.0688,1.8596,0.0,0.0,0.0,0.0,0.0,1.9276,1.9872,2.0439,2.0576,2.0605,2.0605,2.0605,2.0605,2.0605,2.0605,1.9697,1.8997,1.8997,1.8738,1.8658,1.8957,1.9678,2.0265,2.0566,1.9903,1.8849,1.7423,1.658,1.5545,1.4166,1.4109,1.4109,1.4109,1.4168,1.4449,1.4979,1.5066,1.5337,1.5808,1.5808,1.5808,1.5808,1.5808,1.5808,1.5808,1.5808,1.5808,1.5729,1.4866,1.4324,1.3808,1.1867,1.0863,1.0347,0.9292,0.8912,0.8912,0.8912,0.8912,0.8912,0.8912,0.8912,0.8912,0.8912,0.9117,0.9356,0.9396,0.9564,0.9741,0.9781,0.9792,0.9792,0.9792,0.9792,0.9792,0.9792,0.9792,0.9792,0.9792,0.9879,0.9967,0.998,1.0263,1.0446,1.0487,1.0622,1.0688,1.0688,1.0688,1.0688,1.0688,1.0688,1.0688,1.0688,1.1861,1.2574,1.2574,1.2574,1.2574,1.2574,1.1372,1.0688,1.0688,1.0688,1.0688,1.0688,1.0688,1.0688,1.0688,1.0688,1.0688,0.0,0.0,0.0,0.0,0.0,0.0,1.9266,1.9823,2.0361,2.0566,2.0605,2.0605,2.0605,2.0605,2.0605,2.0605,1.9697,1.9155,1.9599,1.9283,1.9164,1.9619,2.0226,2.0605,2.0605,2.004,1.9016,1.7415,1.6723,1.5711,1.4187,1.4109,1.4109,1.4109,1.4109,1.433,1.4798,1.4926,1.522,1.5628,1.5748,1.5808,1.5808,1.5808,1.5808,1.5808,1.5808,1.5875,1.598,1.5575,1.509,1.4446,1.3332,1.2534,1.1837,1.0347,0.9805,0.9726,0.9099,0.8912,0.8912,0.8912,0.8912,0.8912,0.8912,0.9147,0.941,0.941,0.9595,0.9792,0.9792,0.9792,0.9792,0.9792,0.9792,0.9792,0.9792,0.9792,0.9792,0.9792,0.9913,1.0038,1.0103,1.0337,1.0514,1.0578,1.0663,1.0688,1.0688,1.0688,1.0688,1.0688,1.0688,1.0979,1.1729,1.2705,1.3292,1.3292,1.3292,1.2964,1.2248,1.124,1.0688,1.0688,1.0688,1.0688,1.0688,1.0688,1.0688,1.0688,1.0688,1.0688,0.0,0.0,0.0,0.0,1.8449,0.0,1.9268,1.9678,2.0098,2.0498,2.0605,2.0605,2.0605,2.0605,2.0605,2.0605,1.9805,1.952,2.0469,1.9678,1.9402,2.0459,2.0605,2.0605,2.0605,2.0479,1.955,1.7455,1.707,1.6103,1.4208,1.4109,1.4109,1.4109,1.4109,1.4229,1.4494,1.4839,1.5133,1.5398,1.5668,1.5808,1.5808,1.5808,1.5808,1.5808,1.5808,1.5999,1.6317,1.6587,1.5954,1.4844,1.5229,1.4636,1.3372,1.1892,1.1242,1.0918,0.9588,0.9047,0.8912,0.8912,0.8912,0.8912,0.8912,0.9147,0.9417,0.9422,0.9618,0.9792,0.9792,0.9792,0.9792,0.9792,0.9792,0.9792,0.9792,0.9792,0.9795,0.9812,0.994,1.0086,1.0256,1.0412,1.0565,1.0667,1.0688,1.0688,1.0688,1.0688,1.0784,1.0982,1.0979,1.1696,1.3451,1.3774,1.3872,1.3872,1.3872,1.3193,1.1633,1.1178,1.1078,1.1273,1.1078,1.0883,1.0688,1.0688,1.0688,1.0688,1.0688,1.0688,0.0,0.0,0.0,0.0,1.9355,0.0,1.9757,2.0146,2.0488,2.0586,2.0605,2.0605,2.0605,2.0605,2.0605,2.0605,2.0421,2.0362,2.0566,1.9678,1.9402,2.0459,2.0605,2.0605,2.0605,1.9825,1.8749,1.7395,1.5698,1.4538,1.413,1.4109,1.4109,1.4109,1.4109,1.4229,1.4494,1.4839,1.5133,1.5398,1.5668,1.5808,1.5808,1.5808,1.5808,1.5808,1.5808,1.5999,1.6317,1.6587,1.6689,1.6594,1.5728,1.523,1.4824,1.3399,1.2132,1.1051,1.0781,0.9888,0.8912,0.8912,0.8912,0.8912,0.8912,0.9147,0.9461,0.9669,0.9748,0.9792,0.9792,0.9792,0.9792,0.9792,0.9792,0.9792,0.9792,0.9792,0.9829,0.995,1.0099,1.0246,1.0276,1.05,1.0683,1.0714,1.0688,1.0688,1.0688,1.0688,1.1244,1.2639,1.2804,1.3484,1.5237,1.6695,1.75,1.75,1.75,1.7339,1.6985,1.4264,1.3451,1.4847,1.3517,1.2088,1.0688,1.0688,1.0688,1.0688,1.0688,1.0688,0.0,0.0,0.0,1.9305,1.96,0.0,0.0,2.0254,2.0605,2.0605,2.0605,2.0605,2.0605,2.0605,2.0605,2.0605,2.0605,2.0605,2.0605,2.0138,2.0001,2.0547,2.0605,2.0605,2.0605,2.0118,1.9087,1.7444,1.5311,1.4109,1.4109,1.4109,1.4109,1.4109,1.4109,1.4155,1.4302,1.4765,1.5059,1.5213,1.5618,1.5808,1.5808,1.5808,1.5808,1.5808,1.5808,1.6079,1.65,1.6647,1.6993,1.7349,1.6739,1.6499,1.6307,1.4877,1.3884,1.3048,1.1592,1.0621,0.9888,0.9127,0.8912,0.8912,0.8912,0.9147,0.9442,0.9737,0.9792,0.9792,0.9792,0.9792,0.9792,0.9792,0.9792,0.9792,0.9792,0.9792,0.9836,0.9988,1.0175,1.0335,1.0407,1.0571,1.0688,1.0688,1.0688,1.0688,1.0688,1.0688,1.1372,1.3095,1.3292,1.4362,1.6985,1.7988,1.8506,1.8506,1.8506,1.8116,1.7243,1.5524,1.5009,1.5881,1.4199,1.2869,1.1989,1.1111,1.0688,1.0688,1.0688,1.0688,0.0,0.0,0.0,0.0,1.9785,2.0039,0.0,0.0,0.0,2.0605,2.0605,2.0605,2.0605,2.0605,2.0576,2.0468,2.0372,2.0255,2.0168,2.0226,2.0362,2.0586,2.0605,2.0605,2.0605,2.0401,1.9373,1.7151,1.5387,1.4307,1.4109,1.4109,1.4109,1.4109,1.4109,1.4109,1.4109,1.4691,1.5008,1.5015,1.5551,1.5808,1.5808,1.5808,1.5808,1.5808,1.5808,1.6135,1.6707,1.6707,1.7054,1.7608,1.7608,1.7608,1.745,1.6254,1.563,1.5064,1.2751,1.1565,1.0891,0.9699,0.913,0.8923,0.8977,0.9191,0.9442,0.9737,0.9792,0.9792,0.9792,0.9792,0.9792,0.9792,0.9792,0.9792,0.9792,0.9792,0.9846,1.0028,1.0195,1.0327,1.0466,1.0619,1.0688,1.0688,1.0688,1.0688,1.0688,1.0979,1.1861,1.3615,1.4101,1.5594,1.8736,1.8998,1.8998,1.8998,1.8998,1.8378,1.6953,1.6888,1.6598,1.5913,1.4847,1.397,1.3292,1.1894,1.1045,1.0688,1.0688,1.0688,0.0,0.0,0.0,0.0,2.0498,2.0517,2.0517,0.0,2.0605,2.0605,0.0,2.0605,2.0605,0.0,0.0,2.0049,1.9541,1.9037,1.8614,1.8917,1.954,2.0489,2.0605,2.0605,2.0605,1.9737,1.8261,1.6047,1.5662,1.5095,1.4145,1.4109,1.4109,1.4109,1.4109,1.4109,1.4109,1.4691,1.5008,1.5015,1.5551,1.5808,1.5808,1.5808,1.5808,1.5808,1.5808,1.6135,1.6707,1.6707,1.7054,1.7608,1.7608,1.7608,1.7582,1.7417,1.6525,1.5364,1.5037,1.3232,1.1078,1.0891,0.997,0.896,0.9252,0.9383,0.9442,0.9737,0.9792,0.9792,0.9792,0.9792,0.9792,0.9792,0.9792,0.9792,0.9792,0.9792,0.9876,1.0198,1.0266,1.0327,1.0466,1.0619,1.0688,1.0688,1.0688,1.0688,1.0688,1.2055,1.3681,1.5432,1.6985,1.8704,2.0652,2.0817,2.0817,2.0817,2.0817,2.0716,2.0526,2.0526,1.9062,1.5946,1.7211,1.6404,1.3292,1.3095,1.2219,1.0688,1.0688,1.0688,0.0,0.0,0.0,0.0,2.0605,2.0605,2.0605,2.0605,2.0605,2.0605,0.0,0.0,0.0,0.0,0.0,0.0,2.0081,1.9641,1.881,1.8868,1.8917,1.8709,1.9274,1.9678,1.9678,1.8669,1.7637,1.6703,1.5483,1.4573,1.413,1.4109,1.4109,1.4109,1.4109,1.4109,1.4109,1.4691,1.5008,1.5015,1.5551,1.5808,1.5808,1.5808,1.5808,1.5808,1.5808,1.6135,1.6707,1.6707,1.7054,1.7608,1.7608,1.7608,1.7608,1.7608,1.7206,1.6552,1.5689,1.4067,1.2077,1.0378,0.9399,0.895,0.9213,0.9339,0.9454,0.9639,0.9727,0.9792,0.9792,0.9792,0.9792,0.9792,0.9792,0.9792,0.9792,0.9792,0.9914,1.0219,1.0312,1.0354,1.0585,1.0644,1.1045,1.2055,1.1339,1.1435,1.3451,1.3484,1.4362,1.7114,1.8052,1.9221,2.0944,2.1109,2.1109,2.1109,2.1109,2.1109,2.1109,2.1109,2.0424,1.896,1.8634,1.7795,1.6302,1.4293,1.2931,1.2186,1.1178,1.0688,2.3569,0.0,2.0915,2.0654,2.0605,2.0605,2.0605,2.0605,2.0605,2.0605,2.0605,0.0,0.0,0.0,0.0,0.0,0.0,1.9395,1.8479,1.822,1.79,1.7354,1.8029,1.841,1.8121,1.7617,1.705,1.6465,1.5248,1.4412,1.413,1.4109,1.4109,1.4109,1.4109,1.4109,1.4109,1.4691,1.5008,1.5015,1.5551,1.5808,1.5808,1.5808,1.5808,1.5808,1.5808,1.6135,1.6707,1.6707,1.7054,1.7608,1.7608,1.7608,1.7608,1.7608,1.7608,1.7444,1.636,1.4824,1.2805,0.986,0.8912,0.8936,0.9138,0.9288,0.9441,0.9564,0.971,0.9792,0.9792,0.9792,0.9792,0.9792,0.9792,0.9792,0.9792,0.9792,0.9914,1.0219,1.0312,1.0407,1.0637,1.1111,1.1828,1.3095,1.2639,1.3029,1.5557,1.5204,1.5691,1.8212,1.8928,1.9706,2.0982,2.1109,2.1109,2.1109,2.1109,2.1109,2.1109,2.1109,2.1109,2.1109,1.9871,1.8992,1.8474,1.5946,1.4232,1.3259,1.1501,1.0688,2.3752,2.2739,2.1735,2.0828,2.0605,2.0605,2.0605,2.0605,2.0605,2.0605,2.0605,2.0605,0.0,0.0,0.0,0.0,0.0,0.0,0.0,1.6218,1.617,1.7172,1.7334,1.6948,1.5902,1.6703,1.6445,1.4356,1.5095,1.52,1.4166,1.4109,1.4109,1.4109,1.4109,1.4109,1.4109,1.4691,1.5008,1.5015,1.5551,1.5808,1.5808,1.5808,1.5808,1.5808,1.5808,1.6135,1.6707,1.6707,1.7054,1.7608,1.7608,1.7608,1.7608,1.7608,1.7608,1.7582,1.7556,1.5663,1.2805,0.986,0.8912,0.8936,0.9138,0.9288,0.9441,0.9564,0.971,0.9792,0.9792,0.9792,0.9792,0.9792,0.9792,0.9792,0.9792,0.9792,0.9914,1.0219,1.0312,1.0407,1.0637,1.2088,1.3226,1.3288,1.4684,1.5784,1.5881,1.7307,1.8378,1.8474,1.9998,2.1046,2.1109,2.1109,2.1109,2.1109,2.1109,2.1109,2.1109,2.1109,2.1109,2.1109,2.1046,2.0195,1.8506,1.8378,1.6592,1.3259,1.1501,1.0688,2.3781,2.2776,2.1773,2.0818,2.0605,2.0605,2.0605,2.0605,2.0605,2.0605,2.0605,2.0605,0.0,0.0,0.0,0.0,0.0,0.0,0.0,1.5677,1.4776,1.5144,1.5814,1.6088,1.5737,1.6026,1.5944,1.5213,1.4831,1.4468,1.413,1.4109,1.4109,1.4109,1.4109,1.4109,1.4109,1.4691,1.5008,1.5015,1.5551,1.5808,1.5808,1.5808,1.5808,1.5808,1.5808,1.6135,1.6707,1.6707,1.7054,1.7608,1.7608,1.7608,1.7608,1.7608,1.7608,1.7338,1.5423,1.4126,1.2805,0.986,0.8912,0.8919,0.8967,0.9184,0.942,0.9445,0.9632,0.9792,0.9792,0.9792,0.9792,0.9792,0.9792,0.9792,0.9792,0.9792,0.9914,1.0219,1.0312,1.0407,1.0637,1.3095,1.4619,1.3484,1.4781,1.6307,1.7468,1.8154,1.8928,2.01,2.0748,2.1109,2.1109,2.1109,2.1109,2.1109,2.1109,2.1109,2.1109,2.1109,2.1109,2.1109,2.1109,2.0817,2.0227,1.9062,1.7307,1.4977,1.3226,1.1795,2.3872,2.3036,2.2215,2.0915,2.0605,2.0605,2.0605,2.0605,2.0605,2.0605,2.0605,2.0605,0.0,0.0,0.0,0.0,0.0,0.0,0.0,1.4964,1.4109,1.4109,1.4713,1.5137,1.5137,1.5476,1.5538,1.5158,1.4831,1.4489,1.413,1.4109,1.4109,1.4109,1.4109,1.4109,1.4109,1.4691,1.5008,1.5015,1.5551,1.5808,1.5808,1.5808,1.5808,1.5808,1.5808,1.6135,1.6707,1.6707,1.7054,1.7608,1.7608,1.7608,1.7608,1.7608,1.7608,1.7252,1.4883,1.3723,1.2886,1.0457,0.9316,0.8912,0.8912,0.9147,0.941,0.941,0.9595,0.9792,0.9792,0.9792,0.9792,0.9792,1.024,1.0513,0.991,1.0286,1.0649,1.0355,1.0352,1.0626,1.149,1.4003,1.5524,1.4395,1.6237,1.8148,1.9285,1.9413,1.9839,2.0976,2.1109,2.1109,2.1109,2.1109,2.1109,2.1109,2.1109,2.1109,2.1109,2.1109,2.1109,2.1109,2.1109,2.1109,2.1109,1.9966,1.8218,1.5881,1.4749,1.2964]}]]